GFSCGP_sfc_30mbdewp_000.txt.gz
Dewpoint
22 19 17 17 19 20 17 18 21 21 22 25 23 24 23 21 20 20 21 23 25 28 31 31 30 31 29 29 29 30 30 30 32 32 32 32 30 33 35 37 45 45 43 40
21 19 19 19 21 19 19 21 21 23 24 26 25 23 18 17 18 20 23 24 24 26 29 29 29 29 28 28 28 29 29 30 31 31 32 31 30 31 32 33 36 41 43 39
20 19 18 19 20 19 18 21 22 23 26 27 25 19 16 18 22 23 23 24 24 24 26 29 31 30 30 29 29 29 29 30 31 32 32 32 34 34 33 33 34 36 40 39
20 19 15 21 20 21 19 21 24 25 25 22 26 21 19 17 19 22 23 24 24 25 27 26 28 31 32 31 32 31 32 32 32 33 33 31 30 29 30 30 31 34 38 38
20 15 17 19 19 24 22 24 27 27 26 25 23 21 19 18 17 20 24 26 27 28 28 28 28 28 30 32 34 34 34 34 34 36 36 34 32 32 32 32 31 31 34 37
20 21 22 22 26 27 28 28 29 29 26 21 23 21 19 21 20 23 26 27 28 28 29 31 31 32 34 36 36 37 37 37 37 38 37 37 35 34 33 33 33 34 35 36
28 25 25 28 26 27 28 28 23 16 21 22 26 23 20 21 22 23 24 26 27 28 29 30 30 36 37 37 38 37 37 37 37 37 36 37 38 38 36 34 34 36 32 30
29 24 30 28 27 27 27 29 25 19 22 23 26 21 21 25 25 24 25 27 29 31 32 33 36 37 37 37 37 37 37 36 35 36 35 37 38 38 39 37 36 34 32 31
30 27 32 30 32 29 28 27 30 26 28 26 26 27 24 26 29 29 29 30 32 33 35 35 36 37 37 37 38 38 38 37 37 36 34 33 33 34 32 31 31 31 30 30
33 30 33 32 33 31 29 30 27 29 24 25 25 25 23 25 30 31 31 31 32 32 32 34 36 37 37 38 39 39 38 38 37 29 32 29 29 28 29 27 27 28 32 36
33 32 28 30 31 30 27 30 30 31 30 28 27 28 29 30 31 31 32 32 32 32 34 36 37 38 38 38 39 39 39 38 29 28 31 29 26 27 25 25 27 28 30 32
34 31 29 27 32 33 32 31 31 28 27 29 28 27 31 32 31 31 31 33 33 33 35 38 38 38 38 38 38 38 39 31 29 29 30 29 27 25 24 26 27 27 27 26
33 29 25 22 26 31 31 31 32 32 30 28 26 25 29 30 31 32 33 34 34 36 38 39 38 38 39 39 38 39 39 31 31 31 28 26 23 22 26 26 26 25 24 24
34 32 28 25 26 32 31 31 32 30 28 28 28 28 28 29 32 34 35 36 36 38 38 38 38 38 39 38 39 39 32 33 33 30 25 23 23 24 27 26 26 25 25 25
34 31 32 32 32 33 33 33 33 32 30 28 28 27 29 33 34 35 36 37 37 38 38 38 38 39 39 39 39 36 35 35 34 28 26 29 31 31 29 27 29 32 28 27
37 33 34 33 34 34 33 33 33 31 30 29 28 27 36 38 38 38 37 37 38 38 38 37 39 40 39 38 38 36 36 36 37 36 37 36 34 34 34 36 34 32 29 26
36 34 33 27 33 33 29 30 29 28 28 27 27 29 37 38 38 38 38 38 38 38 37 37 39 40 38 37 36 36 37 39 37 38 38 38 38 37 35 34 33 28 22 20
34 34 32 30 31 25 27 30 30 28 29 30 35 36 38 38 39 39 39 38 39 38 37 38 39 38 37 36 36 37 38 39 38 37 37 36 36 34 30 25 22 18 17 16
37 34 32 29 28 28 28 28 28 28 30 35 36 37 38 39 39 37 37 39 39 38 39 39 37 36 36 35 36 37 33 35 30 23 23 23 23 20 19 17 16 16 16 16
36 35 30 28 26 22 23 27 33 35 29 36 37 37 38 39 35 35 39 39 35 38 37 35 34 34 35 34 29 23 20 20 21 22 21 21 21 19 17 17 16 16 15 17
28 30 28 26 26 27 28 30 35 26 24 35 37 37 39 39 38 40 40 35 37 35 34 34 34 34 35 32 26 17 18 19 20 20 21 20 21 20 19 16 15 16 18 20
25 25 27 29 27 24 33 33 31 32 35 35 36 38 40 39 39 36 34 35 34 33 33 33 34 34 33 21 16 17 20 21 21 21 21 22 22 21 17 16 16 18 20 18
28 28 26 27 26 31 33 34 35 37 35 36 39 41 40 37 36 36 32 33 33 33 32 33 34 31 28 18 19 20 21 22 22 22 22 23 23 20 17 17 18 18 18 18
33 33 31 31 31 32 34 35 35 36 38 42 42 41 39 36 36 32 33 32 32 32 31 33 33 29 29 22 20 21 22 22 22 22 22 24 22 20 19 20 18 18 17 18
36 38 35 34 35 35 35 35 37 40 41 38 38 37 37 32 30 32 31 30 31 31 32 34 35 34 28 21 21 22 23 23 22 22 23 23 22 19 20 20 19 19 20 21
37 35 34 33 35 35 36 39 37 37 37 37 35 33 29 28 32 32 30 29 28 31 35 32 32 24 21 22 21 22 24 23 23 22 22 21 22 21 19 19 20 21 22 20

GFSCGP_sfc_30mbdewp_003.txt.gz
Dewpoint
24 18 16 17 19 20 18 19 21 21 22 25 25 25 24 22 20 19 19 21 27 28 30 30 30 31 32 32 31 27 27 28 33 33 33 33 32 32 35 36 37 43 46 44
22 18 19 21 21 19 19 20 18 23 25 27 25 24 17 18 20 22 23 26 27 28 28 29 29 28 28 29 29 29 29 29 30 31 31 31 31 31 32 33 35 39 44 44
19 19 18 20 20 18 18 19 20 22 26 26 25 20 16 20 22 24 24 25 26 28 28 29 28 27 28 27 28 28 28 29 30 32 32 32 33 33 32 32 33 34 40 44
20 17 19 19 20 22 19 20 23 24 25 22 25 17 20 17 21 22 24 24 25 26 26 28 30 30 30 30 31 31 31 32 32 33 33 32 31 31 31 32 32 32 36 37
20 16 20 22 23 24 24 27 27 28 27 25 23 20 21 21 17 21 25 26 26 27 27 27 28 28 30 32 32 36 37 37 37 37 37 37 36 36 36 35 35 34 33 36
25 23 24 24 26 28 29 29 28 29 26 21 24 23 20 21 21 24 26 27 28 28 29 31 32 35 37 38 37 37 37 37 37 36 37 37 36 36 37 37 36 36 36 36
30 29 29 28 27 29 29 28 17 16 18 21 27 22 21 23 24 25 26 27 28 28 28 30 32 36 37 37 37 37 37 37 37 37 36 34 35 36 37 36 37 36 34 34
29 22 31 30 28 28 28 28 23 16 20 22 26 22 23 25 25 25 26 27 30 32 33 35 36 37 36 37 38 38 38 37 37 36 30 30 32 34 35 36 35 36 32 32
30 26 33 32 33 30 29 27 30 26 27 26 26 27 27 29 31 27 30 31 33 34 35 35 36 36 36 36 37 38 37 37 38 32 29 31 31 31 32 31 33 32 32 35
33 29 32 31 32 32 29 30 27 28 24 22 25 26 24 27 31 30 31 31 31 32 33 35 36 36 36 37 38 38 38 38 37 29 31 31 31 30 31 31 30 30 34 38
32 31 26 29 29 30 30 30 30 30 29 26 25 26 30 30 29 31 31 32 32 32 34 36 37 37 37 38 38 38 38 39 33 31 32 32 32 29 29 29 30 32 35 33
34 31 26 26 32 34 32 31 30 26 24 27 26 25 30 30 31 32 32 34 35 34 35 37 38 38 38 38 39 38 39 38 32 33 33 32 30 29 26 28 29 29 26 26
33 29 23 22 26 28 31 32 32 30 29 27 24 24 30 31 32 33 34 35 36 35 37 38 38 38 38 39 39 38 39 33 34 34 32 29 26 25 26 27 27 26 24 24
34 31 27 23 24 30 30 32 33 31 28 27 27 27 29 30 33 35 36 36 37 37 37 38 38 38 38 39 38 38 36 35 35 35 30 24 22 24 26 26 29 32 31 27
35 32 32 31 32 33 33 33 33 32 31 30 29 29 29 30 36 37 37 37 37 37 38 38 38 37 39 39 38 38 36 35 37 37 31 31 30 30 31 36 36 33 30 28
37 31 34 32 33 34 33 33 34 33 33 31 30 27 29 36 38 38 38 38 38 37 39 38 36 37 39 39 37 35 35 36 38 37 37 37 37 37 37 36 35 34 35 34
35 33 33 26 31 32 25 27 29 30 27 27 26 27 34 36 37 38 38 38 38 37 38 35 36 38 39 36 36 35 35 37 37 37 37 37 37 38 37 36 36 36 27 22
33 34 32 29 31 24 23 29 28 28 28 29 30 34 36 37 38 39 39 39 37 38 35 34 38 38 35 35 34 35 36 36 36 31 26 26 27 27 27 23 21 19 18 18
35 33 31 29 28 27 28 27 26 27 27 32 34 35 36 35 39 38 38 39 35 33 33 35 37 34 33 34 31 26 24 25 24 24 25 24 23 21 20 19 18 17 16 17
35 33 32 28 26 23 24 25 30 34 29 34 36 36 34 36 34 34 40 37 37 35 35 35 34 33 33 34 27 28 26 23 23 27 25 22 21 21 20 18 16 17 18 21
29 30 30 28 26 27 28 30 32 28 26 33 35 35 35 35 37 39 37 35 35 35 35 34 33 33 34 30 24 20 19 23 22 22 22 22 22 22 19 17 17 19 20 19
25 24 25 27 25 24 32 34 31 33 34 35 36 36 38 40 38 37 34 34 32 34 33 32 31 33 32 23 21 20 19 21 22 21 22 22 23 21 18 18 19 19 18 17
28 28 26 27 27 30 32 33 34 36 36 36 39 41 41 37 37 34 33 34 33 31 32 31 32 32 30 23 19 20 21 21 21 22 21 23 23 20 19 19 18 18 17 18
35 36 33 32 33 32 35 37 36 37 39 42 38 37 36 34 32 29 31 33 31 30 30 31 33 33 34 32 23 20 21 22 22 21 21 23 22 20 20 19 19 19 18 18
36 38 36 35 36 37 37 37 40 41 39 37 37 36 35 31 29 28 29 32 30 28 30 34 33 31 30 30 22 21 21 22 22 22 22 22 22 21 20 18 20 20 21 21
38 35 35 35 37 36 37 41 40 37 36 36 34 32 31 28 27 29 32 32 30 28 31 33 30 30 26 22 21 20 22 23 22 22 23 22 22 22 21 18 19 20 20 20

GFSCGP_sfc_30mbdewp_009.txt.gz
Dewpoint
23 19 17 20 20 19 18 18 19 21 24 26 26 24 19 22 22 21 22 24 26 28 30 31 33 35 36 39 42 42 42 44 42 39 37 36 36 36 37 37 39 40 41 44
20 17 19 21 21 18 19 18 17 22 24 27 26 21 20 23 25 27 27 28 28 29 29 31 33 35 37 38 38 34 33 34 34 34 35 36 36 36 37 38 40 40 40 40
19 18 22 21 24 23 23 19 20 22 25 27 24 21 22 21 24 25 27 28 28 28 29 29 30 32 33 33 33 33 34 36 38 39 37 38 38 38 36 35 36 37 40 40
18 22 25 25 24 25 21 24 28 26 26 21 25 17 22 22 22 24 25 26 28 28 29 30 31 33 35 36 40 39 39 39 39 40 38 37 35 34 35 36 36 38 39 40
17 23 25 25 24 27 27 30 29 28 27 26 26 20 22 24 21 21 25 26 28 29 31 33 37 38 38 39 40 40 39 39 40 39 37 36 36 36 36 36 35 35 37 39
27 29 27 27 27 29 30 29 26 28 27 22 25 23 22 24 24 24 26 28 30 31 31 35 38 38 38 40 41 41 39 39 40 40 36 37 37 37 37 36 35 34 35 36
28 29 31 30 27 30 30 24 17 18 19 19 26 24 23 26 26 26 27 29 34 37 36 36 37 37 37 38 39 39 39 38 39 40 36 36 38 38 36 35 34 33 34 34
26 21 30 33 30 28 30 28 23 12 17 21 27 22 25 30 31 30 33 33 33 34 36 37 37 37 37 38 39 40 39 38 39 40 38 37 38 37 35 35 35 35 34 35
28 25 32 33 33 31 29 28 30 26 26 26 25 27 29 30 30 32 31 33 33 34 35 36 37 38 39 39 39 40 40 38 39 41 38 37 37 36 35 36 34 33 35 37
33 26 30 31 32 32 30 31 25 28 20 18 22 25 22 28 29 31 32 34 35 36 35 36 36 38 39 40 40 41 41 39 39 40 36 36 36 36 34 31 32 33 35 39
31 29 24 29 30 30 30 28 29 29 29 25 24 23 30 29 31 31 33 35 36 37 37 37 37 38 39 40 40 40 41 39 40 36 36 37 35 31 28 30 32 34 37 34
33 30 21 25 31 34 32 28 27 22 20 27 27 23 29 31 32 32 34 36 37 38 38 38 38 39 40 39 38 40 41 40 36 36 37 35 30 27 29 31 31 32 30 29
32 28 17 15 26 29 31 32 30 30 30 27 25 23 29 32 31 33 35 36 37 38 38 38 38 39 38 36 38 40 39 37 36 37 37 33 31 30 35 36 36 36 35 34
34 30 24 13 17 26 27 31 31 31 29 26 27 26 28 29 30 32 34 37 37 38 39 39 39 35 34 36 38 38 37 36 36 38 36 35 34 35 36 36 36 36 35 34
35 31 31 30 31 31 30 31 31 31 31 29 28 28 29 31 33 33 37 37 37 37 39 38 34 32 33 35 37 36 35 36 38 37 37 37 37 37 37 33 32 33 32 32
35 28 32 30 32 32 30 31 32 32 32 32 32 31 33 34 35 37 36 36 36 39 36 34 33 32 32 36 35 34 34 36 38 37 31 29 29 29 29 30 30 31 28 24
34 33 31 20 30 30 22 22 28 29 30 28 26 26 31 33 36 35 35 37 38 34 34 31 27 31 34 35 34 33 34 34 34 29 28 28 30 26 23 22 21 20 20 20
34 33 31 29 29 19 21 28 28 28 29 29 28 31 33 35 36 36 38 36 36 35 31 27 28 34 36 34 32 32 31 30 29 28 30 30 26 22 22 21 20 19 19 19
36 34 29 27 26 27 28 27 26 26 26 30 34 36 36 37 37 36 37 37 35 33 32 30 33 36 34 31 34 27 26 26 27 28 27 23 23 22 21 20 19 19 19 19
34 32 31 29 26 23 25 27 31 33 27 35 35 36 37 37 34 36 36 36 33 31 29 30 35 34 31 31 34 32 29 29 26 25 23 22 22 21 20 20 19 19 19 18
28 30 28 28 27 28 30 31 31 28 31 37 36 36 37 36 36 37 37 35 32 31 29 32 35 31 30 33 34 30 25 24 26 23 22 21 21 21 21 19 19 18 17 20
25 25 25 27 26 23 30 31 30 35 39 37 37 39 37 37 36 33 33 33 30 30 30 32 33 30 31 33 32 26 27 30 32 23 22 21 21 21 19 19 18 17 18 20
27 28 27 30 29 30 31 33 38 39 39 39 39 38 37 35 32 30 32 31 31 30 30 32 31 30 31 33 31 28 31 33 27 23 22 21 22 21 20 18 19 18 19 20
33 34 34 34 35 34 36 39 41 41 39 39 38 37 35 32 31 32 31 31 29 30 30 31 31 30 31 33 31 31 30 26 22 22 22 22 22 22 22 21 21 19 20 19
35 37 35 35 36 36 37 40 41 39 39 37 36 35 34 33 31 30 30 29 30 31 31 31 31 31 32 32 31 26 23 23 22 22 22 23 24 23 22 22 20 20 21 19
38 37 35 33 36 38 39 40 41 38 35 33 33 31 29 30 29 30 29 29 31 30 30 29 28 28 26 25 23 23 23 23 23 22 23 24 23 22 20 19 19 20 20 20

GFSCGP_sfc_30mbdewp_012.txt.gz
Dewpoint
23 17 17 20 21 19 17 15 15 16 23 25 24 21 20 22 23 24 23 24 28 33 32 33 36 38 39 44 46 45 46 43 41 37 36 35 36 36 37 39 41 42 41 42
17 19 21 23 22 19 19 17 16 21 24 26 24 20 20 23 25 26 25 26 28 29 29 33 36 39 40 40 39 37 36 37 36 35 37 39 40 39 40 39 39 38 38 38
17 19 22 24 24 23 23 20 23 23 25 26 24 21 20 22 25 26 26 27 27 28 29 31 33 36 38 39 38 37 38 40 41 40 37 37 37 37 35 35 34 35 36 36
20 25 26 24 25 27 20 26 28 26 24 15 26 15 21 21 22 24 26 28 29 29 30 32 34 36 39 41 41 40 39 39 39 40 37 38 36 35 36 36 35 36 35 34
21 25 26 25 26 29 27 31 28 28 25 23 23 18 22 22 20 22 25 28 30 31 34 36 37 38 39 40 41 41 39 39 40 39 39 37 37 37 36 36 35 33 30 31
26 29 29 29 28 29 31 29 29 29 28 23 25 22 22 24 25 24 26 30 33 34 33 36 38 38 38 40 42 41 39 38 40 40 38 39 39 38 36 34 32 30 30 30
25 28 30 32 26 31 28 25 20 24 23 21 25 22 26 27 27 29 30 33 35 37 36 36 36 36 38 39 40 39 39 37 38 39 37 36 36 37 35 34 32 32 29 30
22 23 30 32 31 29 29 28 25 19 19 20 25 19 25 29 31 32 32 33 34 34 36 36 36 36 38 40 40 41 39 37 35 36 36 36 38 38 35 34 33 31 31 33
25 25 31 32 32 31 28 28 30 28 28 27 21 25 29 29 30 30 32 33 34 34 35 35 35 36 38 39 40 41 40 39 38 39 39 39 39 36 34 32 32 31 33 34
31 26 29 30 32 32 30 31 26 25 22 14 11 16 16 28 29 30 31 32 34 34 35 35 36 37 37 39 41 41 40 39 40 40 38 37 36 34 32 32 32 34 35 38
29 28 25 30 30 29 30 29 29 27 28 20 17 12 28 28 30 29 31 32 34 35 36 36 37 37 39 40 38 38 39 39 37 37 36 35 34 32 32 32 32 33 34 31
34 31 21 22 32 33 31 28 27 22 21 26 27 19 27 29 31 32 32 34 35 36 35 36 37 38 39 37 36 35 36 35 35 35 34 34 33 32 32 33 33 34 34 33
33 28 16 19 29 31 30 30 30 30 31 26 25 21 26 29 30 29 31 33 35 34 34 36 38 38 36 34 33 33 34 35 35 33 32 32 33 33 33 34 34 34 34 34
35 31 23 11 15 24 22 24 27 28 28 24 23 23 24 24 26 28 31 35 35 35 36 38 38 36 33 31 30 34 35 34 32 33 32 31 34 35 35 32 31 30 30 31
36 27 29 27 27 26 26 25 25 25 27 26 26 24 25 27 28 31 34 35 35 36 38 36 35 31 27 28 33 34 32 31 33 33 32 31 31 29 28 27 26 25 25 22
36 29 32 28 28 26 26 26 25 27 28 28 28 27 28 29 32 35 35 35 36 37 35 34 32 25 25 30 34 30 27 28 33 31 30 29 27 27 25 24 22 20 17 18
36 35 32 26 29 28 25 27 25 26 29 28 26 26 30 32 34 35 36 36 37 36 34 32 26 23 28 33 30 27 27 29 30 30 28 27 27 26 23 20 16 16 17 19
37 36 34 31 30 22 26 27 27 27 27 27 27 30 34 35 36 35 37 37 36 35 28 25 25 26 31 32 27 28 27 27 28 28 27 27 25 23 19 16 16 17 18 18
38 37 31 29 25 24 26 28 28 27 27 31 33 35 35 35 35 35 37 38 37 34 29 27 26 28 32 31 28 29 29 27 26 27 26 25 23 21 16 16 17 18 18 18
35 36 35 30 26 22 27 29 31 32 26 35 38 38 37 38 34 35 38 37 32 30 27 25 25 28 31 30 29 30 28 25 23 25 26 24 22 19 16 18 19 20 18 17
32 32 30 28 28 28 30 31 33 29 32 38 39 39 38 36 36 38 38 31 27 26 25 24 23 26 29 29 29 29 27 23 21 24 25 24 22 18 18 19 20 20 19 20
26 30 29 30 27 26 31 31 34 34 38 39 39 39 37 38 37 33 28 26 22 23 23 23 23 24 25 27 28 28 25 22 24 28 27 24 21 19 19 20 20 20 20 20
28 29 27 29 29 31 33 35 35 39 39 39 39 37 38 32 29 25 22 21 22 24 23 23 24 25 24 25 27 28 26 27 28 29 25 22 21 21 21 21 21 20 19 22
33 33 33 33 32 33 36 36 40 41 40 39 37 33 29 28 25 21 21 22 23 23 22 24 24 22 22 25 29 30 32 34 31 26 22 22 22 22 22 22 21 19 20 22
33 34 32 33 35 36 35 40 41 40 39 36 30 30 28 20 19 20 20 20 20 22 24 24 22 22 22 24 26 28 24 23 22 21 21 22 23 23 22 21 19 19 21 20
35 32 34 35 37 38 38 39 40 40 33 30 28 21 19 19 19 19 18 19 20 22 25 23 23 23 23 24 26 23 24 24 24 22 22 24 25 24 23 19 19 21 20 19

GFSCGP_sfc_30mbdewp_015.txt.gz
Dewpoint
20 17 15 18 16 14 11 9 10 12 19 18 16 16 18 22 22 25 25 24 23 27 37 37 38 38 41 46 47 48 48 45 41 38 37 36 37 37 38 39 41 42 41 41
14 17 20 21 19 16 16 14 14 18 20 20 18 17 19 22 25 24 25 27 30 32 32 35 39 41 41 41 41 40 39 39 38 37 38 41 41 40 40 41 40 38 38 38
16 20 21 22 19 19 20 18 22 21 21 21 19 17 19 21 23 25 25 26 27 29 30 32 36 39 41 41 39 39 39 40 41 40 38 38 38 37 37 37 38 37 39 37
19 24 22 21 22 24 19 24 25 23 20 15 20 14 20 20 22 24 26 27 28 29 31 33 36 39 41 42 41 40 40 39 40 41 39 40 38 38 38 38 38 38 36 33
21 22 24 23 25 26 24 29 26 25 22 19 17 13 21 20 21 23 26 29 31 32 34 35 37 38 40 42 42 41 40 40 41 41 41 40 39 39 38 37 36 35 32 33
24 27 28 27 27 27 29 28 26 27 24 19 21 18 21 22 24 24 26 30 32 33 35 36 37 37 39 41 43 42 40 39 40 41 41 39 39 38 36 35 34 33 34 32
24 26 29 30 26 29 26 24 22 23 22 21 23 16 26 26 27 27 29 32 35 36 36 36 36 36 38 39 40 41 39 39 38 38 39 38 37 38 36 35 34 33 31 31
20 25 27 29 29 27 26 26 26 18 19 18 22 13 24 28 30 31 31 32 33 35 36 36 36 37 38 38 39 41 41 39 39 39 40 40 39 37 36 35 33 32 32 34
23 24 29 30 30 29 27 26 27 28 28 26 16 20 28 29 29 30 30 32 32 33 33 34 35 36 38 38 38 41 40 38 37 39 40 39 37 37 35 33 32 33 33 33
27 26 26 29 30 31 29 28 26 24 22 13 10 9 19 27 28 29 29 30 31 32 33 35 36 37 37 38 39 39 38 37 38 37 36 36 36 35 32 32 32 32 32 32
25 24 25 26 27 25 27 27 27 22 23 20 14 13 22 23 26 28 28 29 31 33 35 34 35 37 37 38 37 36 36 36 35 34 34 33 33 33 31 31 31 34 33 33
30 27 21 18 28 31 29 26 24 22 18 22 24 22 25 26 26 27 28 30 33 34 34 34 35 37 37 36 36 34 33 31 32 33 31 29 29 30 30 32 33 33 34 33
31 27 18 17 28 29 26 26 24 26 28 22 22 21 24 26 27 27 26 30 32 34 35 36 38 36 36 35 33 29 31 32 32 30 28 27 28 30 32 33 31 29 29 28
35 26 22 16 16 18 19 19 20 22 24 24 22 21 22 24 26 27 28 31 34 35 35 37 36 35 34 30 26 29 30 31 29 27 28 27 28 29 30 29 28 25 23 21
33 26 26 24 21 19 20 21 21 19 19 20 23 23 24 27 28 30 32 33 33 34 35 36 35 32 27 24 26 29 30 27 27 27 27 26 27 27 28 27 24 22 19 17
32 30 31 26 24 21 21 21 20 20 22 23 23 23 28 29 30 32 33 34 34 36 36 36 29 26 23 24 26 29 27 27 26 26 25 25 26 28 28 24 21 16 15 16
33 33 29 27 30 29 26 27 21 22 23 25 25 26 28 29 33 34 35 36 36 37 37 33 26 25 25 24 26 27 25 26 24 24 23 24 28 28 25 22 16 15 16 17
38 34 36 32 30 24 25 25 25 24 25 25 25 27 31 34 35 36 37 37 37 36 34 30 27 24 22 22 24 27 25 25 24 23 25 27 27 26 22 20 15 16 16 17
36 37 32 30 25 23 25 28 28 26 27 27 32 34 34 35 36 35 38 38 37 35 31 26 23 21 21 21 23 24 24 23 22 22 20 23 26 26 21 18 16 17 17 17
36 39 35 32 27 22 28 29 31 31 26 35 36 35 36 37 34 35 37 36 34 29 23 22 21 21 20 20 21 22 21 20 22 23 20 22 23 23 22 18 18 18 17 16
33 34 32 30 28 27 27 31 32 27 31 36 39 37 38 35 37 37 37 32 26 22 19 20 20 20 20 21 21 19 18 18 21 23 23 27 31 27 21 18 18 17 17 20
29 32 30 31 28 25 31 30 33 34 38 38 40 38 37 36 34 32 27 22 20 20 19 18 18 18 20 19 18 18 17 22 28 30 31 33 32 26 21 19 18 18 18 21
26 29 29 30 28 28 32 33 37 38 39 40 39 39 37 32 28 25 21 20 19 19 16 16 16 19 18 18 17 17 20 25 29 32 33 32 26 25 20 20 18 18 19 21
30 29 32 32 30 30 32 36 40 41 41 40 39 37 28 27 24 20 19 18 16 13 13 14 17 17 17 18 18 20 25 26 25 27 26 25 22 22 21 18 17 17 20 21
33 32 33 34 33 32 35 39 39 40 40 39 34 29 28 23 20 19 16 14 14 15 15 17 18 18 18 20 22 24 26 26 25 24 22 21 21 21 21 20 19 19 21 20
33 32 33 34 35 38 39 41 40 39 39 31 29 25 23 22 18 15 14 15 16 17 18 18 17 19 21 24 25 25 26 27 26 24 22 23 24 24 24 20 19 22 21 19

GFSCGP_sfc_30mbdewp_018.txt.gz
Dewpoint
18 17 18 18 15 12 9 7 7 14 19 16 11 13 16 20 21 21 22 22 23 36 38 39 40 43 46 48 49 50 47 45 43 41 40 42 43 43 43 43 45 43 44 43
13 16 19 18 15 13 12 13 12 16 18 17 13 16 19 21 24 23 23 24 33 34 37 40 42 43 42 42 42 41 42 42 42 42 41 43 43 42 42 43 43 43 43 42
20 19 18 17 17 17 16 16 22 20 20 19 17 17 19 22 24 24 27 30 31 32 34 37 40 43 44 42 41 41 41 42 43 44 41 42 42 41 41 42 41 42 42 40
20 22 18 18 19 23 17 26 25 21 20 16 19 13 19 21 22 25 27 29 29 30 32 36 40 42 44 43 43 41 41 41 42 43 43 43 43 42 42 42 41 41 39 40
20 21 22 22 25 24 23 27 24 23 21 19 16 17 20 21 22 26 28 30 32 34 35 36 38 40 42 44 44 43 42 40 42 43 43 42 42 42 41 41 41 39 39 38
23 25 27 26 26 25 26 27 25 25 23 22 18 19 25 22 22 25 28 31 32 34 36 37 38 39 42 43 44 43 41 40 41 40 41 41 42 41 41 40 39 37 36 36
23 25 28 27 27 29 26 24 24 26 22 23 24 15 27 26 27 26 29 33 35 36 37 36 36 37 39 40 41 41 42 41 41 42 42 43 42 41 39 38 37 35 35 35
20 25 26 28 28 25 25 25 27 22 24 22 19 14 25 28 30 31 32 33 34 35 36 35 36 37 38 39 40 41 42 40 39 41 42 42 40 40 39 37 35 35 35 36
21 25 28 28 28 26 27 26 23 26 28 25 16 25 28 29 29 29 30 31 32 33 33 35 36 37 38 38 40 41 40 39 39 39 39 39 39 39 37 35 35 35 36 35
25 26 25 26 28 30 26 25 24 26 21 17 12 14 25 28 28 30 28 29 30 31 33 35 35 38 39 39 40 40 38 37 37 36 36 35 35 35 35 34 35 36 35 35
25 23 25 24 25 23 26 25 25 22 22 21 18 16 20 22 27 28 28 28 31 33 34 35 36 38 39 40 38 38 36 33 33 34 34 33 33 33 34 36 35 35 35 33
27 26 24 19 25 27 25 24 23 24 20 25 24 21 23 25 26 29 30 31 33 34 36 36 38 38 38 37 37 35 31 32 33 33 31 30 31 31 33 33 34 33 32 32
31 28 23 21 28 28 22 23 22 26 30 24 20 21 25 28 33 32 30 30 35 35 35 36 37 37 36 36 34 30 30 31 32 30 28 28 29 30 31 31 33 32 30 28
36 25 21 20 17 18 17 17 18 18 25 26 25 23 23 25 29 31 30 33 33 34 35 36 36 36 34 30 29 27 29 32 29 28 27 27 29 29 29 30 30 29 27 24
32 26 27 25 21 20 18 18 19 18 20 19 21 20 23 28 29 31 34 34 34 34 35 36 36 34 28 27 26 27 28 30 29 28 26 27 28 28 29 30 30 27 25 20
32 32 32 26 22 21 20 22 22 21 20 20 23 23 26 33 35 36 36 35 35 36 36 36 34 30 27 27 26 25 27 29 29 28 28 27 27 28 29 30 29 26 21 20
34 34 31 27 30 29 28 28 22 23 23 24 23 27 32 33 33 34 35 36 37 36 35 34 30 30 26 23 23 23 24 27 29 30 28 27 30 29 29 29 25 23 20 21
37 35 36 28 31 18 23 24 24 24 25 25 25 30 33 34 34 34 37 36 36 35 34 33 30 24 23 22 22 22 22 22 22 24 24 27 28 30 28 27 24 21 21 21
36 37 31 30 27 24 24 28 28 27 27 28 32 34 35 35 34 34 37 36 35 34 32 26 22 21 21 21 21 22 21 20 20 21 27 30 32 26 28 27 26 21 21 21
37 39 35 32 26 21 25 28 31 30 26 36 37 37 36 36 33 33 35 35 31 26 22 19 20 20 19 20 21 19 18 18 18 27 31 32 33 34 34 34 28 21 22 22
33 35 32 31 28 30 28 30 32 25 31 39 39 38 37 35 36 35 34 29 23 20 19 19 17 17 18 19 18 18 17 17 22 28 30 31 33 35 34 31 23 22 22 24
29 31 30 31 28 25 31 30 30 35 39 40 40 38 38 39 35 30 26 22 19 18 16 13 14 15 18 18 17 17 17 22 25 26 28 31 36 36 29 25 23 22 21 24
26 33 33 32 31 33 32 33 38 39 40 40 38 39 38 34 27 25 21 19 18 15 13 14 14 16 17 18 18 19 23 25 25 26 27 29 29 27 27 24 20 19 21 23
27 27 31 32 32 30 33 36 41 40 39 39 39 38 36 27 26 21 21 18 15 14 14 16 17 17 18 19 22 24 25 26 26 25 25 24 23 23 22 22 20 21 22 23
33 31 30 32 32 33 35 39 40 39 40 39 38 32 27 24 22 20 16 16 16 17 18 18 18 18 20 21 25 26 25 27 26 26 25 26 26 26 25 22 21 22 24 20
35 31 33 34 36 37 39 41 41 41 40 38 29 26 24 22 16 15 17 18 18 18 18 18 19 21 23 25 26 26 26 27 26 25 25 25 25 26 24 23 22 23 22 21

GFSCGP_sfc_30mbdewp_021.txt.gz
Dewpoint
22 20 19 16 15 12 12 13 17 18 18 15 15 11 20 23 22 21 28 36 38 41 42 42 44 45 45 44 43 43 43 42 43 42 41 42 41 42 42 44 43 44 43 42
21 19 18 17 15 16 13 18 21 19 19 16 16 17 22 24 24 27 34 36 38 40 41 42 43 43 42 42 42 42 42 42 42 43 43 44 43 44 44 43 44 43 41 40
20 18 17 17 23 21 24 23 22 21 21 21 19 18 22 24 27 31 33 35 36 39 41 42 42 42 42 41 41 41 42 42 43 43 43 43 43 43 42 41 42 41 40 38
22 20 20 20 24 23 25 28 26 23 21 19 19 16 21 23 27 28 30 32 34 37 41 42 43 42 43 43 43 42 42 42 43 43 42 42 42 40 42 42 41 39 38 37
20 23 26 26 24 24 25 27 26 25 23 23 22 19 21 24 26 29 31 34 35 37 39 41 42 43 43 43 43 42 42 43 43 43 43 42 42 42 42 40 38 37 36 37
23 28 27 26 27 26 25 28 28 28 25 23 30 23 26 23 27 29 31 33 35 36 37 39 41 42 43 43 43 43 42 41 43 43 43 42 41 40 38 37 35 35 36 36
23 27 29 28 27 28 27 26 26 23 25 24 30 25 30 29 28 30 33 36 37 37 37 37 39 41 42 41 42 42 41 40 42 42 43 41 40 39 37 35 34 34 35 35
25 25 27 29 27 25 28 26 22 22 21 22 27 24 27 31 32 34 35 35 36 36 36 36 36 37 39 41 40 41 40 39 40 40 40 39 39 39 36 35 34 34 36 36
28 25 28 28 27 27 27 23 23 27 30 24 24 27 29 30 30 31 32 34 35 36 35 36 38 39 39 40 41 40 38 38 38 37 37 36 37 37 35 34 36 36 35 34
25 24 25 25 27 29 26 24 25 24 20 18 18 26 28 29 31 33 31 30 32 35 36 37 38 39 39 39 39 38 37 35 34 34 35 34 32 33 34 35 34 34 34 34
28 28 24 23 24 24 26 26 25 24 24 20 19 18 23 31 35 34 31 33 35 36 37 38 39 38 38 38 38 37 33 33 33 32 32 30 30 31 35 35 34 33 33 33
26 27 22 25 25 26 25 26 26 21 21 27 25 22 27 32 32 32 32 35 35 35 36 38 38 37 36 36 34 33 32 32 32 30 29 28 30 31 33 33 33 33 32 30
29 25 22 25 29 29 21 24 23 31 28 21 19 18 27 30 32 35 33 35 35 35 36 36 36 36 34 32 29 29 29 32 31 29 28 27 28 30 31 31 32 31 30 28
36 25 23 22 20 19 17 18 18 25 26 25 25 24 25 32 34 34 35 35 35 35 36 37 36 36 33 30 28 27 27 30 30 29 28 27 28 29 30 30 30 30 28 25
32 28 28 27 23 22 20 20 21 20 20 20 20 24 32 34 35 36 36 36 36 36 36 36 35 34 31 28 27 25 25 26 30 30 30 30 30 31 30 30 32 30 27 25
34 32 28 21 29 25 21 24 26 23 23 24 24 27 34 35 35 34 36 37 36 35 35 35 33 31 30 25 23 22 24 25 30 27 29 31 33 32 33 34 32 33 26 21
36 32 28 21 30 29 26 27 23 24 25 25 23 29 34 34 33 35 36 36 35 35 35 34 33 32 29 23 23 23 22 22 22 22 28 30 32 33 35 35 36 32 22 21
34 35 32 21 28 5 27 27 28 26 27 28 32 34 34 34 35 37 36 36 35 35 34 34 34 32 22 23 22 21 20 20 19 24 31 33 33 33 34 35 34 28 23 20
37 34 25 20 26 24 26 28 28 27 28 36 36 36 36 36 35 35 35 35 35 34 32 26 21 21 20 20 20 19 18 19 19 30 31 33 35 35 35 34 33 31 25 24
39 36 29 29 17 9 26 31 32 31 26 38 38 37 36 35 29 32 34 33 34 23 20 19 17 17 18 18 19 18 18 19 26 27 28 30 32 35 35 33 31 29 25 26
34 34 30 29 25 27 32 31 32 25 25 39 39 38 37 35 36 36 35 33 21 20 18 15 15 16 17 18 18 18 20 24 26 27 28 30 34 34 35 34 31 26 24 26
23 26 28 30 27 21 32 31 28 31 40 40 39 38 37 38 38 36 24 21 20 17 14 15 16 17 18 18 20 22 24 25 27 26 27 27 29 30 31 28 27 24 24 23
26 28 28 29 26 30 33 32 38 39 40 39 38 39 39 38 35 24 21 21 18 15 16 17 18 18 19 21 25 25 25 26 27 26 26 25 25 26 25 22 21 22 23 21
30 34 32 33 34 33 37 41 41 40 39 39 39 39 37 35 25 23 21 18 17 18 18 19 19 19 21 23 26 26 26 28 27 26 26 26 26 26 24 23 22 22 21 21
31 34 31 32 33 34 40 41 40 40 40 39 39 37 28 24 22 18 18 18 18 18 18 19 20 22 23 27 27 27 26 27 26 26 25 25 24 24 25 23 21 22 21 20
37 32 31 30 36 36 40 40 41 40 39 38 36 25 25 18 17 17 17 18 20 20 22 23 24 25 28 28 29 27 28 27 25 24 24 24 23 26 25 24 23 25 23 23

GFSCGP_sfc_30mbdewp_024.txt.gz
Dewpoint
25 19 17 15 16 14 14 18 17 17 18 15 15 18 20 21 23 32 39 41 41 41 43 44 45 45 43 44 45 45 44 44 44 45 43 42 42 43 44 44 43 41 39 39
22 19 19 18 22 24 20 18 18 19 21 16 19 19 23 27 33 38 39 40 40 41 42 43 44 44 44 43 43 42 42 42 42 43 43 43 43 43 43 43 40 39 38 38
20 18 18 24 23 23 27 23 22 21 22 22 20 20 28 32 35 37 38 40 41 41 41 41 41 43 43 42 42 41 41 42 42 42 42 43 43 42 42 41 39 38 38 37
20 21 24 25 23 24 26 27 25 22 20 11 19 17 23 29 31 33 35 39 41 41 42 41 41 41 41 42 42 42 42 43 43 42 42 41 41 40 41 39 37 36 38 37
23 26 26 25 24 24 24 26 25 25 23 24 24 19 22 29 30 33 35 38 40 41 41 41 42 42 42 42 42 42 42 43 43 43 43 42 41 40 40 37 36 35 36 36
25 29 27 26 27 26 25 27 30 28 26 22 28 22 22 26 30 32 35 37 39 40 41 42 43 43 43 43 43 42 41 42 43 43 42 40 39 38 36 35 34 35 36 37
26 28 28 29 28 28 26 28 24 23 25 22 31 28 28 31 31 32 35 36 37 38 40 41 41 42 43 42 42 41 40 42 43 42 40 40 38 37 35 34 33 33 35 35
25 24 27 28 26 25 27 26 22 21 18 19 25 25 29 34 35 36 36 36 36 36 38 40 40 41 41 41 41 41 40 40 41 40 38 39 39 37 35 35 34 36 34 34
26 24 28 26 27 28 26 23 26 26 28 23 26 27 29 32 33 34 35 36 35 36 37 39 39 39 40 40 38 37 37 38 37 37 36 35 37 36 35 35 36 35 34 34
27 24 26 25 29 29 22 25 25 23 17 16 20 26 28 31 31 32 32 34 36 37 38 38 38 39 39 39 38 38 37 35 35 35 34 32 31 34 35 36 35 34 33 33
30 26 23 28 24 24 25 25 25 24 24 17 18 18 27 31 35 32 34 35 36 37 38 39 38 37 36 35 33 34 33 33 33 32 32 31 30 31 35 35 34 34 33 33
28 26 23 25 25 26 25 26 25 16 19 25 23 20 31 32 32 32 35 35 36 37 38 37 37 36 33 32 30 32 30 31 32 32 30 29 29 29 34 34 34 34 32 32
29 24 20 25 29 29 23 25 29 28 27 20 16 17 31 34 34 35 35 35 36 36 37 36 35 35 34 31 29 28 28 29 32 31 30 28 28 28 30 32 33 34 33 32
36 27 23 18 23 22 17 19 26 26 22 22 21 22 27 33 34 35 35 35 36 36 36 35 34 34 32 29 28 26 25 28 30 30 28 30 31 32 32 31 32 33 36 35
31 25 28 25 25 23 21 20 21 20 22 20 20 24 32 35 35 35 36 36 36 35 35 34 34 32 31 28 25 24 24 25 26 25 29 30 31 31 30 31 33 36 35 34
35 29 25 18 29 27 20 19 25 26 23 24 28 31 35 36 34 35 37 36 35 35 34 34 33 32 32 30 23 23 21 22 22 25 29 32 32 33 34 35 36 35 36 35
33 30 22 9 29 25 17 24 25 24 26 25 23 29 34 33 34 36 36 35 35 34 34 34 33 33 31 22 21 20 20 21 21 29 32 33 33 32 32 34 36 35 33 32
33 32 28 16 22 6 20 28 27 25 29 33 33 34 34 34 36 36 36 35 34 33 31 30 26 23 22 21 19 20 19 20 28 31 31 33 33 33 35 34 34 33 33 31
35 30 24 14 19 17 24 29 27 25 27 35 34 35 35 36 35 34 34 34 34 34 31 22 18 19 19 18 19 19 20 24 27 27 28 30 31 32 35 34 33 33 31 25
36 30 19 27 10 2 17 30 31 30 26 37 37 36 35 34 30 30 35 33 33 24 20 15 15 17 17 17 18 19 22 25 26 26 27 29 32 32 33 34 32 31 27 26
34 33 28 25 19 21 25 32 31 25 18 39 38 37 36 33 32 35 37 31 23 18 15 16 17 17 18 19 21 23 25 25 26 27 27 27 28 29 30 32 32 28 26 25
26 25 28 28 24 13 30 32 27 28 39 39 39 37 36 36 38 37 25 21 18 15 16 17 18 18 20 23 24 24 25 25 27 27 26 26 27 26 24 25 24 24 23 22
23 23 22 27 22 28 33 32 33 39 39 39 38 38 37 37 37 24 22 18 17 17 17 19 19 20 22 24 26 25 26 26 27 26 26 26 26 26 24 21 22 22 22 21
31 33 30 31 30 32 34 40 40 41 39 39 39 39 39 37 27 20 18 18 18 18 19 20 21 22 23 26 27 27 27 27 27 26 25 26 23 24 25 22 22 22 20 20
28 34 32 32 34 38 40 40 40 39 39 39 39 37 35 23 18 18 17 19 20 20 22 23 24 25 26 28 28 29 28 28 26 25 25 23 24 24 25 22 23 23 22 21
35 29 29 28 32 32 36 40 40 39 38 38 37 22 19 18 17 17 19 21 22 23 24 25 27 27 28 29 28 29 29 28 26 25 24 23 22 23 26 24 22 23 24 25

GFSCGP_sfc_30mbdewp_030.txt.gz
Dewpoint
24 17 14 15 16 14 14 14 13 16 18 17 29 31 33 30 38 40 42 43 44 44 45 47 49 50 51 54 56 56 51 50 50 47 43 42 40 39 38 38 39 37 38 39
21 18 19 26 23 20 19 17 18 21 21 19 28 31 37 37 39 41 42 43 43 43 45 46 46 47 49 51 52 52 49 50 46 44 43 42 40 39 38 38 38 37 38 39
19 20 24 25 25 21 25 20 21 20 21 22 23 25 34 37 40 41 41 42 41 43 44 45 46 46 46 46 43 43 43 42 42 43 43 42 42 41 38 37 36 37 38 38
24 27 23 22 23 25 21 27 23 21 17 16 20 16 29 34 38 40 40 41 41 41 44 45 44 41 40 41 41 41 42 42 42 42 42 41 40 40 39 36 36 36 37 37
24 25 24 23 23 25 24 27 25 24 22 23 25 20 26 35 37 39 40 40 40 42 43 42 41 41 41 41 42 42 43 43 43 42 42 41 40 39 38 37 35 35 36 37
27 28 27 25 28 26 27 29 29 29 26 21 29 21 23 32 35 37 39 40 41 42 42 42 42 42 42 42 42 42 43 43 43 43 42 40 38 37 36 36 35 34 35 36
27 27 28 29 27 28 28 27 22 23 23 22 27 25 23 29 33 37 38 40 41 41 41 41 42 42 43 42 40 42 42 42 42 41 40 40 38 37 36 34 33 33 33 34
23 21 26 27 26 26 25 26 23 20 21 22 27 24 26 34 33 36 38 39 40 40 41 42 43 42 42 41 40 41 41 41 41 40 39 39 38 37 35 34 34 34 33 34
24 23 28 26 27 28 26 21 26 25 26 22 25 28 32 34 34 36 37 38 38 39 40 41 41 40 41 39 38 39 39 40 39 37 37 37 37 37 37 36 36 35 35 35
28 24 26 25 29 28 24 29 21 21 11 11 20 25 26 32 33 35 36 37 37 38 39 39 39 38 38 36 35 37 38 37 37 37 36 35 34 33 33 33 34 35 36 35
29 23 22 27 24 25 26 23 24 25 22 12 12 20 27 32 34 34 35 36 37 38 38 37 36 35 34 31 31 34 34 33 33 33 33 32 31 30 31 31 32 33 35 35
29 24 22 25 26 30 26 24 21 8 13 23 20 16 27 32 34 35 35 36 38 38 36 36 35 32 31 30 31 31 30 29 29 33 31 28 30 30 29 30 31 32 33 34
27 24 22 21 21 26 24 27 26 23 24 20 16 11 32 34 34 35 35 37 37 36 35 34 34 33 31 28 30 28 26 28 27 26 26 28 29 31 30 31 31 31 32 34
29 26 22 16 17 23 20 25 26 22 18 18 18 16 28 32 33 34 36 37 36 36 34 34 33 32 31 28 27 25 25 25 23 25 28 30 31 31 30 30 31 33 35 35
27 22 26 26 26 23 19 20 26 22 21 16 16 20 22 30 33 34 36 36 36 35 34 33 32 32 31 31 25 23 21 22 24 23 29 31 31 31 31 31 33 34 35 35
32 25 23 25 29 26 21 21 21 23 22 24 23 21 26 34 35 35 35 36 35 35 34 32 32 33 33 24 21 20 19 20 23 23 30 31 31 31 31 32 34 33 33 33
27 26 22 16 25 19 14 18 20 22 24 21 16 20 34 34 35 35 35 36 35 35 33 32 33 28 23 20 19 18 19 21 22 29 30 29 30 31 30 32 33 31 32 31
27 23 18 11 15 1 9 26 25 23 24 26 27 29 33 34 35 36 37 36 36 35 33 32 25 22 21 20 18 19 20 20 27 28 27 27 28 29 30 31 33 31 31 31
31 24 17 10 13 11 9 20 25 25 21 29 28 32 34 35 35 35 37 36 36 35 33 28 20 21 20 17 18 19 20 25 25 25 26 27 28 27 28 27 28 31 31 30
28 24 16 19 7 -1 6 24 30 27 21 28 32 32 34 34 31 32 35 36 34 34 24 16 19 18 17 18 20 20 21 24 24 25 26 28 27 26 26 25 26 30 32 27
32 30 24 19 14 15 18 29 29 19 13 33 34 34 35 33 34 34 35 35 32 20 15 17 18 18 19 21 22 22 24 24 25 26 27 27 26 26 25 23 27 28 26 24
25 25 25 24 22 13 25 31 26 26 29 34 35 35 35 35 34 35 35 26 16 16 18 18 19 20 22 23 24 24 25 26 27 27 27 26 26 26 25 23 24 24 23 22
23 26 21 24 19 26 28 32 33 32 31 36 37 37 37 36 36 32 22 17 17 17 18 20 21 22 24 25 26 26 27 28 28 27 27 26 26 25 24 24 22 22 21 20
31 30 25 26 24 28 30 31 34 36 35 38 39 38 38 37 35 21 21 26 18 19 20 21 23 24 25 27 28 28 28 28 28 26 27 26 26 25 24 24 22 21 20 20
30 31 29 29 29 31 33 36 34 38 39 39 40 39 38 32 25 30 29 18 19 21 22 23 25 26 25 29 28 27 28 28 27 27 27 27 28 26 23 25 22 23 23 21
32 28 26 22 25 29 29 35 39 39 39 39 38 36 32 32 32 23 20 21 22 22 23 25 25 26 28 28 27 28 28 29 29 29 28 28 28 27 23 25 25 25 24 24

GFSCGP_sfc_30mbdewp_033.txt.gz
Dewpoint
24 17 10 11 13 9 11 13 13 16 19 26 31 33 34 35 41 42 43 44 44 45 47 51 53 56 57 58 56 56 55 55 54 51 45 42 42 41 40 39 39 40 40 40
20 16 19 25 20 19 18 18 19 21 21 25 30 32 37 38 40 42 43 44 44 46 49 50 51 54 56 56 55 56 56 53 50 45 44 43 41 40 39 39 39 39 40 39
19 19 24 25 24 22 23 21 21 20 22 24 25 25 33 37 40 41 43 44 46 49 48 49 51 53 55 55 55 53 51 49 47 45 44 42 41 40 38 38 37 38 39 38
25 27 23 24 24 24 22 26 23 20 18 16 22 13 28 35 38 41 42 45 46 46 47 47 47 46 46 46 47 48 46 45 45 45 44 43 42 41 40 39 38 37 39 38
24 25 24 23 23 24 26 27 25 23 23 23 25 18 23 36 36 40 42 43 43 44 44 43 41 41 42 43 44 44 44 44 44 44 44 43 42 41 39 39 39 39 38 39
27 29 27 26 28 26 31 29 29 29 26 20 28 22 20 32 35 39 41 41 41 43 43 41 41 42 42 43 44 45 44 44 44 44 44 43 42 40 39 39 38 38 37 37
27 27 28 29 27 28 29 26 20 19 23 21 27 26 24 29 34 40 40 40 41 43 42 41 41 42 42 42 44 44 44 43 43 43 43 42 41 41 39 38 37 37 36 35
22 18 25 27 27 26 26 27 21 14 21 24 26 25 26 34 33 40 40 40 41 42 42 42 42 43 43 42 42 43 43 42 42 42 41 41 41 40 39 38 38 37 37 37
23 23 27 26 28 28 26 20 27 25 26 22 24 27 30 34 34 37 38 40 40 41 42 42 43 43 43 42 42 43 41 41 41 40 40 40 39 39 38 37 37 36 37 35
27 23 26 26 28 28 26 29 21 23 10 9 17 22 23 31 33 35 37 39 40 40 41 42 42 41 40 39 39 40 41 40 40 38 38 36 35 35 34 34 34 33 33 34
28 24 23 27 25 25 26 24 24 25 22 7 7 11 29 30 33 35 37 38 39 39 40 40 39 39 36 33 34 37 37 35 34 35 35 34 32 32 32 31 32 32 33 32
28 24 23 25 26 29 27 24 23 12 12 23 20 13 25 31 34 36 37 37 38 39 39 37 36 34 32 31 34 33 32 30 32 33 30 30 31 31 31 30 30 30 30 32
27 25 22 22 22 26 25 27 23 22 25 20 16 7 28 34 34 36 36 37 38 38 36 36 34 33 31 31 32 29 29 28 26 26 26 29 31 31 30 29 30 31 32 34
28 26 22 20 18 23 22 27 24 21 16 16 19 15 20 31 33 35 36 38 37 36 35 34 34 32 30 29 28 27 27 26 25 25 27 30 32 31 30 30 31 33 34 34
27 22 24 25 26 24 19 22 26 22 21 14 14 18 19 23 32 35 37 37 36 35 35 34 33 32 32 31 27 25 24 25 25 24 28 32 32 32 31 31 32 34 33 32
31 24 24 24 28 26 22 21 22 26 24 23 22 21 24 28 34 35 36 36 36 35 35 34 32 32 33 29 24 23 22 22 25 24 28 32 31 31 30 30 32 33 32 32
27 25 23 16 23 19 18 20 21 22 23 23 20 21 32 32 33 34 36 36 36 36 35 32 32 33 30 23 22 20 20 23 23 26 31 29 29 29 29 29 31 30 32 31
24 22 19 13 15 -1 10 25 23 22 22 24 24 27 31 33 35 36 36 37 36 36 35 33 32 26 23 22 20 20 20 21 24 29 28 27 28 28 28 28 27 28 32 32
27 22 16 11 12 10 6 16 19 23 14 25 25 29 33 35 35 35 37 37 37 37 35 33 25 23 22 19 19 20 21 24 27 26 26 27 28 28 26 26 26 27 30 32
27 24 19 18 7 4 5 18 30 27 19 26 29 31 33 34 29 29 36 37 37 36 32 23 22 20 18 19 21 21 21 24 25 26 26 27 28 27 26 26 25 28 31 32
31 29 24 19 16 16 19 22 29 17 12 28 33 33 35 32 33 34 37 36 34 28 19 20 19 19 20 22 22 23 24 25 26 27 28 28 27 27 27 26 25 25 26 27
24 24 24 23 20 12 25 30 23 24 28 31 35 34 34 35 35 35 35 30 21 17 18 19 20 21 23 24 24 24 25 27 28 28 27 27 27 26 26 25 24 24 25 24
22 26 21 23 18 25 26 31 33 33 31 32 36 36 37 36 36 32 26 19 17 20 24 20 21 23 25 26 26 26 27 29 27 28 27 27 27 27 27 24 23 23 23 22
30 30 27 25 24 27 29 30 31 33 33 35 38 38 38 37 35 24 20 26 29 24 20 22 23 23 24 26 28 29 28 27 27 27 27 27 27 26 28 25 23 22 23 22
28 30 29 28 28 29 30 33 34 35 37 38 39 39 39 37 25 23 30 28 23 22 23 23 24 25 24 28 29 28 28 28 27 28 28 28 27 27 28 25 23 23 24 24
32 28 26 23 26 27 28 33 38 38 38 39 39 35 31 29 29 29 25 22 23 23 23 25 25 25 26 27 27 27 28 29 28 28 28 29 29 28 28 25 24 26 26 26

GFSCGP_sfc_30mbdewp_036.txt.gz
Dewpoint
25 20 11 10 11 11 8 13 10 11 19 15 16 21 26 35 40 38 39 41 42 44 47 51 54 55 55 58 58 58 57 57 56 55 52 47 43 42 42 41 42 42 42 39
22 16 21 23 19 16 15 14 17 20 19 20 24 25 30 32 38 39 40 41 42 44 47 52 55 56 57 56 57 58 57 59 56 54 49 45 44 42 42 41 42 42 38 36
16 22 26 21 20 19 21 18 20 18 21 24 24 24 30 34 38 41 43 43 44 45 48 52 55 56 57 57 57 57 57 56 52 46 46 45 44 42 40 40 40 40 38 35
23 26 25 23 22 23 19 24 22 20 18 13 22 11 26 32 33 37 41 44 45 48 50 53 53 54 55 55 56 53 51 49 47 46 43 42 40 40 41 41 41 36 38 36
24 24 23 21 24 25 25 25 23 22 20 21 20 15 20 31 32 34 39 43 47 49 49 47 46 47 49 51 51 48 47 46 45 45 45 44 43 43 42 41 38 36 36 38
26 28 27 26 28 27 30 28 28 26 23 17 19 20 7 17 27 35 39 45 47 46 45 42 40 41 42 44 45 45 44 43 44 45 45 45 43 41 38 35 33 30 32 33
25 26 28 29 27 30 28 22 14 16 18 14 27 21 12 27 31 35 40 44 44 44 41 39 39 40 42 44 45 45 44 44 45 45 44 42 39 36 34 34 32 35 32 33
17 20 25 28 27 23 24 21 14 6 12 15 26 20 23 32 32 37 40 43 42 42 40 38 40 41 42 43 44 43 43 42 43 42 40 39 37 35 34 35 37 35 34 33
20 21 26 28 29 27 25 21 28 26 27 23 18 23 27 32 32 37 40 41 40 39 39 39 41 42 43 43 44 44 42 41 41 41 39 39 37 36 35 35 33 30 29 26
27 22 25 27 28 29 28 27 22 23 16 9 10 14 11 29 31 34 39 40 38 38 39 40 42 44 44 43 43 43 41 40 40 39 38 35 35 33 30 29 28 27 26 25
28 24 26 28 24 22 27 25 24 22 22 9 5 2 25 26 30 32 37 38 37 38 40 41 42 43 42 40 39 39 38 37 36 35 35 34 29 28 27 26 26 26 27 27
30 28 26 25 27 29 27 25 23 13 15 23 22 8 22 29 33 34 34 37 37 39 40 42 42 41 38 35 35 36 35 32 32 33 30 28 25 26 26 26 26 28 28 28
30 27 24 24 25 28 25 26 24 24 25 19 20 6 23 29 31 33 35 36 38 40 40 40 39 37 35 33 33 32 31 31 28 25 24 24 26 26 25 26 28 28 28 29
29 29 24 18 20 24 25 26 25 21 19 13 16 6 16 23 27 30 34 37 38 39 38 38 37 35 33 32 31 30 30 27 25 22 21 23 26 27 27 28 29 28 29 29
31 25 27 25 25 24 21 22 24 20 18 17 11 12 8 15 20 25 33 37 37 38 37 37 36 34 31 30 30 29 28 26 23 21 21 23 28 29 28 29 28 28 30 30
32 27 28 26 27 25 23 22 21 23 20 21 19 17 19 22 26 30 35 37 37 37 36 36 36 34 31 31 30 27 24 22 22 22 21 25 29 28 28 28 27 28 29 29
31 30 25 19 23 22 20 23 21 20 24 23 19 20 22 25 27 28 32 36 36 37 36 36 35 33 31 31 26 24 21 22 22 21 24 28 27 27 26 26 26 26 27 28
30 28 28 23 19 8 11 20 21 22 22 21 21 20 23 24 30 33 34 35 36 37 37 36 34 32 31 25 22 21 19 20 21 23 25 26 26 25 25 25 25 26 27 28
28 27 21 22 15 12 8 15 16 19 12 20 19 20 26 33 34 34 35 36 37 37 37 36 34 29 24 22 20 19 20 20 22 23 23 23 24 25 25 25 26 26 25 26
29 29 28 22 19 16 17 24 30 28 16 22 27 27 32 33 29 20 36 38 38 38 37 34 27 23 21 19 20 20 19 20 20 23 23 24 24 25 25 26 26 26 26 25
33 33 30 28 26 23 21 21 30 18 17 28 32 32 33 32 28 36 36 38 38 37 33 25 22 19 19 21 21 20 20 20 22 25 25 24 23 25 26 27 26 25 24 25
27 30 29 28 25 18 25 30 25 29 32 30 34 34 35 35 37 37 38 37 34 29 22 19 20 23 24 23 22 17 20 23 25 26 24 24 24 26 25 25 25 25 24 24
27 29 28 27 24 27 28 31 33 34 33 33 34 34 37 37 36 36 35 32 25 22 19 25 28 26 24 22 22 19 20 26 26 24 24 25 26 25 25 24 24 24 22 22
30 31 29 28 25 27 28 30 30 31 32 34 33 35 37 37 37 34 29 24 23 27 27 24 27 22 22 24 25 24 26 26 25 24 24 25 26 25 24 23 24 23 22 23
31 31 30 30 28 27 28 30 34 36 37 38 38 39 39 39 38 30 26 29 28 25 29 28 22 20 19 23 25 25 25 26 25 25 25 26 26 25 24 23 24 23 23 24
31 32 31 29 31 32 32 36 38 38 38 40 40 38 38 37 30 30 30 26 30 32 29 22 22 23 23 25 24 24 25 26 27 26 26 26 26 26 25 25 23 25 25 25

GFSCGP_sfc_30mbdewp_039.txt.gz
Dewpoint
27 22 17 14 15 13 10 5 2 5 7 8 7 15 21 29 29 32 36 37 38 38 41 46 49 48 47 54 57 57 58 57 57 54 53 52 49 45 44 43 44 44 44 40
21 18 17 15 13 11 7 12 11 13 10 11 7 12 19 25 27 29 32 36 39 40 45 48 51 51 51 55 57 58 58 57 57 50 52 52 47 45 44 43 44 44 41 38
22 22 22 15 13 12 12 14 20 15 16 13 15 15 22 25 30 33 34 35 38 41 45 48 51 54 55 56 56 57 56 56 54 53 49 46 45 44 43 43 43 42 39 36
28 27 20 15 13 15 17 21 18 16 16 12 17 10 18 26 30 35 37 39 38 41 44 49 52 54 55 55 56 54 53 52 50 46 44 43 41 40 40 41 41 41 39 37
20 20 18 14 19 22 25 23 19 15 12 16 16 10 20 25 26 30 34 39 41 43 47 50 52 55 55 54 53 51 50 47 45 45 43 43 43 43 43 42 42 40 38 36
30 26 22 23 25 23 26 23 22 19 14 15 14 13 11 20 22 27 33 38 42 46 48 47 49 48 47 50 50 48 45 44 45 45 45 45 44 41 40 39 36 33 31 30
21 21 26 26 22 25 23 20 17 17 14 13 21 17 12 20 27 27 34 39 44 46 45 43 43 43 45 47 47 46 44 43 44 45 45 44 42 39 36 35 32 31 30 31
16 20 23 25 23 22 22 19 16 10 8 9 21 10 19 29 30 32 37 40 43 44 44 40 39 39 42 45 45 44 43 44 45 44 42 40 38 35 34 32 33 32 31 30
21 19 25 26 26 23 22 17 24 20 28 19 9 13 26 29 30 34 37 41 42 43 42 38 39 40 42 43 45 44 43 43 42 41 39 39 37 35 32 33 32 29 29 26
21 20 23 26 27 27 24 25 19 18 15 9 6 6 13 24 26 32 36 39 41 41 40 38 39 41 42 43 45 45 44 41 40 39 38 36 35 33 31 29 28 28 27 26
20 19 25 26 22 16 25 22 21 20 20 14 6 7 15 18 24 28 34 38 40 39 38 39 40 42 43 44 45 45 42 38 38 37 36 35 32 30 29 27 27 26 27 26
25 21 18 21 26 27 25 22 22 20 14 18 22 13 17 21 23 28 31 36 39 38 38 39 41 42 44 43 42 41 38 36 34 33 34 34 30 26 27 27 25 26 27 26
28 18 15 20 25 27 24 22 21 21 23 18 17 13 18 21 22 24 27 31 36 37 37 39 41 42 42 41 39 38 36 33 32 33 30 27 26 27 26 24 25 27 26 26
32 18 19 17 17 22 25 24 23 21 20 16 11 12 13 18 19 19 25 28 32 36 38 39 41 41 40 38 37 35 33 32 32 29 24 22 25 26 24 25 27 27 26 27
31 25 22 21 23 24 22 20 21 21 20 17 15 13 7 6 10 17 20 26 30 35 39 39 40 39 38 36 35 32 34 32 29 25 22 22 24 26 26 27 28 26 27 28
31 26 28 27 26 26 23 22 20 17 18 17 15 12 14 19 16 20 20 26 28 34 37 38 38 38 37 35 33 33 32 29 26 23 23 23 23 25 26 27 27 25 26 26
32 29 27 21 23 22 20 22 19 17 18 18 17 17 17 20 22 22 22 27 29 32 36 37 37 37 36 34 33 32 27 25 24 23 22 21 25 25 24 23 24 24 25 26
34 31 31 23 22 13 13 16 15 18 18 16 16 16 16 16 25 28 27 28 31 33 35 37 37 37 36 34 32 26 27 26 23 22 20 21 24 23 22 22 23 25 26 26
29 29 26 26 17 16 14 10 16 15 13 17 17 17 17 25 30 28 30 31 31 34 36 37 37 36 34 30 25 26 23 21 20 20 19 20 21 21 22 22 23 26 25 25
28 29 24 25 24 21 22 22 25 23 16 20 20 20 21 28 25 26 32 33 34 36 37 37 37 35 30 25 24 22 25 23 19 17 20 20 21 21 21 23 24 26 25 24
33 34 29 29 30 28 23 23 27 17 24 27 26 25 27 26 32 36 32 34 35 36 37 37 34 28 26 24 24 28 23 20 18 22 22 22 21 21 23 24 25 25 24 24
30 33 31 34 32 22 23 26 22 31 27 29 30 29 34 34 36 36 36 36 36 37 35 30 27 23 24 30 27 23 18 18 22 23 23 22 21 23 24 24 25 24 24 24
27 29 29 28 26 26 26 24 28 29 30 30 31 32 33 34 34 35 36 36 35 32 26 24 23 30 29 28 23 18 19 24 23 24 23 23 23 24 24 24 23 23 23 24
29 31 28 26 23 24 25 28 29 32 33 34 35 35 35 35 36 36 35 33 28 24 25 30 33 32 31 27 22 21 26 26 25 24 23 23 24 24 24 24 22 22 24 26
31 30 27 28 26 29 27 33 37 38 38 37 38 38 39 39 38 37 31 27 27 29 34 34 32 28 20 21 24 24 25 25 24 23 23 25 26 26 25 23 22 23 24 26
30 31 32 30 34 36 35 39 40 39 39 39 39 37 34 35 33 31 30 31 35 35 33 28 23 22 22 23 24 24 24 24 25 25 26 27 27 27 26 24 24 26 25 25

GFSCGP_sfc_30mbdewp_042.txt.gz
Dewpoint
28 25 23 20 18 19 16 13 13 9 11 11 9 13 15 24 29 33 33 33 32 32 35 41 43 43 52 58 58 58 58 57 57 56 54 52 51 49 48 46 46 46 46 42
31 20 22 25 21 18 11 17 15 6 6 6 10 7 17 19 25 32 35 36 37 36 36 45 46 47 55 58 58 59 58 58 57 54 52 52 50 47 46 46 47 47 43 40
26 25 29 18 16 11 12 24 22 21 12 4 9 4 15 20 23 27 33 36 38 38 42 46 48 50 51 58 58 58 58 57 57 51 54 53 49 48 46 46 46 45 42 40
30 32 28 23 13 14 19 27 22 20 17 10 25 16 16 19 22 26 28 32 36 38 44 46 49 52 55 58 58 58 57 56 56 54 49 47 45 44 44 45 46 43 41 40
30 32 26 23 20 20 24 23 26 17 13 20 21 23 26 23 23 25 32 34 35 38 42 46 50 54 54 56 57 58 56 53 52 50 47 46 45 45 44 45 45 43 43 40
28 31 27 21 21 20 29 26 22 17 18 21 24 25 24 25 30 33 32 35 38 40 42 46 53 55 54 57 57 55 52 50 48 46 47 46 46 43 43 43 43 40 38 35
22 20 23 25 20 22 20 17 19 28 28 14 12 15 13 28 30 30 32 35 39 42 45 48 50 52 52 52 53 52 49 46 47 46 47 46 45 42 38 38 37 34 34 35
16 20 20 22 20 28 26 18 24 20 24 19 20 15 19 27 27 29 34 35 41 45 47 46 48 47 49 50 49 48 46 45 46 47 46 45 41 39 38 39 36 34 33 33
23 24 30 24 20 27 24 19 23 17 27 20 13 7 27 27 28 31 34 38 43 44 44 43 45 45 46 47 48 46 45 44 46 46 44 41 39 37 36 35 34 33 31 29
30 29 33 26 24 24 20 20 19 16 13 12 9 8 24 24 25 29 35 39 42 43 43 42 41 42 44 46 47 47 46 45 45 43 41 40 39 36 34 33 31 30 29 29
28 32 32 25 22 14 24 22 17 14 20 18 17 13 13 18 23 26 33 38 42 42 42 41 39 41 43 45 47 47 46 43 42 40 40 38 36 35 33 31 29 28 28 28
22 22 23 23 23 24 22 21 21 23 19 20 20 19 17 18 21 25 28 35 40 41 41 40 40 42 43 45 46 46 45 42 40 39 37 37 35 34 31 29 28 27 28 28
25 23 19 17 21 24 22 18 17 19 24 21 22 17 18 18 17 21 23 29 36 40 40 39 40 41 43 45 45 45 43 40 38 34 35 35 35 29 28 28 26 27 28 28
33 24 19 17 15 21 22 22 19 20 23 23 22 15 13 16 19 18 22 24 28 37 37 38 40 42 44 44 44 42 39 37 34 35 34 32 29 28 28 26 27 28 29 28
29 20 17 15 17 20 23 22 20 19 21 21 23 18 14 14 16 16 18 23 25 27 34 36 39 42 43 43 41 39 38 35 36 34 29 27 26 28 27 27 29 29 29 28
31 26 28 26 26 23 22 21 19 18 18 16 17 17 18 15 22 21 21 19 20 25 31 36 39 41 42 41 38 38 35 36 34 30 27 25 24 26 26 27 29 29 28 28
30 32 30 27 26 22 18 21 21 19 18 18 17 19 18 18 17 21 22 23 24 27 29 36 38 39 39 39 37 35 35 34 29 27 25 23 23 26 26 26 24 25 26 29
33 33 33 27 23 16 17 17 14 14 12 12 14 16 15 24 25 25 26 26 28 30 31 34 37 38 39 38 36 35 31 27 27 26 23 21 23 24 25 24 24 25 27 28
33 34 31 26 22 20 19 16 16 16 16 18 18 19 18 23 25 30 28 31 30 30 32 34 37 38 38 36 34 29 28 27 24 24 23 20 22 22 23 23 25 26 27 28
28 33 28 27 25 19 24 22 22 21 18 24 23 23 23 22 25 32 32 32 31 31 33 35 37 38 36 31 27 27 23 25 23 21 24 24 24 23 22 23 25 27 28 27
33 33 29 31 29 31 24 23 25 20 28 29 29 27 29 29 36 37 36 33 34 34 36 38 36 33 28 27 27 29 29 29 26 25 24 23 23 23 23 25 26 26 26 27
33 35 33 34 34 27 23 23 24 32 29 30 30 31 32 34 35 35 35 35 36 36 33 31 28 29 30 30 31 29 28 25 25 27 28 26 26 26 24 25 26 27 27 27
28 32 33 33 32 29 24 25 27 30 30 33 34 33 33 33 33 34 36 36 34 29 27 26 30 30 31 31 29 28 26 25 28 28 29 28 26 25 25 25 26 26 25 24
29 32 31 27 23 25 25 29 35 36 37 36 36 37 39 39 38 37 35 31 30 33 33 34 34 34 33 29 25 24 27 29 29 27 26 26 26 26 26 26 26 26 25 25
32 30 27 27 29 29 35 39 40 39 39 39 39 37 35 37 36 32 30 31 34 34 34 32 31 28 23 25 28 28 27 26 26 26 25 26 27 28 29 28 26 25 26 26
32 31 33 34 37 37 38 36 36 35 35 35 35 33 32 32 33 35 35 34 33 31 30 28 27 27 29 26 24 24 25 25 25 25 27 28 29 29 29 28 27 27 27 27

GFSCGP_sfc_30mbdewp_045.txt.gz
Dewpoint
36 29 24 25 25 21 17 17 15 18 19 21 24 23 28 30 36 37 38 39 37 35 41 44 47 51 56 58 58 57 56 56 56 55 54 53 51 51 48 46 47 47 47 43
31 30 30 25 24 21 21 20 20 20 14 10 14 20 24 27 33 35 34 32 32 33 39 41 45 54 57 58 58 57 56 56 57 55 53 52 49 48 45 45 46 47 45 41
29 30 32 24 26 23 24 24 22 22 26 18 9 11 15 23 27 35 35 35 34 36 39 43 47 57 58 58 58 57 57 56 57 56 53 52 49 47 46 46 46 46 41 39
30 29 29 27 27 25 24 25 26 22 22 16 23 15 20 19 22 31 35 35 37 37 44 45 47 57 58 58 59 58 57 57 57 55 53 51 47 46 46 46 47 42 41 40
29 29 28 27 27 25 21 25 24 25 24 24 23 21 21 24 21 24 28 35 38 39 46 47 49 55 58 58 58 58 57 57 57 56 53 49 47 46 46 46 45 42 41 40
25 31 29 29 29 27 26 21 26 32 30 20 20 18 24 21 23 28 27 32 37 42 46 48 51 55 58 58 58 58 57 56 55 52 50 47 46 45 46 46 44 43 43 40
24 22 30 30 28 27 27 25 23 19 22 21 25 23 23 26 27 30 29 31 38 43 46 50 53 54 56 56 57 58 57 53 50 48 47 47 44 43 43 43 41 37 36 35
22 21 30 30 26 25 24 27 19 20 22 24 24 22 23 28 30 31 33 35 38 44 50 53 54 54 55 56 56 55 51 48 47 46 47 45 40 38 38 39 35 35 33 32
26 26 32 30 34 27 27 24 29 26 31 27 19 17 27 29 30 33 35 38 44 46 47 51 52 53 53 53 52 49 46 46 46 47 45 41 39 39 36 35 34 33 31 31
29 27 36 33 34 27 24 25 22 21 13 12 16 18 25 27 30 34 35 41 44 45 45 47 48 49 50 49 48 47 46 46 47 44 41 38 38 36 35 34 33 32 30 29
31 26 31 30 30 25 23 22 22 19 23 17 17 13 22 26 27 33 37 42 44 44 44 44 45 47 47 47 47 46 47 46 44 41 40 39 36 35 35 34 32 30 30 29
30 30 30 28 32 30 22 22 26 18 18 22 21 18 19 23 27 29 35 41 43 43 44 43 42 44 46 46 47 47 45 43 42 40 38 37 36 36 33 31 30 30 29 29
29 24 26 27 28 28 22 22 20 22 29 21 19 18 20 18 18 25 27 37 42 43 43 42 41 43 44 46 47 47 43 42 39 37 36 37 36 35 33 32 31 30 29 28
31 27 22 18 16 20 21 23 22 21 21 21 21 22 21 20 18 20 22 25 39 42 42 41 40 42 44 46 47 46 41 39 36 36 36 35 36 34 30 30 29 30 29 28
29 24 22 20 23 25 22 23 24 22 23 21 21 22 22 22 20 20 24 25 25 32 40 40 40 43 46 46 46 42 39 36 35 35 35 35 35 31 29 29 30 31 29 28
31 26 25 25 28 25 22 23 22 22 20 19 20 21 23 22 23 22 22 22 25 28 31 39 44 45 45 45 42 40 36 36 36 35 32 29 29 29 32 30 29 29 29 29
32 29 29 26 25 22 21 21 20 21 22 20 17 22 24 22 24 25 25 29 28 30 32 37 42 44 44 42 40 37 36 37 35 29 27 27 29 29 28 27 26 25 26 28
34 32 31 26 23 20 23 18 14 16 19 19 19 21 23 24 30 30 31 30 30 32 33 36 38 40 40 40 37 37 33 29 29 27 28 28 27 26 26 26 25 26 28 29
38 34 31 25 20 24 22 18 19 18 22 24 24 25 26 25 31 34 33 31 31 32 34 37 39 38 36 33 30 29 29 27 28 27 25 27 27 26 26 26 28 28 28 29
34 35 27 31 23 18 24 21 23 21 23 29 28 28 31 32 31 35 35 35 36 36 36 34 30 29 28 29 27 28 27 26 27 27 27 28 28 27 28 28 28 28 28 27
29 31 27 25 21 27 29 24 25 16 25 30 31 32 32 33 37 37 35 36 33 30 30 30 30 31 31 31 30 29 29 27 28 29 29 29 29 28 28 27 27 25 26 26
28 27 27 34 28 22 25 24 23 32 33 34 34 34 33 35 35 36 36 31 29 29 29 30 30 29 29 28 28 27 27 27 28 30 30 29 30 30 29 27 27 27 26 26
29 34 31 31 31 34 31 36 38 37 36 37 38 39 39 39 39 35 31 32 33 33 33 33 32 31 27 26 27 27 27 27 29 29 30 31 30 29 28 26 26 27 27 26
32 32 31 27 31 31 39 39 39 40 39 38 36 36 37 36 32 32 33 34 33 34 33 33 32 30 28 26 25 28 28 29 29 28 28 28 28 28 28 28 28 27 27 25
33 30 30 29 38 39 37 39 38 37 37 34 34 34 34 34 34 34 33 33 32 30 30 29 28 27 25 28 28 29 28 28 26 26 27 27 28 28 29 30 28 27 27 26
34 32 28 32 39 37 35 35 35 34 35 34 35 35 35 34 33 33 32 31 30 30 28 28 28 29 29 29 26 25 25 25 25 26 26 26 27 28 28 28 27 28 27 28

GFSCGP_sfc_30mbdewp_048.txt.gz
Dewpoint
35 29 28 28 27 25 22 18 18 19 20 28 28 26 26 44 47 47 47 44 42 47 49 48 49 50 51 57 57 57 56 56 55 54 53 52 51 52 49 48 47 47 46 44
30 24 28 31 27 26 23 21 21 20 23 23 25 23 25 41 45 45 45 43 40 43 45 47 49 50 56 57 57 57 56 55 55 54 53 52 51 50 47 46 47 47 43 42
26 25 28 29 25 26 25 23 23 22 24 18 16 16 21 27 37 41 42 42 39 38 44 46 50 54 56 57 57 56 56 55 55 54 52 50 48 47 45 45 46 47 42 40
27 26 27 29 27 26 23 25 25 24 20 15 22 7 20 23 28 35 37 37 36 36 42 47 51 56 57 57 57 56 55 55 55 54 52 49 47 45 45 45 46 46 41 40
25 28 29 27 25 26 25 27 25 25 23 24 23 20 18 21 22 32 35 34 34 37 40 48 54 56 57 58 57 57 55 55 55 55 53 49 47 46 46 46 46 43 41 40
26 32 29 29 30 30 29 24 30 30 29 21 21 22 19 21 19 23 34 35 36 38 42 46 55 56 57 58 58 57 56 56 57 56 53 51 47 46 46 46 44 42 43 39
25 27 31 32 26 27 27 25 21 19 20 19 25 24 23 25 25 25 28 33 36 40 45 49 55 57 57 57 58 57 57 56 56 56 53 51 47 46 46 46 44 41 37 34
22 21 28 31 29 28 27 25 19 14 18 19 27 21 23 29 29 29 30 29 38 42 46 49 55 57 57 57 57 57 57 56 54 53 51 49 46 46 46 44 41 37 35 34
24 24 33 33 33 32 26 24 28 26 31 26 24 19 27 30 30 33 32 35 37 44 48 51 53 55 57 57 57 57 57 54 52 50 47 43 41 41 40 37 37 36 35 34
25 24 34 34 30 28 27 26 21 25 15 16 16 18 24 28 29 33 34 36 44 47 51 53 53 54 56 56 55 54 53 50 48 47 44 40 40 39 37 37 36 34 33 31
30 26 28 33 28 24 24 22 22 22 21 17 17 14 20 28 31 33 34 39 45 46 49 51 52 52 53 53 50 48 47 48 46 43 41 40 39 39 39 36 35 32 34 35
29 30 24 24 29 31 31 28 27 20 16 23 20 16 22 28 30 34 35 41 45 45 46 49 50 51 51 50 47 46 46 46 43 41 40 37 38 39 37 35 34 35 34 31
30 29 25 25 25 31 29 28 25 28 26 20 18 19 22 21 26 29 34 39 44 45 45 45 47 48 49 48 47 47 46 44 41 40 38 39 40 38 38 35 33 34 32 29
29 27 23 21 20 22 22 24 23 22 20 21 22 21 22 22 22 20 27 31 42 44 44 44 44 46 47 47 48 46 44 43 39 39 40 40 40 38 33 34 32 30 29 28
28 23 24 23 23 25 23 23 24 22 24 20 21 23 22 24 21 22 22 25 33 42 43 43 42 43 45 46 47 45 42 41 41 41 40 39 38 34 33 31 31 31 30 29
31 22 24 23 26 24 23 22 22 22 21 22 22 21 25 25 25 25 24 27 29 33 37 40 43 44 46 47 45 43 42 41 40 39 38 38 32 33 33 33 31 31 30 29
29 27 25 20 24 23 21 22 22 21 22 22 19 22 24 26 25 28 30 30 32 35 39 43 44 46 46 46 44 42 40 40 36 33 33 33 32 31 30 29 27 27 27 28
31 30 28 23 23 19 24 25 23 21 21 22 22 25 29 30 32 32 31 30 32 34 36 40 42 44 43 41 38 37 35 33 31 30 29 29 30 30 30 30 29 31 30 29
35 33 28 25 23 25 23 17 18 18 23 26 27 28 29 33 33 34 36 36 36 38 34 33 33 33 34 33 32 30 29 28 29 29 30 31 31 30 29 33 32 31 29 28
35 33 29 29 24 22 23 22 23 25 23 29 30 32 31 31 28 34 37 32 31 30 30 30 30 30 29 28 27 28 28 29 30 29 30 30 31 35 35 31 30 29 28 26
30 31 29 26 24 20 26 24 25 13 17 31 32 33 34 34 36 36 31 30 30 30 29 29 29 30 30 29 28 28 29 30 32 34 35 38 36 31 29 28 28 27 27 26
26 29 29 29 22 22 32 25 21 27 34 34 34 35 37 38 34 30 30 29 30 30 30 29 29 28 28 28 27 28 30 29 32 35 34 31 30 30 29 29 28 28 27 27
27 26 26 29 27 34 36 32 36 36 36 38 39 39 39 33 32 32 32 32 32 32 31 28 26 27 28 29 28 28 28 29 30 30 30 29 29 29 29 28 27 27 26 26
33 38 34 32 36 38 39 40 40 39 36 35 36 37 35 33 33 33 33 33 32 32 31 31 29 27 27 28 28 28 28 29 28 27 26 27 27 27 28 28 28 28 27 25
33 32 31 37 37 38 38 37 35 35 35 35 35 35 34 33 33 33 32 31 30 29 28 27 27 28 28 28 27 27 27 27 26 26 26 26 26 27 27 28 29 28 27 27
34 30 29 31 38 35 35 36 36 35 35 35 34 33 33 33 32 32 31 30 29 29 28 28 29 28 28 25 24 25 26 26 25 25 25 25 25 25 26 27 27 29 28 28

GFSCGP_sfc_30mbdewp_051.txt.gz
Dewpoint
35 27 25 27 29 28 26 22 18 19 20 23 25 26 27 43 48 48 51 52 52 54 56 55 55 55 54 53 58 57 56 56 56 55 53 53 52 51 49 48 48 48 45 43
28 25 27 30 29 26 24 23 20 21 23 23 25 26 26 41 48 48 49 50 48 54 53 54 53 52 52 54 57 57 56 55 55 54 53 52 51 51 48 47 47 47 45 43
27 24 29 28 26 25 23 23 22 22 24 22 19 21 24 36 46 48 48 48 45 50 51 52 49 51 51 54 56 56 56 55 55 54 52 50 48 48 46 46 46 47 43 43
28 29 26 28 26 26 22 26 25 25 22 13 20 11 17 26 40 45 46 45 42 46 48 49 48 49 52 54 56 56 56 55 55 53 51 49 48 47 46 45 46 47 43 41
23 28 27 26 24 27 25 28 28 25 24 24 23 20 19 23 33 38 43 43 42 41 46 47 48 49 53 54 56 56 56 55 55 54 52 50 48 47 46 45 45 46 43 41
26 32 28 27 29 29 28 26 28 30 27 19 23 21 19 20 20 26 36 41 40 38 43 46 48 51 54 56 56 56 55 55 55 54 53 50 48 46 45 45 45 44 42 40
25 26 30 32 27 28 27 25 19 19 19 18 26 24 22 24 25 23 27 36 37 37 40 44 49 54 55 56 56 56 55 55 55 55 54 52 49 47 46 45 45 42 38 35
21 21 27 30 28 26 27 25 20 14 15 17 26 23 21 28 30 29 29 35 37 38 41 47 53 55 56 56 56 57 56 56 56 56 55 53 50 48 47 46 44 40 36 35
22 22 33 32 33 28 27 24 26 25 30 24 23 22 23 29 30 33 31 32 37 39 43 48 54 55 56 57 57 57 57 56 56 56 55 52 49 47 46 44 41 38 37 36
24 18 32 33 33 31 26 27 22 24 16 16 16 18 19 26 27 30 35 33 34 41 45 48 54 56 57 57 57 57 57 57 55 53 51 48 46 43 41 40 39 37 39 38
29 21 25 31 27 22 26 24 23 24 20 15 16 17 17 27 28 27 30 36 42 44 48 51 53 55 56 57 57 57 57 56 51 49 45 43 42 40 40 39 37 37 38 38
28 25 21 22 28 31 28 25 26 22 18 23 20 16 21 23 29 32 32 36 43 46 49 52 52 54 55 55 55 55 54 52 48 46 44 41 41 40 38 36 35 38 43 40
30 26 20 21 24 32 30 30 29 28 25 20 17 18 22 21 23 29 33 35 42 46 48 50 51 52 52 53 53 51 49 48 46 44 42 40 40 39 37 37 40 43 37 35
29 29 21 19 19 23 25 26 26 26 21 20 21 20 22 20 23 23 23 30 37 44 46 47 49 50 51 51 49 48 47 46 43 41 40 41 40 40 40 42 39 36 34 30
28 22 25 23 22 22 21 20 25 23 23 21 21 22 23 25 23 22 23 24 29 38 44 45 45 47 49 49 49 47 46 44 43 41 42 43 42 40 38 35 33 31 30 29
30 24 23 24 26 26 23 23 22 23 23 24 23 22 24 25 28 27 28 30 34 38 39 42 44 44 46 48 47 45 43 44 44 44 43 40 36 34 33 33 33 32 30 30
27 25 23 20 25 23 22 23 23 22 22 22 19 21 24 27 29 30 32 33 35 38 41 43 44 45 46 46 44 43 44 44 41 39 36 36 35 34 32 30 29 29 29 34
28 26 24 20 23 18 21 27 24 22 22 21 22 23 28 30 33 34 33 34 36 38 38 40 43 43 43 41 41 39 37 35 34 34 33 32 31 30 30 30 33 36 37 33
34 28 24 20 21 21 24 22 21 18 21 25 26 29 32 34 33 34 35 35 33 32 31 31 32 34 34 33 32 32 32 31 30 31 31 31 30 31 33 35 37 36 31 29
33 32 23 25 22 22 25 25 23 24 19 27 29 30 32 32 25 32 32 31 30 30 30 30 29 28 28 29 30 30 30 30 30 30 30 31 32 36 38 37 33 30 29 28
32 31 27 26 25 26 26 25 24 15 16 29 32 33 32 30 33 33 30 30 30 29 29 29 29 28 29 30 30 31 31 31 33 34 37 40 38 34 31 29 28 28 28 27
30 31 29 27 25 26 28 26 19 22 33 33 34 35 37 34 31 30 30 30 29 28 28 28 28 28 28 29 29 30 32 35 36 34 33 31 31 30 29 28 28 28 27 26
27 30 29 29 28 32 36 30 34 35 33 35 36 39 34 31 31 32 31 30 30 28 27 27 27 27 28 29 29 28 29 30 30 29 29 29 28 28 29 28 27 27 26 26
32 34 30 32 36 37 38 38 37 37 37 38 40 35 33 32 32 32 31 31 31 30 28 27 27 27 28 29 29 28 28 28 27 26 26 26 26 26 26 27 27 27 27 27
33 35 34 36 37 37 37 36 36 36 35 35 35 34 33 33 32 32 31 29 28 27 27 28 28 28 27 26 26 26 27 26 25 25 26 26 26 26 26 26 26 26 27 28
34 34 33 30 36 34 36 35 36 35 34 34 34 33 33 32 31 30 28 28 29 29 28 26 26 25 25 27 29 30 30 29 29 28 28 28 27 27 27 27 27 28 28 28

GFSCGP_sfc_30mbdewp_054.txt.gz
Dewpoint
34 29 24 26 28 27 25 23 20 19 20 27 26 26 34 44 47 47 48 50 52 53 53 54 54 55 56 55 56 57 56 56 56 55 55 54 54 53 51 51 50 48 44 42
29 27 27 29 30 26 25 23 22 21 24 23 23 23 28 41 44 45 47 50 51 54 55 55 55 55 55 54 56 57 56 56 56 56 54 53 52 51 50 50 49 47 44 42
27 25 28 29 26 23 23 23 23 23 24 21 20 18 25 35 46 49 50 50 51 52 54 55 55 54 54 54 56 56 56 55 56 55 53 51 50 49 48 47 47 47 44 42
29 29 26 27 26 25 21 26 26 26 24 19 21 12 16 27 40 46 48 49 50 49 53 54 54 53 53 53 56 56 56 55 55 54 52 51 50 49 47 46 46 47 45 43
23 27 26 25 24 27 23 27 27 27 24 23 22 20 19 22 25 39 46 47 48 47 50 53 53 53 52 53 55 56 56 55 55 54 52 51 50 50 48 47 46 46 43 42
26 32 28 26 30 28 29 28 28 29 26 19 21 21 19 20 21 27 40 46 46 45 46 50 52 51 51 53 55 56 56 55 55 54 53 51 50 49 48 46 45 45 42 41
25 26 29 31 27 29 27 24 19 18 19 17 25 23 22 23 25 25 28 39 45 45 43 46 48 49 50 53 55 55 55 55 56 55 54 53 51 50 48 45 45 43 41 38
21 21 26 30 27 24 26 24 20 15 15 15 25 20 20 26 30 30 30 28 40 43 41 43 46 49 51 54 55 55 55 55 55 56 55 53 52 49 47 46 45 43 40 37
22 20 32 32 33 29 28 23 26 25 29 24 21 22 19 28 30 33 32 33 35 39 39 41 45 49 53 54 55 55 55 55 55 56 55 54 53 50 47 46 44 40 37 37
23 17 31 32 32 31 27 29 23 23 18 16 17 17 16 19 26 29 31 33 35 39 40 43 46 51 54 55 55 56 56 56 56 56 55 54 52 50 47 44 41 38 39 38
25 19 23 30 27 23 27 25 24 23 20 15 14 15 19 19 27 28 29 34 36 37 42 44 49 54 55 56 56 56 57 56 56 56 55 53 50 47 44 42 40 40 39 39
27 22 18 21 29 29 26 25 24 21 19 23 21 18 21 19 22 28 29 33 39 43 43 48 50 54 55 56 56 56 56 56 55 53 50 49 46 44 43 41 40 40 41 41
28 22 16 18 24 32 28 29 28 27 25 22 20 20 23 23 22 23 28 31 36 43 47 49 51 52 54 55 56 56 56 55 51 49 47 46 44 43 41 40 40 42 43 42
27 26 17 14 15 22 26 28 29 27 23 22 22 21 22 22 23 23 24 24 29 37 45 48 50 52 53 54 54 54 52 51 48 46 46 44 43 42 40 40 43 42 39 36
25 19 25 21 21 23 21 22 27 26 25 22 22 22 23 24 24 23 24 24 27 32 41 45 46 49 50 51 50 49 48 46 46 45 44 44 43 40 41 42 38 37 37 34
30 23 24 23 25 25 23 23 25 24 24 24 23 22 25 25 28 29 31 34 39 41 41 42 45 45 48 49 48 47 45 44 44 44 44 42 41 40 37 35 36 35 32 31
27 25 23 21 25 24 22 23 23 23 23 23 22 23 24 27 29 31 33 36 38 40 42 44 45 46 47 47 45 44 44 44 43 41 39 38 37 35 34 33 31 30 33 38
28 25 24 21 23 20 23 27 26 25 24 22 22 23 26 29 34 35 35 36 34 34 35 37 40 40 40 40 39 38 38 37 36 34 34 33 31 31 32 35 37 38 38 38
33 26 23 20 21 21 22 23 22 21 19 24 23 28 31 34 34 33 32 32 31 31 31 30 31 32 32 33 33 32 32 32 31 30 30 31 33 35 36 37 38 39 37 32
32 29 22 23 18 16 20 24 24 22 17 26 28 31 32 32 24 31 31 30 30 30 30 29 29 30 30 30 31 31 30 30 30 31 33 37 39 40 39 38 35 32 30 29
30 28 21 23 20 24 28 26 24 17 18 26 29 31 32 29 30 31 30 29 29 29 29 29 29 30 31 31 30 31 33 33 35 38 40 39 37 33 32 30 29 28 28 28
28 27 26 26 24 22 27 24 20 22 28 30 32 33 34 33 31 30 29 29 28 28 28 28 29 29 30 32 33 34 36 36 34 32 32 31 30 29 29 28 28 27 27 27
30 30 28 29 28 32 31 27 30 30 31 33 34 37 34 31 31 30 29 28 27 27 27 28 28 28 29 29 30 29 30 29 28 27 26 26 27 27 27 27 26 27 26 26
31 33 29 30 33 35 38 38 37 37 35 37 38 35 33 32 31 30 29 29 28 27 27 27 28 28 27 26 27 27 27 27 26 26 26 27 27 27 27 27 27 26 26 26
32 34 33 33 36 37 37 36 36 36 37 36 34 34 33 32 31 30 29 28 27 27 28 29 26 25 27 30 30 29 29 28 27 26 26 26 25 25 25 25 26 26 27 27
35 33 30 27 33 32 33 36 36 36 36 35 33 33 32 32 31 29 28 28 28 28 26 25 26 28 28 26 26 26 26 24 23 23 24 24 23 23 23 24 22 23 23 24

GFSCGP_sfc_30mbdewp_057.txt.gz
Dewpoint
34 28 26 25 28 27 25 24 21 21 22 32 31 30 35 50 51 49 49 49 50 51 52 54 54 55 56 57 57 58 58 58 57 56 56 56 57 58 57 55 54 52 50 47
29 28 29 27 29 28 25 23 22 23 25 25 24 22 27 46 49 48 48 48 47 50 52 53 54 54 54 55 57 57 58 57 57 55 55 55 56 56 56 55 53 51 48 46
27 26 28 29 27 26 24 22 24 24 25 22 20 17 24 38 45 47 47 48 48 50 52 53 54 54 55 55 56 57 57 57 56 56 55 54 54 53 53 53 52 50 47 45
26 29 27 27 26 26 21 25 26 25 24 19 22 18 18 24 39 44 45 47 48 50 51 53 55 54 55 55 56 57 57 57 57 56 54 53 53 53 53 52 52 50 47 44
22 27 27 26 25 27 24 28 27 27 25 24 23 21 20 22 24 35 44 47 49 49 51 52 54 55 55 55 56 57 57 56 57 56 55 54 54 55 52 51 50 49 47 45
25 31 28 26 29 28 29 29 27 28 26 20 22 21 20 20 21 24 31 43 49 49 50 51 54 55 55 55 56 57 57 56 56 56 55 54 54 53 51 50 49 48 46 45
25 26 29 30 27 29 27 24 20 20 20 17 26 23 22 24 25 26 27 33 45 49 49 49 52 53 54 53 55 56 56 56 56 56 55 54 54 53 51 51 49 48 46 43
19 18 26 30 27 25 26 25 21 15 15 16 25 21 19 27 27 31 33 32 33 47 48 47 49 51 52 53 54 55 55 55 56 56 55 55 54 53 52 50 48 48 47 44
21 19 30 32 32 28 28 24 27 25 28 24 22 22 20 25 26 31 33 32 33 38 46 46 47 49 51 52 54 55 55 55 56 56 56 55 55 54 52 50 49 48 46 42
23 18 31 32 33 32 28 29 24 25 18 17 18 18 15 18 26 28 28 32 34 38 39 42 44 48 50 52 53 55 55 55 55 56 56 56 55 54 52 50 48 45 42 39
24 20 23 30 28 25 28 26 25 24 22 17 15 15 22 19 24 28 30 33 36 36 40 41 43 47 50 53 54 55 55 55 55 56 56 56 55 55 52 49 45 43 41 41
25 22 19 21 29 29 28 26 25 22 20 24 21 19 23 23 22 24 27 31 36 41 41 44 45 50 52 54 54 55 55 55 56 56 56 56 55 52 50 47 44 43 41 41
27 22 16 18 24 31 28 28 27 27 26 22 21 21 24 24 24 24 24 28 32 39 45 47 49 50 52 54 55 56 55 55 56 55 54 52 50 49 47 44 43 43 43 43
26 24 18 15 16 21 25 28 29 26 24 24 24 23 24 24 24 25 27 27 26 27 39 47 50 51 53 54 55 55 55 54 52 50 49 48 47 46 45 44 44 44 43 41
25 19 22 19 19 22 21 23 28 27 26 24 24 24 24 24 24 24 29 32 38 40 41 44 47 50 52 53 53 52 51 50 49 48 47 46 45 44 43 43 42 40 39 38
29 20 24 21 25 23 20 22 26 28 26 26 25 24 25 26 27 30 35 39 40 42 44 45 45 47 49 50 49 48 47 46 47 46 45 43 42 41 39 39 39 39 39 37
29 25 23 20 25 24 22 23 24 25 26 25 23 25 26 26 29 32 36 39 39 40 41 43 43 45 46 46 46 45 45 44 43 42 41 39 38 37 37 36 34 33 35 38
30 27 26 21 24 20 23 27 26 24 24 25 24 23 24 28 34 34 36 35 35 36 37 39 40 40 41 41 41 40 39 38 37 35 34 33 33 33 35 38 39 39 39 40
31 27 23 22 22 23 21 22 24 23 20 24 24 24 29 34 34 33 32 32 32 32 32 33 34 35 36 36 36 36 34 33 32 32 34 36 37 38 39 38 39 40 40 37
31 29 26 23 20 19 22 23 25 22 17 23 24 27 32 33 28 31 32 31 31 31 31 32 32 33 33 33 33 32 31 33 35 37 38 39 40 40 39 37 35 33 32 30
29 27 25 23 21 22 25 27 24 19 20 24 27 30 33 30 31 33 31 30 30 30 31 32 32 32 31 32 32 33 34 35 38 40 37 34 32 31 31 30 30 29 28 29
28 26 24 24 22 20 29 24 21 25 26 27 31 34 34 33 31 31 30 29 29 29 29 30 31 31 33 34 35 35 33 32 31 30 29 28 28 27 27 28 28 27 27 28
30 29 26 26 25 31 28 27 28 28 28 31 33 35 34 32 31 30 29 28 28 28 29 30 30 30 30 30 29 27 28 27 27 27 27 28 28 27 27 26 26 26 25 25
33 35 31 29 31 32 33 36 37 36 32 34 36 35 33 32 30 29 28 27 27 27 28 28 27 27 27 28 28 27 27 28 28 26 25 24 22 20 19 18 18 18 19 20
32 35 32 32 33 36 37 37 37 36 38 36 35 34 33 31 30 29 28 27 27 27 27 26 27 28 27 26 24 24 24 24 23 22 19 16 16 16 15 16 18 18 19 21
35 32 30 29 32 31 31 37 37 36 36 35 33 33 32 31 30 28 27 28 28 26 26 27 27 25 23 22 21 20 19 17 15 14 14 16 16 17 17 16 15 18 19 20

GFSCGP_sfc_30mbdewp_060.txt.gz
Dewpoint
32 26 23 20 22 27 22 19 17 19 23 29 26 24 23 41 47 45 43 43 46 48 50 53 53 53 51 49 52 53 54 56 58 57 53 50 51 52 54 56 59 59 58 57
30 24 24 27 27 27 24 18 17 22 24 25 21 20 21 32 43 44 44 43 43 45 49 51 53 53 53 50 51 53 55 57 57 56 52 50 50 52 53 57 58 58 57 55
23 24 28 28 27 26 24 21 20 20 24 24 21 16 21 31 40 45 46 45 42 42 45 49 52 53 53 53 53 53 54 56 56 56 53 51 51 54 54 55 58 57 55 53
24 26 27 26 25 24 21 23 23 22 20 16 22 14 18 22 31 38 41 45 45 42 44 47 51 52 53 53 53 54 54 55 56 57 53 52 48 48 51 54 57 57 54 52
22 26 26 23 22 25 21 26 25 24 22 23 20 17 16 21 20 28 36 40 44 45 44 45 49 51 53 54 55 55 54 55 56 57 56 54 51 47 51 56 56 55 53 50
22 29 27 24 27 27 28 27 27 27 24 19 20 18 14 15 18 21 25 35 39 43 46 46 45 51 52 54 55 56 56 55 56 57 57 56 55 53 55 55 55 54 53 50
23 23 26 29 26 29 27 24 20 21 20 17 23 20 16 20 23 25 27 29 32 40 45 47 46 48 51 53 55 56 56 55 55 57 58 58 57 56 55 54 54 53 51 49
18 17 23 28 25 24 25 23 19 14 15 16 23 15 15 24 25 29 32 33 33 34 43 45 47 48 50 53 55 56 56 56 55 57 57 58 57 57 56 55 55 53 51 48
17 15 26 28 29 27 27 23 26 25 29 23 18 18 19 22 23 29 28 30 33 33 38 43 45 47 50 52 54 55 56 55 55 57 58 57 57 56 55 55 54 53 50 50
22 16 26 31 31 31 29 27 23 24 18 15 16 16 12 16 23 21 22 25 30 36 37 40 43 46 49 51 53 55 56 56 56 56 57 57 57 57 56 55 54 52 51 52
22 20 28 31 27 23 27 25 26 24 22 17 15 15 18 19 21 27 29 29 31 35 39 40 41 43 46 50 52 54 55 54 54 55 56 57 56 56 56 56 54 51 50 47
23 20 19 21 29 29 26 24 25 20 19 24 23 18 19 22 25 24 25 29 34 38 40 41 42 44 46 49 51 52 53 53 53 55 56 56 56 56 55 54 51 50 46 43
24 21 18 19 25 29 24 25 24 25 26 19 21 18 24 25 26 26 25 26 30 35 39 43 45 46 48 50 51 52 54 54 55 56 56 56 56 55 52 49 45 44 43 43
27 20 19 17 15 17 21 23 23 23 21 18 20 19 19 23 23 23 27 28 28 29 30 41 45 48 51 53 54 55 55 56 55 54 53 51 50 48 46 45 45 44 44 44
26 19 21 18 17 15 16 15 19 19 20 15 19 17 23 24 25 25 29 30 35 38 37 38 46 49 51 53 55 54 53 51 51 50 49 48 47 46 45 45 45 44 43 41
30 20 23 21 20 20 17 18 17 20 19 23 23 20 23 26 27 28 31 36 38 42 43 44 46 49 51 52 51 51 51 51 49 47 45 44 44 43 43 42 42 42 41 40
29 25 24 19 24 24 23 23 19 21 25 24 20 22 23 26 27 29 34 38 39 41 43 45 47 48 48 48 49 48 48 48 46 44 43 42 42 41 41 39 37 36 36 36
33 28 28 20 26 22 21 27 24 22 22 23 24 24 24 25 29 34 37 39 39 40 41 43 44 45 45 45 45 44 43 42 41 40 39 39 38 36 37 38 38 38 38 38
36 31 29 27 23 20 23 24 25 24 22 24 25 24 25 30 33 34 35 37 38 38 39 40 41 42 42 42 41 40 38 37 36 37 37 38 38 38 38 39 39 40 40 40
34 34 30 27 23 22 21 24 27 27 22 23 23 22 25 31 28 27 34 34 35 36 37 38 39 39 40 39 38 37 37 37 37 38 37 38 38 38 38 36 35 34 31 29
32 32 30 29 27 25 27 26 26 21 22 26 25 26 30 31 30 35 34 34 34 35 35 36 37 37 37 37 37 37 37 37 38 37 36 35 33 33 31 30 28 27 25 26
30 30 30 30 29 25 29 26 22 25 32 29 31 30 33 35 35 34 33 32 33 33 34 34 35 35 36 36 36 36 35 34 34 32 29 27 26 24 25 26 26 26 26 27
32 32 32 30 28 35 30 27 29 33 29 32 32 33 35 35 33 32 32 32 32 32 32 34 34 34 34 33 31 30 29 29 28 27 26 26 25 24 23 22 22 19 17 16
32 36 32 33 29 31 33 31 35 33 32 33 33 35 37 34 33 32 31 31 31 31 31 31 31 29 29 28 28 27 26 26 26 24 23 22 17 16 13 11 11 11 16 17
30 35 31 31 33 35 36 36 33 35 37 36 35 36 34 34 32 31 30 30 29 30 30 29 29 28 26 26 25 25 25 23 21 18 15 13 14 11 10 11 14 15 18 19
34 32 34 32 32 34 30 37 37 37 36 35 35 35 35 33 31 31 30 29 29 28 28 29 27 25 23 21 20 18 17 16 13 10 11 15 14 14 12 10 11 19 18 18

GFSCGP_sfc_30mbdewp_063.txt.gz
Dewpoint
27 24 21 20 21 18 20 14 12 17 20 22 22 26 24 36 36 38 39 41 44 45 45 48 49 48 47 48 49 49 48 49 52 52 50 47 47 48 49 51 53 56 59 60
26 23 21 22 21 23 20 17 13 17 19 21 20 23 22 25 36 36 38 37 41 44 45 46 48 48 47 47 48 48 48 49 52 52 51 46 44 46 47 49 53 58 59 59
23 22 22 24 21 21 21 18 22 20 26 20 18 17 18 21 32 37 38 38 39 42 44 46 47 49 48 48 49 50 50 50 51 50 50 46 46 46 48 49 52 58 59 58
22 22 23 22 22 22 20 20 19 19 17 16 26 19 25 19 25 33 37 41 40 39 42 46 49 50 51 50 49 50 50 50 51 52 50 48 45 43 46 49 50 56 57 57
20 20 23 22 22 22 20 25 21 20 21 21 21 14 25 18 13 21 32 40 39 38 39 41 46 49 51 52 51 51 50 50 51 53 52 51 48 46 47 49 51 57 57 56
20 21 22 22 21 23 23 23 22 21 21 21 19 18 20 18 13 13 18 30 37 38 37 38 42 46 48 50 52 53 52 51 52 53 54 54 52 51 46 47 54 57 57 55
20 22 23 24 23 24 24 21 19 20 25 19 24 16 19 24 18 19 20 21 30 36 40 40 39 43 47 48 51 53 54 52 52 53 54 55 55 55 53 52 55 55 55 55
16 17 21 24 22 23 23 21 21 21 20 25 20 13 16 18 19 22 25 28 29 31 36 40 42 40 45 48 50 53 53 54 53 55 56 57 57 57 56 56 57 56 56 56
15 15 19 21 22 22 24 22 25 24 23 19 16 15 15 17 16 21 23 26 29 31 31 37 41 43 43 46 50 53 53 53 54 55 56 58 58 58 58 58 57 57 57 54
18 15 18 21 24 24 28 26 22 20 20 17 14 13 14 16 20 18 19 21 23 31 33 36 40 43 46 47 50 53 55 54 54 55 57 58 59 59 58 58 56 56 55 53
18 18 20 26 24 20 24 26 24 26 26 20 15 13 19 16 18 20 22 21 24 27 34 38 39 41 44 47 50 53 55 55 55 55 57 59 59 58 58 57 56 56 55 53
19 19 20 22 19 20 23 22 23 20 18 20 20 19 19 18 19 21 21 23 25 31 32 37 40 42 43 46 48 51 53 55 55 55 56 58 57 57 57 57 57 55 53 49
20 19 17 17 24 24 22 24 24 23 21 22 23 20 21 22 22 22 22 22 26 30 31 34 39 42 44 47 49 50 52 52 52 53 55 57 57 56 54 50 48 46 45 44
25 19 19 16 18 20 19 19 21 22 23 21 18 16 19 19 20 21 21 24 24 27 29 34 38 43 46 49 50 52 54 56 56 56 55 53 51 49 47 46 45 44 44 44
23 19 19 17 16 16 16 17 18 19 20 19 19 17 16 18 20 22 27 28 28 31 31 30 39 43 48 52 55 55 53 53 52 51 50 48 47 47 46 45 45 45 45 43
24 22 21 17 18 16 15 14 14 13 14 15 15 14 17 19 18 23 26 29 32 37 38 39 41 47 50 53 53 52 51 50 49 48 47 46 46 45 45 44 43 42 42 41
25 26 21 20 19 18 18 17 15 15 16 16 16 18 18 20 20 22 25 31 35 40 42 43 46 50 51 51 51 51 49 48 46 45 45 44 44 43 43 43 41 41 40 40
26 25 25 24 27 21 21 20 19 18 18 17 18 18 19 19 21 25 30 33 38 40 43 46 47 48 48 49 48 48 47 46 45 44 43 43 41 39 39 39 39 39 38 38
35 29 25 26 24 21 19 23 21 19 17 18 18 17 18 23 30 33 35 37 39 40 42 43 44 45 45 44 43 43 42 41 41 40 39 39 40 40 39 38 38 39 39 39
31 35 31 30 24 21 21 22 23 22 20 21 19 20 22 28 28 23 35 38 39 39 39 41 42 42 42 41 41 40 40 39 39 39 39 39 39 38 39 40 39 39 37 31
33 35 34 29 27 23 22 22 23 23 22 21 22 22 23 25 28 34 36 37 36 37 38 40 40 40 39 39 40 39 39 39 39 39 38 38 37 36 35 32 30 28 26 25
32 31 34 32 30 27 29 27 24 27 26 27 27 25 27 32 37 36 36 35 35 36 37 38 38 38 38 39 39 38 38 37 36 35 33 31 28 25 26 26 25 24 25 26
32 31 30 30 29 32 30 28 30 28 30 31 30 29 31 37 35 35 34 34 35 35 35 36 36 37 37 38 37 35 34 33 32 30 28 26 24 22 22 21 20 16 15 17
30 32 34 32 31 30 31 33 32 33 33 32 33 33 34 37 35 34 33 34 34 34 34 35 36 36 34 33 32 31 31 30 28 26 24 21 19 16 12 10 10 12 17 18
23 24 28 28 26 25 32 35 35 32 35 34 33 33 35 36 34 33 33 33 33 33 34 34 33 32 30 29 29 28 27 26 23 20 16 15 14 11 10 11 13 16 21 18
22 23 30 30 28 31 31 34 37 36 35 36 34 33 36 35 34 33 33 33 32 32 32 31 31 30 28 26 25 24 23 20 16 13 14 17 16 15 10 9 16 16 16 18

GFSCGP_sfc_30mbdewp_066.txt.gz
Dewpoint
25 22 20 21 22 23 19 16 16 19 22 23 19 22 37 40 39 41 39 43 45 43 47 53 51 49 49 50 51 50 50 53 54 52 52 51 53 52 51 51 53 59 59 59
24 23 22 22 21 20 20 18 15 17 21 19 16 19 31 35 31 31 36 39 42 43 45 46 47 48 49 50 52 51 51 53 53 52 52 50 51 52 50 51 53 58 59 60
24 23 24 21 21 19 19 15 20 23 21 20 19 17 21 22 29 30 35 36 42 43 43 46 48 48 49 50 51 50 50 51 52 51 51 50 50 50 50 50 53 58 60 60
22 22 23 21 21 20 18 18 21 18 18 15 24 20 25 24 22 30 31 35 37 41 42 45 48 48 49 50 51 50 49 49 51 53 51 50 46 45 48 49 52 58 60 60
20 20 21 22 19 21 21 25 25 20 17 18 21 24 23 23 20 22 30 36 38 39 42 44 45 49 49 50 51 51 51 50 51 52 52 51 48 48 47 50 50 57 58 58
19 21 20 20 21 22 21 21 23 22 20 18 19 21 22 22 25 19 29 36 40 39 40 44 47 48 50 51 52 52 52 51 51 53 53 54 51 50 48 50 51 58 58 58
18 19 20 20 20 21 21 20 19 20 20 20 22 21 21 26 26 23 19 34 39 39 38 40 44 48 50 51 53 53 52 51 51 53 55 54 56 54 52 50 53 58 57 57
18 17 19 21 21 20 22 20 21 22 27 28 30 19 16 22 22 20 21 23 29 37 39 39 39 46 49 51 53 54 53 52 52 53 55 56 56 57 55 55 57 57 57 57
17 16 18 21 22 21 23 23 22 32 33 31 28 23 18 19 16 17 21 25 27 29 34 40 41 41 47 49 52 54 54 54 53 53 55 56 57 57 57 57 58 58 58 58
17 18 18 20 22 20 20 25 22 25 27 19 13 14 17 18 18 19 17 22 26 30 32 33 40 43 43 49 51 54 54 54 55 55 56 57 58 59 59 59 59 58 58 54
20 20 19 19 18 18 19 24 28 23 20 22 21 21 30 22 19 18 21 22 25 28 34 36 38 42 45 46 49 53 54 54 54 55 56 57 59 60 60 59 58 58 57 55
21 20 21 19 20 22 20 21 26 24 24 26 27 23 28 27 19 21 21 23 24 26 31 37 39 40 42 47 48 53 55 55 55 56 57 58 60 60 58 57 57 57 55 54
23 20 18 23 22 22 17 20 23 23 24 23 26 23 22 21 22 21 22 22 25 27 28 36 40 41 42 44 47 52 55 55 56 58 58 59 58 57 54 52 50 49 48 47
28 21 19 21 24 22 18 19 25 25 24 25 25 25 25 22 24 21 22 23 23 28 27 30 37 41 44 47 49 54 57 57 56 56 54 51 50 49 48 47 46 46 45 45
26 22 22 19 20 19 20 19 18 16 22 25 24 19 19 20 20 22 27 27 24 24 27 29 35 43 47 54 55 55 54 53 52 50 49 47 47 46 46 45 45 45 45 44
26 24 24 22 20 19 18 17 18 17 16 18 19 19 20 18 17 19 24 27 28 30 34 34 35 46 54 54 52 52 50 49 49 47 46 47 46 46 45 44 43 43 42 42
27 26 23 22 21 19 17 19 16 16 17 16 14 17 17 16 18 20 22 24 28 37 39 40 41 51 53 52 51 50 48 47 47 47 46 45 45 44 44 43 42 41 41 41
31 28 25 26 25 20 22 21 18 18 18 17 16 16 17 18 19 23 25 28 33 39 42 44 49 51 51 51 50 49 48 47 46 45 45 45 44 43 42 41 41 41 41 39
31 35 27 25 25 23 21 22 21 20 19 20 19 18 17 18 26 32 33 34 39 41 44 47 49 49 49 49 49 48 46 45 45 44 43 41 41 40 40 40 39 39 39 39
30 35 33 27 25 24 26 24 23 24 20 22 20 22 20 27 28 27 35 39 40 42 44 45 46 46 46 45 44 43 42 41 40 40 40 41 40 39 39 39 40 40 39 39
32 31 30 29 27 27 26 26 24 21 24 26 25 24 23 24 29 35 37 39 40 41 41 43 43 42 42 42 42 41 40 40 40 40 40 39 39 40 40 39 39 37 30 30
32 30 30 31 28 26 29 26 23 27 30 29 28 26 26 37 37 37 39 39 38 38 39 41 41 41 40 40 40 40 39 39 39 39 38 37 36 33 31 28 26 25 29 29
31 32 30 30 30 32 32 29 31 33 35 33 34 32 31 38 37 37 37 37 37 37 39 39 39 39 40 40 40 39 38 38 36 34 31 28 26 26 26 26 23 21 21 21
34 39 36 38 31 32 34 33 34 34 34 34 34 34 34 38 37 37 37 36 36 36 37 37 38 39 39 39 38 37 35 34 32 29 27 25 22 18 14 12 14 22 23 20
25 34 35 34 35 32 33 31 35 36 37 35 35 34 34 40 37 36 36 36 36 36 36 37 37 38 37 35 34 33 32 31 28 26 21 16 15 14 14 17 18 23 18 20
25 20 23 28 29 33 34 40 39 38 37 38 36 35 34 39 38 36 35 35 35 35 36 37 36 34 31 31 30 29 28 26 21 18 20 22 19 16 13 17 16 19 18 21

GFSCGP_sfc_30mbdewp_069.txt.gz
Dewpoint
28 24 22 23 23 23 22 21 19 18 22 23 24 28 34 38 41 44 44 49 50 51 53 54 52 52 52 53 52 50 52 52 53 51 48 51 50 52 52 53 56 56 56 57
28 24 24 24 24 23 23 21 19 22 23 21 18 18 36 40 37 40 46 47 48 51 52 53 52 52 51 48 48 48 49 49 53 53 53 53 52 52 52 52 54 57 56 57
27 25 25 24 23 22 21 19 19 21 23 24 21 19 33 34 36 39 43 46 45 51 51 51 49 50 49 45 46 46 49 51 53 52 52 51 53 52 51 51 51 58 59 59
26 27 25 25 23 22 19 20 20 23 23 18 22 18 23 26 31 34 40 44 44 49 51 50 48 48 49 49 49 49 49 52 53 52 51 50 49 50 50 50 52 57 59 60
24 25 25 24 23 23 20 25 23 25 23 20 20 24 28 30 26 29 34 42 43 46 46 47 47 48 48 49 51 51 51 51 52 52 51 50 49 49 50 50 50 58 59 59
22 23 23 23 23 23 21 22 24 24 23 19 20 26 27 28 23 27 31 39 41 44 46 47 47 48 49 50 50 50 50 50 50 51 52 52 50 48 47 50 51 55 59 59
19 21 21 22 20 23 21 20 19 20 21 19 29 28 25 27 27 26 28 37 37 41 45 46 48 47 48 49 50 50 50 50 49 49 51 52 52 50 47 48 51 56 57 58
18 18 20 21 20 20 21 21 20 19 21 28 31 24 22 27 27 25 28 37 40 38 41 45 46 48 48 48 49 50 50 51 50 50 51 52 53 52 52 50 52 56 57 57
17 18 20 19 22 21 23 21 25 30 33 31 32 28 24 25 23 21 22 33 38 40 39 42 46 47 49 49 49 51 50 50 51 51 55 54 53 55 53 52 55 56 57 57
21 18 21 21 22 22 22 26 25 32 26 28 27 28 20 25 26 20 19 22 30 35 38 40 42 48 49 50 52 52 52 51 51 52 53 56 55 55 57 55 57 57 58 57
21 21 22 23 21 20 21 20 25 31 30 24 21 24 29 26 25 18 23 25 29 31 32 36 40 45 49 50 51 53 53 53 53 53 54 54 56 58 58 58 58 59 58 55
22 27 24 23 23 23 22 20 25 27 25 27 27 24 28 28 23 24 23 25 27 33 34 36 40 42 47 49 50 53 54 54 54 54 55 56 58 59 59 59 58 57 55 54
26 28 26 23 23 21 20 22 22 28 30 27 24 24 27 28 24 24 22 25 27 28 36 38 39 41 43 48 50 52 55 57 58 59 59 59 58 59 58 55 54 54 52 51
29 27 26 22 26 25 21 21 22 24 23 24 27 25 25 27 23 23 22 22 27 26 32 38 40 41 49 54 55 55 56 59 56 55 53 51 50 50 49 49 48 48 47 46
28 25 26 26 27 27 25 22 20 20 26 25 26 26 26 25 24 23 27 25 25 28 28 36 40 47 53 53 52 51 51 52 51 50 49 47 47 47 47 46 46 45 45 44
29 25 26 24 26 24 25 24 20 20 19 20 26 26 27 24 22 25 27 27 27 29 33 35 48 53 52 52 51 49 49 49 49 48 47 47 46 45 45 45 44 43 43 43
26 25 25 24 26 24 24 24 26 25 20 19 16 19 21 22 18 20 27 28 32 36 37 43 52 53 52 51 50 49 48 48 47 47 46 46 45 44 44 43 42 42 42 42
31 25 27 26 25 21 23 24 25 23 21 20 19 19 19 19 20 23 25 28 36 39 40 52 53 52 51 50 49 48 47 47 46 45 45 45 44 43 42 42 41 41 41 40
32 33 27 26 23 25 25 23 22 22 21 21 19 19 21 19 29 31 33 36 40 42 47 51 52 51 50 49 48 47 47 46 46 45 44 44 43 42 42 41 40 40 39 39
31 32 31 30 23 20 26 28 28 25 20 25 24 22 23 27 25 29 38 40 43 46 48 49 50 50 49 48 48 46 45 45 44 44 43 42 41 41 40 39 39 39 39 39
28 28 27 28 29 28 29 27 28 23 22 25 26 25 26 26 27 34 41 42 44 45 47 48 47 47 47 47 46 44 43 42 41 41 41 41 40 39 39 40 40 39 38 33
28 27 27 30 30 28 31 27 24 27 27 27 31 32 32 32 35 38 40 41 42 44 45 45 44 43 43 43 42 41 40 41 41 41 40 40 40 40 40 39 36 32 31 30
28 32 30 31 30 33 34 34 32 34 33 35 33 35 37 37 36 39 40 40 40 41 42 42 42 41 41 41 41 40 40 40 39 38 38 37 35 31 28 26 28 27 27 24
32 35 32 31 33 39 39 44 40 37 36 35 35 35 39 38 39 39 39 38 38 40 40 40 40 40 40 40 39 39 39 37 36 32 28 26 24 22 19 24 24 22 21 20
33 35 34 35 36 36 36 40 35 37 39 38 39 35 34 39 38 38 38 37 37 39 38 39 39 40 39 38 37 36 35 32 29 26 22 19 19 18 20 23 21 18 20 22
29 32 34 31 35 33 32 35 33 32 35 38 39 38 35 39 38 38 37 37 37 37 38 39 38 34 33 32 32 32 31 27 22 20 20 19 19 18 15 18 18 20 19 19

GFSCGP_sfc_30mbdewp_072.txt.gz
Dewpoint
29 26 24 22 23 22 22 22 21 22 23 24 24 29 35 40 43 45 48 49 51 53 54 53 53 53 53 53 54 54 53 54 54 51 51 51 51 53 53 55 55 56 57 56
28 25 26 25 24 23 22 22 22 23 23 23 20 19 35 40 41 44 47 48 49 52 53 52 52 52 53 53 53 52 53 53 54 52 49 51 51 52 53 54 55 56 56 57
26 27 26 25 23 22 22 22 22 21 21 24 22 21 32 37 40 43 45 44 49 51 52 52 52 51 52 52 52 50 52 52 52 53 49 51 52 51 52 51 53 56 56 56
26 28 27 25 24 23 21 23 22 20 23 20 22 18 30 33 35 39 41 44 46 50 52 52 51 51 51 50 50 49 49 48 51 53 49 50 47 49 49 51 51 54 57 57
22 27 27 26 25 25 23 25 23 24 23 22 22 21 23 28 28 32 39 43 46 50 51 51 50 50 50 48 47 46 47 48 50 53 50 51 51 52 51 51 50 52 57 58
21 25 27 26 26 25 26 24 24 25 23 20 22 23 22 24 27 28 38 42 46 49 50 51 49 49 45 44 45 46 46 48 50 53 52 51 50 50 50 51 50 52 57 58
18 19 24 23 22 24 25 21 18 18 19 19 29 28 25 24 27 28 37 42 45 49 50 50 48 47 46 45 45 47 48 48 50 52 52 51 50 50 49 50 50 50 54 57
17 16 19 22 21 20 22 21 19 16 18 21 31 23 25 27 29 29 33 42 45 47 48 49 49 47 47 48 48 49 49 49 51 52 52 52 53 51 51 49 50 51 52 55
17 17 22 21 22 22 21 20 24 27 34 30 28 31 28 26 26 26 27 38 42 44 46 47 47 47 48 48 49 51 50 50 50 50 50 50 51 53 52 51 50 52 55 56
22 17 19 21 23 22 22 26 25 30 23 23 26 28 24 24 23 22 28 37 38 42 45 46 47 47 48 49 49 50 50 50 50 50 50 50 50 54 54 53 53 54 56 56
25 22 20 22 20 21 22 23 27 31 31 26 22 22 28 26 23 21 21 31 36 39 40 43 46 48 48 48 49 50 50 49 50 50 51 50 51 52 55 55 56 57 57 57
26 24 20 20 25 26 24 21 23 26 30 31 28 23 28 27 24 25 25 29 32 35 38 40 43 46 47 49 49 48 50 50 51 54 55 56 56 57 56 57 58 58 56 55
24 23 20 18 21 24 22 23 23 27 30 28 26 25 28 28 28 25 24 27 30 31 34 39 41 42 44 49 49 50 51 53 57 57 57 58 58 58 58 58 58 55 53 55
24 26 19 16 21 26 24 22 22 25 24 25 28 28 28 26 26 24 24 25 28 32 33 36 40 46 50 52 51 52 54 56 56 54 56 57 57 56 57 56 55 54 53 50
27 23 23 24 27 27 26 25 25 22 23 23 26 27 27 26 26 25 24 24 26 28 35 37 41 52 53 53 54 54 54 55 55 52 52 51 50 50 49 49 49 48 48 47
31 25 28 27 28 27 26 28 27 27 22 26 27 28 29 28 28 28 26 25 25 27 29 37 43 52 52 52 52 52 51 51 51 49 48 48 48 47 47 46 45 45 45 44
30 28 26 24 27 27 26 29 31 29 28 24 21 25 26 24 27 26 25 26 25 29 38 42 45 52 52 51 50 50 50 50 49 48 47 47 47 46 45 44 44 43 43 43
34 30 28 24 25 25 30 30 32 32 29 27 22 21 23 24 24 23 24 29 30 35 43 46 50 51 50 50 50 49 49 49 48 47 46 46 45 44 43 43 43 42 42 41
36 34 26 24 24 28 29 27 28 27 24 25 23 20 20 22 28 28 31 31 33 37 47 51 52 51 49 48 48 48 47 47 46 46 45 44 44 43 42 42 41 40 40 40
35 37 27 28 22 22 26 27 28 28 23 26 25 23 22 27 22 25 35 38 41 44 50 51 51 50 49 48 48 47 46 46 45 45 44 43 43 42 41 41 40 39 39 39
30 31 27 29 27 29 31 29 28 22 24 26 27 27 25 25 26 28 39 41 44 48 50 51 51 50 49 48 47 46 45 44 45 44 43 42 41 40 40 40 39 39 38 37
28 28 27 28 27 24 34 31 26 31 31 32 32 30 29 28 33 35 40 42 45 47 49 50 49 49 48 47 45 44 42 41 42 41 40 40 40 40 39 39 39 37 33 30
27 28 26 28 26 34 40 39 40 39 36 36 35 37 37 33 35 39 40 43 45 47 46 46 45 44 44 43 42 41 41 41 40 40 40 40 39 39 38 36 34 32 29 27
31 35 30 31 34 34 38 38 41 42 39 38 38 36 38 36 38 40 41 41 43 44 43 43 43 42 41 41 41 40 40 39 38 36 35 32 27 26 26 26 27 27 25 24
22 34 31 32 35 37 37 38 38 39 40 37 38 37 36 38 38 40 41 40 41 41 41 41 41 40 39 39 38 38 37 35 31 26 23 22 23 23 21 20 20 22 24 24
34 35 31 30 33 33 33 37 40 39 36 37 39 38 36 38 38 40 39 39 40 40 40 38 36 33 29 30 31 31 29 26 23 20 20 21 20 20 18 16 20 23 22 23

GFSCGP_sfc_30mbdewp_075.txt.gz
Dewpoint
29 26 25 26 26 22 21 22 21 21 22 23 22 23 29 38 45 46 49 51 51 53 54 54 54 54 54 55 55 56 55 55 54 54 53 53 53 54 56 56 56 56 54 54
26 25 26 26 25 24 22 21 20 22 23 23 22 21 27 37 39 42 45 49 51 53 53 52 52 53 53 53 54 55 54 54 53 52 53 53 52 53 54 55 56 56 57 55
24 25 27 26 25 23 23 21 20 20 23 23 23 21 27 35 40 41 43 48 49 52 52 52 51 52 52 53 53 54 53 53 54 51 50 51 51 52 52 53 54 55 56 56
25 25 26 26 24 24 20 21 23 23 22 19 22 18 21 29 35 39 41 44 47 51 53 52 52 51 51 52 53 52 53 53 54 52 49 50 50 49 51 51 52 54 56 55
22 23 23 24 26 25 22 22 23 23 23 23 22 21 21 28 31 33 37 40 44 50 52 51 51 51 51 52 52 51 51 52 52 52 50 49 48 48 49 51 51 51 54 56
22 26 26 24 25 27 26 25 25 26 24 21 22 22 21 23 26 29 31 37 42 48 51 51 51 51 51 51 51 50 49 49 49 50 52 49 50 50 50 50 49 51 52 55
21 20 22 26 26 27 26 23 20 18 19 19 25 27 25 25 26 28 28 34 40 46 50 51 50 50 50 49 48 48 47 47 47 49 51 51 50 51 50 51 50 50 51 53
19 18 20 21 23 22 23 24 21 17 17 18 30 24 24 28 30 30 30 34 39 45 50 50 50 49 48 47 46 46 46 46 46 48 50 52 51 51 51 51 51 51 51 52
19 19 21 20 22 22 21 21 23 25 33 28 25 27 29 27 26 28 29 37 41 45 49 50 50 49 47 44 44 45 45 45 45 47 50 51 52 51 50 51 51 51 52 52
23 17 20 21 21 22 21 27 23 28 20 21 24 27 24 24 24 24 28 33 41 45 48 50 50 49 48 45 44 44 45 46 47 48 50 51 52 53 53 52 52 51 52 55
22 24 20 20 20 20 23 23 28 27 26 19 21 22 29 28 27 22 26 32 40 44 45 47 49 50 49 48 47 47 47 48 49 49 50 51 51 51 53 54 54 53 55 56
23 24 21 22 24 25 23 23 28 23 28 29 25 24 29 29 29 24 22 32 39 42 44 46 47 47 48 48 48 49 49 50 52 53 52 52 52 51 52 54 55 56 56 57
27 24 21 21 22 24 24 24 23 28 32 28 25 25 29 29 29 29 25 27 34 39 40 43 45 46 48 48 48 49 50 50 52 53 53 53 54 53 54 55 56 57 57 57
36 25 22 19 20 21 23 24 25 24 24 27 28 25 27 28 28 28 27 26 29 34 37 39 41 43 46 47 49 49 49 51 52 53 53 54 54 56 56 56 57 57 58 57
31 24 24 23 21 25 26 25 26 25 24 22 24 28 28 29 28 28 26 26 25 30 34 38 40 43 45 46 49 49 51 52 54 54 54 55 55 55 56 56 56 56 54 52
36 27 26 22 23 24 25 26 28 27 28 25 26 27 30 30 29 29 28 26 24 25 29 37 42 48 50 50 51 52 53 53 54 53 53 51 52 51 51 50 49 48 47 47
36 32 28 24 27 28 26 27 26 28 30 29 25 27 28 28 28 28 27 27 27 25 27 35 41 48 51 51 52 52 51 52 52 51 49 49 49 48 47 46 46 45 45 44
36 35 30 25 27 24 28 31 30 29 30 31 30 28 26 26 28 27 28 27 27 27 28 32 42 50 51 51 51 50 50 51 50 49 49 48 47 45 45 45 44 43 43 42
38 36 32 29 24 25 28 30 29 30 29 32 30 28 26 22 24 22 29 26 26 29 32 42 49 51 51 50 50 49 49 49 48 47 47 46 45 44 44 43 42 42 41 41
37 36 33 32 26 23 25 26 29 31 27 31 27 27 27 26 22 21 26 31 30 36 47 49 49 49 49 49 49 49 48 48 47 46 45 45 44 43 43 41 41 41 41 41
32 33 31 32 30 28 29 31 32 29 28 32 31 28 29 28 27 26 31 37 41 45 49 50 49 48 48 48 49 48 47 47 46 45 44 44 43 42 42 41 40 40 39 37
26 28 28 30 28 27 34 33 28 32 34 35 36 32 32 32 31 31 32 40 44 47 49 50 49 47 47 47 47 46 46 45 44 43 42 41 41 40 40 39 38 36 34 32
25 28 24 28 28 31 38 36 39 39 37 36 36 36 38 37 36 36 39 43 46 48 49 49 48 47 47 46 45 44 42 42 42 41 40 40 39 39 38 37 34 32 31 30
24 34 31 31 32 35 35 40 42 41 39 38 36 35 36 36 37 39 41 44 45 46 47 46 46 45 43 43 42 41 41 41 40 39 35 33 32 31 30 30 30 29 29 28
24 31 31 31 33 37 37 38 36 39 41 38 37 36 37 38 38 40 41 43 44 43 43 44 43 41 40 40 40 40 39 36 32 30 29 27 26 24 22 23 24 24 25 27
33 33 30 23 26 32 30 32 36 37 40 37 38 38 37 38 38 40 40 42 42 42 40 37 35 35 34 35 33 33 32 30 28 26 25 24 21 19 19 19 20 23 23 24

GFSCGP_sfc_30mbdewp_078.txt.gz
Dewpoint
30 27 25 26 28 24 20 19 20 22 22 20 20 22 23 29 42 43 47 51 52 53 54 53 54 54 54 55 56 56 55 56 56 56 56 56 55 56 57 56 55 53 52 52
27 26 26 27 27 26 24 22 20 21 21 21 22 21 22 29 35 42 44 49 51 52 53 54 54 54 53 54 55 55 55 55 55 54 56 56 54 55 56 56 56 54 53 52
21 24 27 25 26 25 25 24 22 20 21 23 22 21 21 28 36 39 42 46 50 52 52 53 53 52 53 53 54 55 54 55 54 54 55 54 54 54 54 55 55 55 55 53
25 23 25 26 25 24 22 24 23 22 21 17 22 19 21 22 27 35 38 42 47 51 53 52 52 51 51 52 52 54 54 54 54 53 53 52 52 52 53 53 54 55 56 56
23 23 23 24 25 25 23 22 22 21 20 21 22 21 21 25 23 25 29 37 44 50 52 52 52 51 51 52 53 53 53 53 54 52 51 51 51 50 51 52 53 54 55 56
23 25 25 23 26 26 26 24 24 25 25 22 23 22 21 22 24 25 28 32 40 47 51 52 52 52 51 52 52 52 53 52 53 52 50 50 49 49 49 50 51 52 52 54
22 21 22 27 22 26 26 23 20 20 21 21 23 22 22 23 25 26 26 28 34 45 51 51 51 51 50 51 51 51 51 51 52 52 51 50 49 49 49 49 49 50 51 51
12 13 21 22 26 25 26 24 21 18 18 19 28 22 23 27 29 30 30 30 35 44 50 51 51 50 50 50 50 51 50 50 49 51 51 51 50 50 50 50 50 50 50 51
17 15 20 21 22 23 23 24 24 25 31 25 24 26 27 26 26 26 27 30 33 43 49 50 50 50 50 50 49 49 49 49 48 49 50 49 52 51 50 51 51 51 52 52
22 17 21 21 21 21 22 27 23 26 20 21 23 25 20 21 21 25 25 30 35 42 48 50 51 50 49 49 48 48 48 48 47 47 48 49 50 52 51 51 51 51 51 52
23 23 21 21 20 19 22 20 27 25 24 18 18 20 27 24 28 29 27 27 34 40 46 49 50 50 49 47 46 47 47 47 46 45 46 48 50 52 52 52 51 51 52 52
27 21 19 20 23 23 21 21 24 22 25 27 23 20 27 28 29 29 25 24 33 38 44 48 50 50 49 47 45 45 46 46 47 48 48 49 50 51 52 52 52 52 52 54
37 29 17 18 20 24 23 24 26 29 31 26 21 22 29 28 28 28 27 26 25 37 42 45 47 49 50 48 47 46 45 46 48 50 50 50 51 51 51 52 52 54 54 54
38 36 26 17 17 19 20 22 24 25 22 24 26 26 26 27 27 27 29 28 26 31 38 41 45 47 48 49 49 49 48 48 48 50 51 51 52 52 53 53 53 54 54 55
38 32 30 27 22 19 24 24 25 24 24 21 23 25 28 27 26 26 28 28 26 28 33 37 40 43 46 47 49 49 50 50 51 52 52 51 52 53 54 54 54 55 55 55
38 32 32 26 25 23 21 23 24 26 27 27 26 25 27 30 30 30 29 29 26 25 30 34 37 40 42 44 47 49 50 51 51 52 52 53 53 54 54 54 54 54 54 53
36 33 32 24 26 25 23 25 24 26 28 28 26 28 29 28 29 29 29 29 28 27 26 30 34 38 43 46 48 49 51 51 52 52 52 52 52 51 51 50 50 49 48 47
33 33 32 27 28 22 26 28 27 26 27 28 29 30 30 30 29 28 29 29 29 28 28 28 32 39 49 51 51 51 52 52 52 51 50 50 50 50 48 48 47 45 44 44
35 33 31 28 27 28 26 30 30 29 28 31 30 30 31 32 25 23 24 27 28 29 29 29 33 46 50 51 50 51 51 50 50 49 48 49 49 47 46 44 43 42 42 41
31 35 33 30 25 23 26 28 31 32 28 32 32 33 31 27 23 23 25 28 31 30 34 41 46 50 50 50 50 50 49 49 48 48 47 47 46 45 43 42 41 42 42 40
33 33 31 31 27 29 32 30 33 27 27 34 34 33 34 30 29 30 31 31 37 42 47 48 49 49 49 50 50 49 48 48 47 46 45 45 44 43 42 41 41 40 36 33
28 28 29 30 29 25 34 34 31 32 35 35 37 36 36 37 38 37 36 37 42 47 48 48 47 48 48 49 49 48 46 45 45 44 43 42 41 41 40 39 37 36 33 31
20 29 26 28 27 32 34 37 39 39 38 37 36 36 37 35 37 38 40 44 47 48 48 48 47 46 47 48 47 46 44 43 42 41 40 39 39 38 38 36 35 33 31 29
21 31 27 29 29 32 33 37 41 42 39 38 37 37 37 35 38 40 42 45 46 47 46 46 46 45 44 44 44 43 42 41 40 38 36 35 34 33 32 32 32 32 31 29
22 27 31 31 31 33 33 35 37 38 41 42 38 37 38 37 38 41 42 44 44 44 43 42 42 41 41 41 41 41 40 38 36 35 33 31 30 28 26 25 26 27 28 29
32 31 29 28 35 37 37 37 36 37 37 39 38 38 38 39 40 41 42 42 40 38 37 36 35 34 32 31 31 33 34 33 31 28 26 25 24 23 22 23 24 28 28 28

GFSCGP_sfc_30mbdewp_081.txt.gz
Dewpoint
32 28 27 27 27 22 22 19 17 19 22 21 19 19 19 25 39 41 44 48 51 53 53 53 53 53 54 55 56 56 55 55 56 56 56 56 56 57 57 56 54 53 51 50
28 27 28 27 29 27 22 20 18 21 22 22 19 20 22 25 29 38 42 46 49 52 53 53 54 54 53 54 56 56 55 55 55 56 56 56 57 57 56 57 55 53 53 52
21 26 28 27 26 27 26 24 23 21 22 22 21 19 22 25 33 38 43 44 49 50 52 53 53 54 53 54 55 56 55 55 55 56 57 56 56 56 55 54 53 54 53 52
24 23 24 26 23 25 21 25 25 24 22 16 23 16 21 22 24 31 38 44 47 50 52 52 52 53 53 53 55 55 55 55 55 56 55 54 53 53 54 53 52 50 55 53
24 24 22 22 25 26 22 25 24 24 22 21 15 17 21 25 24 24 27 39 44 48 52 52 53 52 52 52 54 55 55 55 54 54 55 54 54 53 52 53 52 54 55 54
22 26 25 20 23 27 27 24 24 26 23 18 18 20 21 22 24 25 27 31 41 46 50 52 53 53 51 51 52 53 54 54 54 53 54 53 53 53 53 52 52 54 55 56
16 19 24 25 23 27 25 24 19 21 21 14 23 23 21 25 25 25 26 27 36 45 49 51 52 52 51 51 51 52 53 53 54 53 53 53 53 53 52 53 53 53 54 55
12 10 21 24 22 23 25 24 17 11 16 15 25 22 21 27 28 30 31 31 33 43 48 50 51 52 52 51 51 51 53 53 54 54 52 51 52 52 51 52 52 53 53 53
12 11 17 22 25 24 26 23 23 22 30 25 24 26 27 27 27 27 27 28 31 40 47 49 51 51 52 51 52 52 52 52 53 53 53 52 51 51 51 51 52 52 53 52
23 17 20 20 22 23 24 27 23 23 16 16 22 24 19 22 22 26 30 30 31 38 46 49 50 51 51 51 51 52 52 52 52 52 53 52 52 52 51 52 52 52 53 53
26 23 22 24 20 19 20 22 26 24 23 15 17 21 27 24 25 29 30 30 30 40 45 49 50 50 51 51 50 50 51 50 51 51 51 52 52 52 52 52 52 52 52 52
36 30 19 19 23 23 21 20 22 23 25 26 22 20 26 28 30 30 28 28 27 35 44 48 50 50 50 50 49 49 49 49 50 50 50 51 51 52 52 51 51 52 52 52
31 32 23 18 17 18 20 23 22 21 27 24 23 22 28 29 29 30 28 30 30 31 43 48 50 50 50 49 48 48 48 49 50 50 49 49 50 50 51 50 51 52 52 52
31 32 32 24 23 26 16 22 25 24 23 21 23 24 26 28 28 28 29 30 30 29 38 45 48 50 50 49 48 48 48 49 49 48 48 49 49 49 49 50 51 52 53 53
34 23 26 32 31 32 30 22 21 24 26 23 23 24 25 27 28 28 29 30 29 28 30 39 44 47 49 50 49 48 48 48 48 49 48 48 50 50 49 50 53 54 54 54
32 30 33 30 31 31 29 26 21 25 24 25 27 26 28 28 29 29 28 31 30 29 28 31 37 42 47 48 50 50 49 49 48 48 49 49 49 50 51 52 54 55 54 54
26 32 30 24 31 32 26 25 23 22 25 25 23 26 29 28 28 29 30 30 31 31 30 28 33 37 41 44 49 50 50 51 50 49 49 50 51 50 51 53 54 54 54 53
27 30 31 26 31 23 26 30 27 25 25 29 29 29 29 29 30 32 32 32 31 31 31 30 30 32 40 46 47 50 50 51 51 51 51 52 53 53 51 51 51 50 48 47
30 27 29 27 27 29 30 31 31 28 26 29 29 29 30 30 31 30 29 27 28 31 32 32 32 35 47 49 51 51 51 52 52 52 51 51 51 50 49 48 47 45 43 43
29 28 31 30 25 20 27 31 33 33 27 33 33 33 33 28 27 29 33 37 35 35 34 32 35 44 48 50 51 51 51 51 50 50 50 50 50 48 46 44 42 42 41 38
30 31 28 28 27 27 31 33 35 26 27 35 36 35 34 34 34 37 39 40 41 45 46 48 48 48 49 50 51 50 50 48 48 47 47 46 45 44 42 42 41 38 35 33
29 28 28 29 27 24 34 35 30 34 38 38 37 37 38 39 39 40 41 45 47 48 48 48 49 49 49 50 50 49 47 46 45 44 43 42 42 41 41 38 36 34 33 31
19 29 28 30 28 32 35 35 38 41 40 38 39 40 39 39 40 41 41 46 47 47 46 47 47 47 48 48 47 45 44 44 42 41 40 39 39 38 37 36 34 32 32 30
22 29 27 27 28 32 31 36 38 39 39 42 42 40 39 40 40 40 44 45 45 46 45 45 44 43 43 44 44 43 43 42 40 38 37 36 35 33 33 33 33 32 31 29
23 25 26 29 30 33 31 35 38 39 40 39 40 40 39 39 41 43 44 43 42 42 43 43 42 41 40 41 40 40 40 39 37 35 33 31 30 29 28 28 28 29 29 29
32 30 29 26 36 37 36 37 39 39 40 40 40 39 40 42 42 41 38 37 36 36 35 34 33 31 31 32 33 34 35 34 31 29 28 27 26 26 26 25 25 29 29 29

GFSCGP_sfc_30mbdewp_084.txt.gz
Dewpoint
19 21 18 17 20 19 18 19 18 17 19 19 16 15 13 13 23 29 34 38 43 45 48 51 53 54 54 54 56 56 55 56 56 57 56 56 55 55 56 54 53 51 44 45
20 19 17 19 22 24 22 19 17 17 18 20 18 15 13 13 21 25 28 36 40 45 49 51 53 54 54 54 55 56 55 55 56 56 57 56 56 56 55 54 53 52 51 46
20 17 19 22 25 24 22 20 18 17 19 20 20 18 16 9 21 28 32 33 38 43 48 51 52 53 55 54 54 56 55 55 56 57 57 57 56 57 56 54 53 52 52 48
24 23 21 21 23 21 18 19 20 19 18 15 19 12 10 17 20 23 28 36 37 41 45 51 52 53 54 54 54 55 56 55 55 56 56 55 53 52 54 54 54 54 53 51
21 24 22 23 22 22 19 20 17 19 20 20 19 17 11 12 17 18 20 29 36 40 45 49 52 53 54 53 53 55 56 55 55 56 56 55 54 52 54 52 51 52 54 53
21 25 25 23 20 22 24 23 23 23 21 18 19 15 12 13 20 21 21 23 31 38 43 48 51 53 53 53 52 54 55 55 55 55 56 55 54 54 53 52 50 47 49 50
1 13 19 23 19 21 23 20 17 18 19 16 16 15 14 19 22 22 21 23 29 36 42 47 50 52 52 52 52 53 54 54 55 55 55 54 54 54 53 51 49 47 46 46
4 -2 5 11 16 15 22 21 17 14 14 16 18 16 16 22 22 23 25 27 31 36 41 46 49 51 52 52 52 52 53 53 55 54 54 55 54 54 53 52 51 49 49 50
10 8 12 13 12 11 17 19 21 19 18 21 18 21 24 24 24 25 25 24 28 31 39 44 48 51 52 52 52 52 52 53 53 54 54 54 54 54 54 52 52 51 52 51
20 15 15 15 20 17 13 18 19 20 16 14 14 18 18 21 22 22 25 28 30 30 36 43 46 50 52 52 52 52 53 53 53 54 54 54 53 53 53 53 52 52 53 53
28 21 19 23 19 17 19 20 20 19 18 14 12 14 21 21 22 24 26 28 30 33 37 42 45 48 51 52 52 52 52 51 51 52 54 53 53 53 52 53 53 53 54 53
33 31 19 17 21 22 20 19 20 19 13 20 19 17 25 27 28 29 27 30 29 36 40 43 45 47 49 51 51 52 51 50 51 52 52 53 53 53 53 53 54 55 54 53
28 32 23 18 19 19 19 20 21 20 21 21 22 20 22 22 24 26 29 29 29 31 38 43 46 46 48 50 50 50 51 50 51 52 52 53 53 53 54 54 54 54 53 52
25 22 27 24 27 30 27 26 22 21 21 20 19 19 22 24 24 24 27 28 28 30 35 42 45 46 47 48 50 50 50 50 51 51 51 52 53 53 53 53 53 52 51 51
27 20 17 19 22 23 24 27 27 23 20 21 21 19 19 20 23 24 26 28 29 28 30 36 43 46 47 48 49 49 50 50 51 50 50 50 51 52 51 52 52 51 51 51
27 28 29 27 25 24 26 25 26 25 23 20 20 21 23 25 25 26 26 27 29 28 30 31 36 43 47 48 49 49 49 50 50 50 49 49 49 50 50 50 50 50 51 51
27 26 27 21 24 26 21 26 28 24 24 22 22 22 24 24 24 25 26 27 29 30 32 33 32 36 44 47 49 49 49 50 50 50 50 49 49 49 49 49 49 50 53 54
25 24 29 21 25 19 25 35 35 28 24 23 22 23 23 23 24 27 31 31 31 33 31 32 32 34 37 44 48 49 49 49 50 49 49 50 50 50 49 49 49 52 54 54
27 25 24 20 21 23 31 30 36 33 26 24 22 23 25 27 29 29 32 37 38 38 36 35 35 34 37 40 43 48 48 49 49 49 49 49 50 50 51 53 53 50 47 45
24 27 23 21 23 15 23 30 37 33 30 33 33 33 33 32 29 30 39 41 42 43 44 45 46 38 40 46 46 46 47 48 49 50 50 52 53 52 52 49 45 43 42 39
24 25 23 21 26 23 31 34 36 32 35 39 38 35 35 35 37 39 41 43 45 46 47 48 48 46 44 48 49 48 49 50 51 52 52 51 51 48 45 43 41 38 36 34
27 22 23 23 26 21 32 31 31 38 40 39 41 38 40 38 36 37 42 45 46 47 47 48 49 48 49 50 50 50 50 49 48 47 45 43 43 42 40 38 36 34 33 31
16 32 31 28 24 30 30 33 37 37 38 38 39 40 40 38 36 38 44 46 47 47 46 47 47 47 48 49 49 45 44 44 43 42 40 40 39 38 37 36 34 32 31 30
20 26 26 24 28 29 32 36 38 38 38 39 40 37 39 39 38 41 45 45 46 45 45 44 43 42 42 43 43 43 42 41 40 38 37 36 35 34 34 34 33 32 31 29
20 25 21 21 23 30 25 35 37 37 37 37 39 39 40 40 40 43 44 43 43 43 42 40 39 39 38 40 41 41 39 38 35 33 32 31 30 29 29 29 30 29 30 29
25 28 25 24 36 35 34 35 36 36 35 33 35 40 41 43 42 40 38 37 37 36 35 34 34 33 33 33 34 36 36 35 33 30 30 29 28 27 27 26 26 29 29 29

GFSCGP_sfc_30mbdewp_087.txt.gz
Dewpoint
12 -0 10 13 13 13 17 15 14 18 19 18 18 19 18 16 12 13 23 25 31 38 41 46 50 51 52 53 55 56 56 56 58 57 56 55 54 54 54 53 54 54 52 49
11 6 10 17 15 16 18 16 17 18 19 19 18 19 18 18 17 13 15 22 29 36 41 46 50 52 53 53 54 55 56 56 57 57 56 55 54 53 53 52 51 48 48 47
17 16 15 16 17 21 18 19 20 18 19 19 19 19 19 19 20 18 13 21 24 32 41 46 50 52 54 53 53 54 55 55 57 58 57 55 54 55 54 53 50 48 46 45
17 17 19 18 17 19 19 22 20 18 18 16 18 15 18 18 14 13 14 23 24 28 39 46 50 52 53 54 53 55 55 55 56 58 56 54 51 51 51 50 47 52 51 48
16 19 19 20 19 17 20 20 20 19 16 17 17 15 17 19 16 15 19 23 26 29 37 44 49 51 53 54 53 55 55 55 55 56 56 55 52 51 50 50 49 50 53 53
21 22 22 18 21 24 24 20 20 19 17 17 19 19 18 18 15 19 20 19 21 27 35 42 48 50 52 53 53 55 55 55 55 56 56 55 54 51 52 51 51 52 53 53
14 12 20 22 21 23 22 20 18 18 18 17 18 17 18 18 19 19 19 20 22 26 33 40 47 49 51 52 52 55 54 54 55 55 55 56 54 53 53 51 51 50 51 52
4 0 -1 14 17 18 20 20 18 15 16 18 19 16 16 18 19 18 21 22 25 29 33 39 45 49 51 52 52 53 53 54 55 55 55 55 55 52 53 54 51 49 49 51
9 7 7 -0 6 13 14 18 20 17 19 20 21 20 21 21 21 22 22 22 24 25 31 37 43 49 50 52 52 53 53 54 55 55 55 55 55 55 53 53 53 50 48 47
21 16 13 9 12 7 7 4 12 15 13 14 14 14 14 19 21 22 22 24 25 23 27 37 41 48 50 51 52 52 53 53 54 55 55 55 55 55 55 54 53 51 49 48
27 22 18 16 14 13 11 8 12 16 16 12 12 11 19 20 21 21 25 27 28 29 27 34 41 46 50 51 52 52 52 52 53 54 55 55 55 56 56 55 54 54 52 51
31 30 20 17 17 18 16 14 13 14 15 14 14 15 19 23 23 25 25 29 30 33 32 34 40 44 49 50 51 52 51 50 52 54 54 55 55 55 55 56 55 55 54 53
23 28 21 18 17 19 18 19 19 18 18 17 17 17 20 19 27 26 24 27 29 31 37 38 41 43 47 50 51 51 51 50 51 52 54 55 55 54 55 55 56 55 55 54
24 18 18 19 26 25 21 18 20 19 18 18 18 17 19 23 22 23 25 27 27 28 32 37 41 43 45 48 50 51 51 51 51 50 51 53 55 55 55 55 55 55 55 54
21 19 16 15 14 16 21 21 22 21 21 20 19 18 18 18 18 25 24 25 27 26 26 31 39 42 44 46 49 51 51 51 51 50 51 52 54 54 54 55 55 55 55 55
29 23 23 20 19 18 17 19 19 20 20 21 21 20 19 21 22 24 21 22 25 26 27 30 32 39 44 45 47 50 51 52 52 51 51 51 53 52 54 54 54 55 54 54
26 25 25 20 16 23 20 17 19 23 27 25 19 19 21 20 23 25 25 25 25 27 29 31 32 32 37 44 46 47 49 51 52 51 51 51 51 51 52 52 52 53 53 53
27 24 26 22 19 13 14 29 31 32 32 33 29 22 20 21 23 25 24 26 31 32 33 34 32 34 34 37 45 48 48 49 51 51 51 51 51 50 50 50 50 51 52 53
26 25 27 22 17 15 15 22 25 27 27 35 34 20 19 20 21 23 26 33 36 38 39 41 41 41 36 35 37 45 47 48 49 50 50 50 50 50 50 50 50 51 54 51
24 25 24 21 17 15 27 28 35 34 30 40 40 36 30 32 30 34 38 41 41 42 43 45 46 45 42 38 40 40 47 47 47 49 49 49 50 50 50 52 52 49 46 41
22 25 23 21 17 21 31 32 36 29 33 38 41 41 43 34 35 38 39 40 42 44 45 46 47 47 47 44 45 43 44 46 48 49 49 50 51 52 51 47 43 40 36 35
24 24 25 22 17 19 30 32 33 37 41 41 44 43 42 44 35 35 40 42 45 45 46 47 48 48 49 49 48 47 49 50 50 48 46 45 44 43 41 39 37 36 34 31
25 27 26 20 20 36 31 37 36 37 37 37 38 39 40 39 36 36 41 44 46 46 46 47 45 45 45 47 47 45 45 45 43 41 40 39 38 38 37 36 34 32 31 30
20 31 34 32 34 36 32 37 35 34 35 35 36 39 39 38 36 37 43 44 45 44 44 44 42 40 40 42 42 42 41 39 37 35 34 34 33 33 34 33 33 31 30 28
23 27 21 20 33 32 37 35 35 35 35 34 35 39 39 42 43 43 42 41 40 38 38 38 37 36 35 38 39 38 37 36 34 33 32 30 30 29 28 28 29 28 29 28
31 32 28 32 34 34 32 35 34 33 34 33 33 33 35 38 38 37 34 33 33 33 33 32 32 33 32 32 32 36 35 34 32 30 30 29 28 27 26 25 26 28 28 28

GFSCGP_sfc_30mbdewp_090.txt.gz
Dewpoint
8 8 3 4 12 16 18 18 19 20 21 17 18 20 19 19 20 18 22 23 24 28 38 45 48 51 51 56 56 55 55 57 58 56 55 54 53 54 55 55 54 54 54 53
17 8 5 1 8 14 14 15 16 20 22 18 18 19 19 19 20 20 18 16 23 26 35 44 50 51 52 55 56 56 56 57 57 56 55 54 53 52 53 54 54 52 53 53
21 17 10 8 1 7 16 18 17 22 24 21 20 18 19 20 20 21 21 20 16 25 35 44 50 52 53 55 55 56 55 56 57 56 55 54 53 52 51 52 53 52 53 54
21 18 13 15 14 8 13 19 22 25 26 25 21 17 19 19 20 21 21 22 19 21 34 43 49 52 53 54 55 55 55 56 57 56 54 52 50 49 50 49 49 49 51 50
18 16 14 14 14 17 15 19 23 29 28 23 20 18 17 19 17 19 19 19 19 25 27 43 48 53 53 54 55 55 55 56 57 55 54 51 50 50 52 51 49 47 48 49
17 18 18 15 18 17 21 19 23 25 25 24 22 18 16 18 20 20 17 18 24 27 30 42 48 52 53 54 54 55 55 55 57 56 54 52 50 51 51 49 48 49 48 50
9 14 18 21 20 20 20 21 18 22 23 22 20 17 19 20 21 20 19 21 22 26 31 38 49 50 52 54 53 54 54 54 55 56 55 52 51 51 51 49 47 47 49 52
9 7 13 18 19 18 18 22 17 15 23 28 29 22 18 20 20 20 20 21 22 26 33 38 48 50 51 54 54 53 54 54 55 56 56 54 52 52 52 49 48 48 49 49
13 9 8 6 10 18 19 19 20 19 21 21 24 27 27 23 18 21 21 21 24 27 31 34 46 50 51 54 54 54 53 54 55 55 55 56 55 52 51 50 50 51 51 51
20 19 17 7 2 8 15 21 19 20 15 11 13 17 20 22 20 21 22 22 24 25 28 34 41 50 51 53 54 54 53 54 54 55 55 55 55 54 52 53 50 51 50 50
30 22 18 14 6 7 4 5 9 9 11 11 13 19 26 29 28 22 24 28 29 30 29 35 40 50 51 53 54 54 54 53 54 54 55 55 55 55 53 53 54 51 50 49
30 29 24 17 15 14 13 8 7 10 12 17 16 17 19 19 25 26 25 29 31 30 33 33 39 50 50 52 53 53 53 53 54 54 55 55 55 55 55 53 54 54 52 50
23 22 22 18 17 19 18 17 14 12 14 15 17 19 21 27 26 26 25 27 31 32 36 34 39 46 50 52 52 53 53 53 53 54 54 55 55 55 56 56 55 54 53 52
22 20 18 18 26 25 24 25 16 17 18 17 17 16 18 21 26 31 32 27 28 29 34 37 39 42 48 51 52 52 53 52 52 55 54 54 55 55 55 56 56 56 55 54
22 18 17 15 13 13 14 15 22 21 18 18 20 19 19 20 20 22 26 28 28 27 27 33 38 42 45 49 51 52 53 52 52 53 55 55 55 56 55 55 55 56 56 55
27 27 22 20 18 17 14 14 15 18 18 17 18 18 20 21 21 22 24 25 22 26 26 28 31 38 43 45 50 52 52 53 52 52 52 54 56 56 55 55 55 55 56 56
27 26 24 21 20 18 17 19 15 13 17 17 22 28 29 28 24 22 23 27 26 27 28 32 33 33 37 44 47 50 52 53 53 52 52 52 53 55 55 56 56 55 55 55
26 25 26 24 22 15 16 16 27 22 25 27 26 27 29 40 30 23 28 29 26 34 37 38 40 41 41 38 45 48 51 52 53 52 52 52 52 54 54 54 54 55 55 55
26 24 27 22 18 18 18 17 21 24 25 37 39 40 42 43 29 24 35 36 39 40 42 43 44 45 45 44 40 46 48 50 52 52 52 52 52 52 53 53 54 54 54 55
25 25 25 24 19 14 24 35 34 31 26 38 39 40 41 42 33 40 40 41 41 43 44 45 46 46 47 46 41 41 47 48 49 51 52 52 52 52 52 52 52 49 45 41
23 27 25 24 22 20 26 36 39 28 31 39 41 41 43 41 41 45 49 40 43 44 45 47 48 48 48 49 49 46 48 49 48 50 51 51 51 51 48 45 42 41 38 35
26 25 26 24 20 19 36 33 34 36 37 37 37 40 42 44 43 42 44 45 45 45 46 46 46 45 45 47 49 47 46 47 46 45 44 43 43 42 41 40 37 35 34 31
27 26 27 25 23 36 39 37 33 34 35 34 35 36 43 44 42 43 48 47 44 43 43 43 42 41 41 41 43 44 42 42 40 39 39 38 38 37 37 36 35 33 31 29
30 28 31 29 30 36 39 37 34 34 35 34 34 35 37 40 44 43 41 40 38 37 36 36 36 34 34 37 37 37 37 36 36 35 33 33 32 33 33 33 32 31 29 28
32 35 31 32 34 37 38 35 34 33 33 33 33 34 35 37 37 36 34 34 33 33 33 33 33 33 33 34 34 35 34 33 31 31 30 29 29 28 28 28 28 28 29 28
35 33 33 32 33 34 35 33 32 32 33 33 32 33 34 34 33 33 31 30 30 30 31 31 31 31 32 33 33 33 33 32 30 28 28 28 27 26 26 25 25 28 28 28

GFSCGP_sfc_30mbdewp_093.txt.gz
Dewpoint
12 9 10 12 16 20 20 20 20 20 18 18 20 22 23 21 19 19 22 21 21 23 39 46 50 52 56 56 56 55 56 58 57 56 55 55 54 55 55 57 58 59 60 60
10 9 9 10 9 9 11 14 14 15 16 18 19 24 28 27 20 20 21 23 23 24 40 48 50 55 56 55 55 55 56 58 56 56 55 54 54 54 54 55 55 56 57 57
16 21 16 10 8 4 2 7 14 17 20 25 28 26 27 26 22 21 21 22 22 24 40 49 49 53 55 55 55 55 56 57 56 56 54 53 53 53 52 52 53 54 55 56
26 26 23 18 8 9 3 2 6 14 23 23 29 26 29 29 24 21 21 21 22 21 44 49 50 53 55 55 55 55 55 57 56 55 53 52 51 50 51 51 51 53 54 54
20 22 21 20 17 16 12 10 9 25 24 27 28 29 29 25 21 21 20 21 22 22 46 50 51 53 55 55 55 55 55 57 55 54 53 51 50 50 51 51 51 52 53 53
16 18 17 17 19 20 19 19 23 26 26 26 29 28 27 24 23 21 21 21 24 24 46 50 52 53 54 55 54 55 55 56 55 54 52 50 49 49 49 49 50 50 50 50
12 12 13 17 16 20 21 19 19 21 22 22 23 26 28 26 24 21 20 22 24 25 44 50 52 53 54 54 54 55 55 56 55 53 52 50 51 50 50 48 49 48 48 49
9 8 10 11 14 19 20 20 20 18 21 26 27 28 30 32 34 23 22 23 24 29 44 50 52 53 53 54 54 54 54 55 56 54 52 50 51 51 50 48 49 48 47 47
14 13 21 9 10 21 20 19 22 22 22 21 24 23 27 31 29 25 21 21 24 32 43 49 51 53 53 53 53 54 53 54 56 55 53 51 51 51 50 49 48 49 49 49
22 19 23 19 13 18 18 21 19 22 18 14 16 14 23 26 30 31 25 23 27 32 41 49 50 51 54 53 53 53 53 53 54 56 55 53 51 51 51 49 48 48 48 49
32 28 23 21 6 4 11 14 19 18 21 17 14 16 27 26 29 33 34 30 30 30 32 43 50 51 54 54 53 53 53 53 54 55 55 55 53 52 51 51 49 50 51 51
24 29 24 24 25 25 11 7 9 9 11 14 15 14 30 25 34 35 39 40 30 30 32 38 49 51 53 53 53 53 52 53 54 54 54 55 55 54 52 51 51 50 51 51
22 22 22 18 21 30 29 16 13 11 11 10 13 16 20 21 30 34 37 41 36 34 34 40 50 51 53 53 53 53 53 52 53 53 54 55 55 55 54 53 53 51 51 50
23 21 19 18 19 24 20 19 20 27 18 13 12 11 15 20 29 33 36 36 29 32 32 41 50 50 52 53 53 53 53 53 53 54 54 54 54 55 55 53 53 54 53 51
25 19 20 20 19 17 17 15 15 13 28 27 25 22 20 23 28 28 27 26 27 31 30 35 44 49 52 52 53 53 54 53 53 54 54 53 53 53 55 55 54 53 54 53
30 26 27 24 24 22 19 19 17 16 15 17 20 18 30 32 32 37 39 33 25 27 28 33 36 45 51 52 52 53 53 53 53 54 54 54 54 54 55 55 56 55 55 54
27 28 26 23 25 24 20 19 18 18 18 16 18 34 40 40 41 41 42 41 33 35 40 42 42 43 44 47 52 52 53 53 53 52 55 54 54 54 54 55 55 56 56 56
26 27 26 25 23 17 21 20 21 28 35 37 38 39 40 40 41 42 45 39 41 43 44 45 46 46 46 46 45 45 53 53 52 52 52 54 55 55 55 55 54 54 55 55
27 27 25 23 22 21 19 32 35 35 36 38 37 38 39 41 41 42 44 47 44 46 47 47 48 48 48 48 50 48 47 53 53 52 52 52 54 55 55 55 55 55 55 55
26 28 25 24 21 16 27 34 37 32 31 38 39 40 40 39 38 40 44 48 46 46 46 46 46 45 45 45 48 49 48 50 53 53 53 53 54 53 54 54 54 50 50 43
25 26 23 23 24 23 36 36 38 29 32 36 38 39 41 39 42 45 47 46 45 43 43 43 42 41 41 41 46 44 44 44 45 44 53 54 54 54 52 49 45 41 38 35
25 27 25 25 24 20 38 36 33 35 35 35 35 36 42 43 46 48 46 41 40 39 39 39 39 38 39 38 40 39 38 40 42 41 41 42 44 43 43 42 39 38 36 33
27 27 26 26 26 38 39 36 35 36 34 33 34 35 37 39 40 40 39 37 35 35 35 36 36 36 36 37 36 35 35 36 37 37 36 36 37 39 39 37 34 33 32 31
33 36 32 29 35 39 38 37 34 34 34 33 34 35 35 36 34 34 34 33 33 33 32 34 34 34 34 35 35 34 33 32 31 30 30 31 31 30 31 32 33 32 30 29
35 36 35 35 37 35 33 33 33 33 34 33 33 34 33 32 32 32 30 30 30 30 31 31 30 30 30 32 33 33 32 30 28 28 27 27 27 27 27 27 27 27 28 29
34 31 30 29 32 34 31 31 31 31 31 33 32 32 30 30 29 28 27 27 27 27 28 28 28 28 28 29 30 32 32 29 28 27 26 25 24 25 25 24 25 28 27 28

GFSCGP_sfc_30mbdewp_096.txt.gz
Dewpoint
15 11 12 16 22 24 25 23 23 21 22 19 17 17 18 24 28 27 27 23 20 18 31 49 54 56 56 56 56 56 56 57 57 57 56 55 56 56 58 59 61 61 61 60
12 10 10 13 15 15 16 16 18 18 17 16 15 18 24 26 26 27 28 26 23 22 42 50 53 56 56 55 55 55 56 56 56 56 56 55 55 55 56 57 58 61 61 60
11 12 11 11 10 9 8 7 8 10 13 20 24 20 20 22 28 30 30 28 24 23 42 49 53 55 55 55 55 55 56 56 56 56 55 54 54 53 53 54 55 57 60 59
25 22 12 16 9 9 7 8 5 4 5 7 26 16 19 22 25 28 29 28 25 23 41 49 53 54 54 54 55 55 56 56 55 55 54 53 52 51 52 52 53 55 58 59
18 25 26 25 25 15 10 11 9 5 11 24 28 22 19 28 27 28 28 27 24 23 38 49 52 54 54 54 54 55 56 55 55 54 53 52 52 51 52 51 52 53 55 56
16 17 16 18 19 19 20 18 20 24 24 21 26 23 16 25 26 27 27 26 26 24 39 48 52 54 54 54 54 55 55 54 55 54 53 52 51 51 51 51 51 52 54 54
15 15 16 14 13 16 18 18 15 18 20 19 23 24 22 27 28 29 29 29 29 28 35 48 52 53 54 54 54 54 55 53 54 54 52 51 50 51 51 51 51 51 52 53
11 10 12 14 14 15 17 19 15 14 17 18 27 25 28 32 32 32 33 33 32 31 44 49 52 53 54 54 54 54 54 53 54 53 52 50 50 50 50 50 50 50 51 52
11 9 14 10 12 15 16 18 22 19 23 21 23 25 24 29 35 37 38 35 29 28 43 50 52 53 53 53 54 54 55 53 53 53 52 50 51 50 50 50 50 49 49 50
20 19 22 23 12 15 18 21 19 19 16 16 18 17 16 27 36 38 38 38 38 39 48 50 52 53 53 54 54 54 54 54 53 53 52 50 51 51 50 49 49 49 48 49
29 28 22 25 10 10 13 15 21 22 22 18 16 16 35 37 39 39 37 37 38 37 47 51 52 52 53 54 54 53 53 54 53 54 53 51 50 51 51 49 49 49 49 49
27 30 24 23 29 29 22 15 20 20 20 21 21 20 32 33 41 38 37 39 41 41 35 49 51 53 53 53 53 53 53 53 55 55 54 52 51 51 51 50 49 50 49 50
24 23 22 17 27 30 30 29 22 26 18 14 12 15 23 28 33 36 40 41 40 39 35 38 50 52 53 53 53 52 53 53 53 55 55 54 53 51 51 51 50 49 51 50
25 21 20 17 18 23 24 30 21 23 25 23 22 18 23 30 29 37 39 41 39 35 33 45 50 52 53 53 53 52 53 53 53 53 54 54 55 54 52 51 51 50 50 50
28 19 25 26 23 21 18 23 22 18 21 22 28 27 30 35 36 40 41 41 37 35 34 42 50 51 53 53 53 53 53 53 54 54 52 52 54 55 55 53 52 52 51 51
30 25 27 23 24 24 22 23 21 20 18 19 22 23 40 40 40 41 44 42 36 39 44 44 46 51 53 53 53 54 53 53 53 52 51 52 52 54 55 54 53 53 53 52
27 28 25 21 25 22 18 19 21 20 36 33 25 37 39 39 40 43 46 45 44 45 47 47 47 47 49 51 54 54 54 54 53 53 53 53 53 52 53 55 54 53 53 53
26 26 27 24 20 12 20 31 35 36 37 37 36 38 39 39 41 44 46 45 46 46 46 45 45 45 45 47 50 50 54 54 54 54 54 54 54 53 52 53 53 55 55 54
29 27 24 20 22 20 24 31 32 30 34 38 37 39 40 39 41 41 47 45 44 44 44 43 43 43 43 45 46 46 47 52 54 53 53 55 54 54 54 53 54 55 55 55
28 27 22 24 19 16 30 35 35 36 31 35 37 37 39 40 36 40 46 45 43 42 42 42 41 40 40 41 43 43 43 43 44 45 47 52 55 55 54 54 54 55 55 54
26 26 24 24 22 23 35 38 38 24 29 35 36 37 40 38 38 40 39 38 39 38 38 39 39 38 38 38 40 39 39 39 41 42 42 46 48 53 55 55 53 49 46 41
26 25 25 25 22 18 36 36 30 34 37 34 35 37 40 40 41 40 37 36 35 34 36 36 36 35 35 35 37 36 35 36 37 37 36 36 39 42 43 44 41 40 38 35
28 28 26 25 25 37 38 34 35 34 33 33 35 36 36 35 35 36 35 34 33 32 32 33 34 33 33 34 33 33 32 33 32 31 31 32 32 33 35 37 36 34 34 32
36 36 32 32 36 36 35 34 34 34 33 34 33 33 33 33 32 32 31 30 31 30 30 30 31 30 31 32 32 31 31 30 29 29 28 28 28 28 30 30 31 31 31 30
33 34 32 33 33 33 32 31 32 32 33 33 31 31 30 30 29 29 28 27 28 28 28 28 29 29 29 31 31 32 30 29 27 26 26 27 26 26 26 27 28 27 28 29
33 30 29 27 30 33 30 30 30 30 31 30 30 29 28 28 27 26 25 25 25 25 26 26 27 27 28 29 29 30 29 28 26 25 24 24 25 25 25 25 26 29 29 29

GFSCGP_sfc_30mbdewp_099.txt.gz
Dewpoint
15 11 10 16 22 21 22 23 23 22 23 20 20 20 20 19 20 24 25 26 27 27 27 36 48 55 56 57 57 57 56 57 57 56 56 56 57 58 59 61 62 61 62 59
12 11 12 16 20 20 20 21 20 20 21 21 20 17 15 18 23 25 26 28 29 29 35 48 54 56 56 56 56 56 56 57 57 57 56 56 56 56 57 58 60 61 61 59
18 15 14 11 13 13 13 14 12 14 12 12 14 11 16 23 23 25 26 28 28 29 30 48 54 55 55 55 55 55 56 55 56 56 55 54 54 54 54 55 57 59 61 60
22 18 13 11 9 10 6 9 8 6 5 2 17 4 8 17 19 23 27 28 26 29 31 45 53 54 55 55 55 55 55 54 55 55 54 53 52 52 53 53 55 56 59 60
21 23 22 13 13 11 9 12 10 9 7 5 10 19 15 24 23 21 22 27 29 29 28 43 52 54 55 55 55 55 55 54 55 54 54 53 52 52 53 53 53 55 56 59
17 18 17 23 22 24 21 16 17 17 13 11 14 22 14 16 22 25 27 29 36 30 28 41 50 54 54 54 54 54 54 54 54 54 53 52 52 52 51 52 52 53 54 57
10 11 16 16 14 15 17 16 17 18 22 17 22 24 19 23 25 29 35 39 39 36 32 39 51 53 53 53 53 54 54 53 53 53 53 53 52 52 51 51 52 52 53 53
11 6 12 13 13 12 14 16 16 14 14 14 25 23 22 31 35 38 39 40 39 38 38 40 50 53 53 53 53 54 53 53 53 52 52 52 52 52 51 51 52 53 53 53
10 10 13 13 13 13 13 16 19 16 22 19 23 25 25 31 38 39 40 40 39 39 40 42 51 53 53 53 53 54 53 53 52 52 52 51 51 51 51 51 51 51 53 54
16 12 20 23 14 14 13 17 17 21 17 15 17 19 18 29 38 39 38 40 40 39 40 45 51 53 53 53 53 54 53 52 52 52 51 50 50 51 51 51 50 50 51 53
24 22 17 22 15 11 15 16 18 19 20 16 15 16 34 32 35 39 41 41 41 41 39 50 52 53 53 53 53 54 53 53 52 52 52 50 51 50 50 50 50 49 49 50
30 30 21 18 29 32 16 18 22 19 18 22 21 20 33 30 38 39 40 43 42 42 39 39 51 53 53 53 53 53 54 53 52 52 52 50 51 50 50 50 50 49 49 50
33 29 23 22 28 27 29 29 23 26 21 19 18 20 29 29 31 39 42 43 42 43 42 41 51 52 53 53 53 53 54 53 53 52 52 51 51 51 50 50 49 50 49 49
37 31 27 20 19 24 21 25 28 23 23 21 21 22 28 35 35 40 40 41 44 41 45 46 47 52 53 53 53 53 53 54 54 52 52 52 51 51 51 51 50 49 50 50
35 27 29 27 24 22 23 21 25 21 21 20 23 22 32 38 39 40 42 44 44 41 46 47 50 53 53 53 53 53 53 53 54 53 53 52 52 52 51 51 51 50 50 50
33 29 28 25 24 22 21 22 22 22 21 22 25 24 39 40 41 43 45 44 43 45 46 45 46 48 52 53 53 53 53 53 53 53 53 53 54 54 53 52 51 51 50 50
26 27 24 19 25 20 18 23 23 33 35 34 29 36 39 39 42 44 45 45 45 45 44 43 44 44 45 47 50 54 54 54 54 54 54 53 53 54 54 54 53 52 51 51
26 26 26 21 22 10 24 36 33 35 36 37 37 37 39 38 44 45 44 43 43 42 43 42 42 42 43 45 46 47 53 55 54 54 53 53 52 52 53 54 54 53 53 52
31 27 22 19 21 19 29 32 33 33 32 36 36 37 39 41 41 39 40 41 41 42 42 41 41 40 40 42 42 43 44 49 53 50 53 54 54 53 53 53 54 54 53 53
30 28 23 24 19 14 29 35 37 37 30 35 36 38 38 38 34 36 39 38 38 38 38 39 38 37 37 38 40 41 41 42 42 42 43 45 49 54 54 53 53 53 54 54
26 26 23 22 22 22 32 36 37 25 27 35 36 39 40 37 37 39 39 37 35 35 35 36 35 35 34 35 37 36 36 36 38 38 38 39 40 44 47 54 54 54 54 50
26 24 23 24 22 16 35 35 26 33 37 34 36 37 37 38 38 37 36 35 34 33 32 33 33 33 33 33 34 32 31 33 33 33 34 33 34 36 39 40 39 40 40 38
27 30 26 25 25 35 35 34 35 35 33 34 34 35 35 33 33 33 32 32 31 31 31 31 31 32 32 33 31 30 29 30 30 29 29 29 31 32 33 34 34 33 33 32
32 37 33 32 35 34 35 33 32 34 33 32 32 31 32 31 31 30 28 28 28 28 28 29 30 29 29 31 31 30 29 28 27 27 27 27 28 28 30 31 32 30 29 27
31 33 31 30 31 33 31 31 31 33 31 30 29 28 28 29 27 27 26 25 26 26 27 28 28 28 28 29 29 28 28 27 25 25 26 26 26 27 27 28 29 29 30 29
31 28 27 27 30 31 31 29 31 28 27 27 28 27 26 26 25 25 24 24 24 24 25 25 26 27 27 28 27 27 26 26 25 25 25 25 25 25 26 25 26 29 30 30

GFSCGP_sfc_30mbdewp_102.txt.gz
Dewpoint
16 14 12 16 20 22 21 21 22 23 24 22 22 22 21 22 20 17 19 22 24 26 28 31 40 34 51 56 57 57 57 57 57 57 57 58 58 58 59 60 61 61 61 59
13 12 12 13 19 21 21 21 21 21 21 22 21 20 19 16 14 15 17 24 26 27 28 31 46 51 53 56 56 57 57 57 57 57 58 57 57 56 58 60 61 61 61 59
13 14 14 11 14 17 19 19 17 18 15 9 8 5 7 12 17 23 25 26 28 28 27 28 41 52 54 55 56 56 56 57 57 57 56 55 55 55 56 57 58 60 61 59
19 20 15 12 12 15 13 14 15 13 7 1 14 4 6 9 11 18 21 25 25 29 36 31 35 50 54 55 56 55 56 56 56 55 54 53 53 53 54 55 56 58 60 60
21 25 21 18 11 11 9 9 9 8 7 6 12 8 15 16 15 16 19 22 31 39 38 34 33 47 54 55 54 55 56 56 55 55 54 53 53 52 53 54 55 56 57 59
17 18 21 23 18 13 16 16 15 15 12 12 12 10 13 15 17 24 28 35 40 39 39 39 38 50 54 55 55 55 55 54 54 54 53 53 52 52 52 52 53 54 55 57
8 7 16 16 14 17 15 17 16 19 18 14 15 15 14 21 26 35 38 39 40 41 40 40 40 50 54 54 54 54 54 53 54 54 53 52 52 52 52 52 52 53 54 55
9 6 9 12 14 14 15 15 15 11 13 14 25 20 21 31 38 39 40 39 40 39 40 41 41 45 53 54 54 54 54 53 54 53 53 52 52 52 52 52 53 53 53 54
11 9 14 13 13 13 15 14 17 16 18 17 18 23 24 35 35 38 39 39 40 39 40 41 41 46 53 53 53 53 53 53 53 52 52 52 52 52 52 52 53 53 54 54
18 14 19 24 14 14 11 17 15 20 15 13 16 19 18 24 30 37 37 39 42 41 41 42 42 50 53 53 53 53 53 53 53 52 51 51 52 51 51 51 52 52 54 54
31 22 18 18 17 18 14 13 16 17 18 13 11 14 27 30 34 36 40 42 43 42 41 42 44 51 53 53 52 53 52 52 52 52 51 51 51 51 51 51 51 51 53 53
33 30 24 20 23 31 20 18 16 15 17 22 18 16 35 31 36 40 42 41 42 44 44 43 47 50 53 53 52 52 52 52 53 52 51 50 51 51 50 51 51 50 51 53
33 29 24 22 27 27 26 27 24 25 22 18 18 18 28 35 36 40 41 41 43 44 45 46 48 51 53 52 52 51 52 52 52 52 51 50 50 50 50 50 50 50 50 51
35 30 26 20 23 25 24 25 28 25 20 18 19 23 28 36 38 39 41 42 45 45 46 45 46 52 53 53 51 52 52 53 53 51 51 50 51 50 50 50 50 50 49 50
35 27 29 29 31 29 25 26 25 24 21 19 21 23 31 37 40 43 45 42 45 45 45 43 45 46 52 52 52 53 54 54 53 52 52 51 51 51 51 50 49 50 49 49
34 27 31 25 29 27 23 28 28 27 27 27 23 23 38 39 42 43 44 44 44 44 43 43 43 44 45 47 53 53 53 54 54 52 53 52 52 51 51 51 50 49 50 50
31 28 26 20 27 23 18 22 25 33 35 33 26 34 38 38 42 41 41 42 42 42 42 41 41 41 42 44 44 51 54 54 54 54 54 53 53 52 51 51 51 51 50 50
30 27 26 20 21 12 30 35 34 34 34 37 35 35 38 39 40 39 40 40 40 40 39 39 39 38 38 40 42 46 52 55 54 54 54 54 54 54 54 53 52 51 51 51
33 28 22 17 21 20 30 33 33 33 32 36 36 38 37 38 41 38 39 38 38 37 37 37 36 36 35 37 39 41 42 45 46 46 48 49 53 53 53 54 54 53 52 52
31 29 22 23 18 15 25 35 37 37 29 36 36 39 37 35 33 36 38 36 36 34 35 35 35 34 33 35 36 36 36 36 38 39 40 41 43 47 50 53 53 54 54 53
27 27 24 22 20 21 30 35 37 25 26 35 37 39 39 36 37 37 36 34 33 33 33 33 33 33 33 32 33 32 32 32 33 34 34 34 35 38 40 43 51 53 54 52
25 23 23 23 21 16 34 35 27 32 35 36 35 35 35 35 35 34 32 32 31 31 31 32 32 32 32 31 31 30 29 30 30 30 30 31 32 33 34 36 36 37 40 37
26 30 27 24 23 33 33 33 34 34 33 32 31 32 33 32 32 30 29 29 29 29 30 31 31 30 30 30 29 28 28 28 28 28 28 29 29 30 31 32 32 33 32 31
33 33 30 32 32 33 34 34 32 31 30 29 29 29 30 29 28 28 27 27 27 27 28 28 29 28 28 28 27 27 27 27 27 27 27 28 28 28 29 29 30 30 29 28
31 31 29 29 31 32 32 33 33 30 29 28 27 26 26 27 26 25 25 24 25 26 26 27 27 27 27 27 26 26 25 26 26 26 26 27 27 26 26 27 28 28 29 29
30 26 25 25 29 30 29 31 28 26 25 25 25 25 23 23 23 23 23 23 23 24 24 24 25 26 26 26 25 24 24 24 24 24 24 25 25 24 24 23 24 28 28 29

GFSCGP_sfc_30mbdewp_105.txt.gz
Dewpoint
17 16 15 17 17 16 18 18 18 24 25 24 24 24 24 24 24 23 23 21 20 23 27 31 33 38 43 44 53 57 58 59 60 59 58 59 59 60 60 61 61 60 61 61
16 17 19 15 19 18 18 17 19 23 23 22 21 20 18 16 15 14 14 14 17 26 29 34 36 42 49 49 54 57 57 58 59 59 60 59 59 59 59 60 60 60 61 60
15 12 16 14 15 18 19 18 19 19 18 14 12 6 2 9 12 14 17 21 27 29 33 39 39 38 46 52 55 56 57 57 59 59 59 58 57 57 57 58 59 60 61 60
16 16 16 16 12 14 11 18 19 19 16 10 11 -2 7 11 12 17 19 24 28 39 40 40 40 41 42 50 55 56 56 57 58 58 57 56 55 54 55 56 57 60 61 59
22 25 20 15 13 16 12 15 16 16 12 7 8 10 12 15 14 18 22 33 41 41 41 41 41 42 44 50 54 55 56 56 57 57 56 55 54 54 54 55 55 58 60 60
21 19 23 22 17 14 13 13 15 16 12 13 13 12 11 13 16 25 36 39 40 41 40 41 42 43 44 53 55 55 55 55 56 56 55 54 54 54 53 53 53 56 56 58
11 14 16 17 17 15 18 19 16 18 15 14 15 12 13 20 29 37 37 37 39 40 41 41 42 43 43 47 54 54 54 54 55 55 55 54 54 53 52 53 54 55 55 56
3 -3 8 14 17 16 16 18 13 9 15 13 20 14 17 27 38 38 38 38 39 40 41 41 41 42 43 47 53 53 53 53 54 54 53 53 54 53 53 53 53 54 54 55
12 9 11 13 11 16 16 14 19 16 19 16 16 22 24 38 37 38 37 39 39 41 41 41 42 43 43 47 52 53 53 53 53 54 54 53 53 53 53 53 52 53 54 55
23 15 19 19 14 15 15 20 16 18 12 10 14 17 16 29 29 36 35 38 39 41 40 41 43 43 46 48 53 54 53 53 54 54 54 53 53 53 53 53 52 53 54 54
31 22 19 19 17 13 12 11 16 18 18 9 9 11 22 29 31 33 37 41 40 42 42 43 44 45 48 49 53 53 53 53 53 53 53 53 53 53 53 53 53 53 54 54
34 30 22 19 22 30 20 16 14 12 15 19 14 12 33 33 34 38 40 42 42 43 43 45 45 46 49 50 53 53 53 53 53 53 52 52 52 53 53 52 53 54 54 54
32 29 22 22 29 26 27 27 21 23 20 14 14 15 33 38 39 40 41 42 44 43 42 46 45 44 48 53 52 53 53 53 53 53 52 51 51 52 52 52 52 53 53 54
34 29 26 18 22 28 24 25 27 25 20 18 18 19 30 36 39 42 43 43 45 45 44 44 43 43 45 53 52 52 53 53 53 52 51 50 51 52 52 52 52 52 52 53
34 27 28 28 29 30 27 25 25 23 22 19 21 24 25 36 40 43 43 44 44 43 43 43 42 41 42 45 51 52 53 53 53 52 51 50 50 51 52 51 51 51 51 52
34 27 29 27 29 28 22 24 27 28 26 27 26 25 38 40 42 40 41 41 41 41 40 40 40 39 39 40 44 53 53 54 53 52 52 51 51 51 51 51 51 51 51 50
31 29 25 19 26 23 15 20 24 28 34 33 25 33 37 38 39 38 39 39 38 38 38 38 37 37 37 38 41 46 52 55 54 53 53 52 51 51 51 52 51 50 50 50
30 29 26 21 22 11 30 36 32 31 34 35 33 37 36 39 39 38 37 37 36 36 36 36 35 35 35 37 38 41 51 54 54 54 54 53 53 52 51 51 51 51 50 50
32 29 24 19 19 19 27 34 34 33 32 36 37 38 36 37 39 36 36 35 35 34 35 35 35 35 34 35 36 37 38 40 41 41 42 44 47 51 53 52 51 52 52 51
33 32 25 23 16 13 27 36 36 37 27 35 37 38 37 35 34 33 35 33 33 33 34 34 34 33 32 33 34 34 33 34 34 35 36 37 38 41 42 44 52 53 53 52
26 28 24 20 18 19 32 34 37 25 27 37 36 37 37 34 34 34 33 31 32 32 31 33 32 31 30 31 31 30 30 30 31 32 32 33 34 35 36 38 39 43 52 42
25 24 23 23 19 13 33 34 28 33 35 34 34 34 34 34 32 31 30 29 29 29 30 31 31 30 29 29 29 28 28 29 30 30 30 31 31 32 33 34 35 35 35 33
26 29 27 26 26 33 34 33 33 34 31 31 32 32 31 30 29 28 28 27 27 27 28 30 30 29 28 27 27 27 27 28 28 29 29 29 29 30 30 31 31 31 31 30
32 33 29 30 31 32 32 31 30 29 29 28 28 29 29 27 27 26 25 25 25 26 26 28 28 27 26 26 25 26 27 27 27 27 27 26 27 28 29 29 29 29 29 29
31 31 28 28 30 31 30 30 31 30 28 26 25 24 25 25 24 24 23 23 23 25 26 26 26 26 25 25 24 24 25 26 26 26 25 25 25 25 26 27 28 27 28 28
29 25 24 24 28 29 27 29 29 27 24 23 24 22 22 22 22 22 22 22 22 23 23 23 23 24 24 24 24 23 23 24 25 24 24 25 24 23 23 23 24 27 27 27

GFSCGP_sfc_30mbdewp_108.txt.gz
Dewpoint
7 9 9 8 16 16 14 12 11 12 19 21 21 20 21 23 25 25 25 25 25 25 24 21 31 36 39 40 41 40 47 55 58 62 61 60 60 61 61 62 61 61 61 61
7 6 6 9 12 16 17 18 12 10 21 22 18 17 18 19 20 20 18 15 15 16 13 27 36 41 42 45 45 47 50 55 58 60 60 60 61 61 61 62 62 61 61 61
8 4 7 11 13 15 18 17 16 10 12 17 15 11 10 10 8 7 8 11 12 17 25 33 39 41 43 44 47 49 51 54 57 58 60 60 61 60 60 60 60 61 60 61
9 14 9 13 14 15 12 14 12 15 21 9 8 1 4 7 9 11 13 18 22 32 37 38 40 41 43 45 47 50 51 53 56 58 59 59 58 57 58 58 59 60 60 60
16 11 16 14 14 13 11 10 12 14 13 10 4 2 -0 12 9 12 17 24 34 38 39 40 41 42 42 44 51 52 53 54 56 57 59 58 57 56 57 57 57 59 60 60
18 24 15 13 18 15 16 15 13 12 9 5 5 0 0 7 11 16 27 34 38 39 39 39 40 41 41 44 48 53 54 54 56 58 58 58 57 56 55 55 56 57 58 60
13 18 21 24 19 20 13 14 15 15 13 7 12 9 6 14 20 23 30 33 35 36 37 38 38 39 42 44 46 51 54 53 55 57 58 58 57 56 55 55 55 54 56 58
8 8 15 20 20 17 14 15 8 9 10 9 16 11 11 16 26 33 32 32 34 35 37 36 37 39 42 43 46 49 53 53 54 56 57 57 57 56 55 54 53 54 55 56
5 3 11 12 17 16 16 16 15 15 16 14 13 17 25 30 32 33 31 32 32 34 36 38 40 42 44 45 48 49 53 53 54 55 56 56 56 55 54 54 53 54 54 56
22 10 8 11 11 11 13 15 15 14 6 3 2 8 9 27 28 31 30 30 34 37 40 41 41 43 44 44 49 51 53 53 54 55 55 55 57 55 54 54 54 54 55 55
31 20 19 17 14 8 9 15 15 13 11 4 1 8 19 20 26 28 28 34 37 41 41 41 42 43 42 45 47 51 53 53 54 54 54 56 55 55 54 54 54 54 54 54
33 30 17 17 27 17 7 7 12 10 10 13 9 8 27 30 30 32 34 38 41 42 41 40 41 42 41 42 43 50 52 53 53 54 55 55 54 54 53 53 53 54 54 54
34 28 15 17 24 26 22 19 13 15 17 14 13 16 31 33 34 37 38 39 41 43 43 41 41 41 41 41 41 52 54 54 54 54 54 54 54 53 53 53 53 54 54 54
35 28 26 16 19 24 22 23 22 20 17 13 12 14 26 29 32 37 40 43 42 42 41 41 42 41 40 39 39 43 54 54 54 53 53 53 53 53 53 53 53 53 54 53
34 26 27 25 26 27 24 23 22 19 20 18 15 18 23 32 36 39 40 40 40 39 39 39 39 39 39 38 38 40 54 54 53 53 53 52 53 52 53 52 53 53 52 53
35 26 28 23 24 26 23 22 22 21 21 22 21 21 34 38 39 38 38 38 38 37 37 37 36 36 37 36 37 38 52 54 53 53 52 52 52 51 52 52 52 53 52 52
31 28 23 18 22 22 17 20 20 22 26 27 23 31 34 35 37 37 37 36 35 35 35 35 35 35 35 36 37 37 43 54 53 53 53 52 51 51 51 52 51 52 52 52
30 27 24 19 18 13 27 32 28 23 28 30 32 35 34 38 37 35 35 35 34 33 33 34 34 34 34 35 36 37 44 52 51 51 52 53 52 52 52 51 51 51 51 51
28 27 22 18 14 14 18 35 31 27 32 36 37 37 36 38 37 35 34 33 32 32 32 33 33 33 33 33 34 34 34 37 39 39 40 41 45 49 52 52 52 52 52 52
29 29 25 18 14 12 30 36 35 35 28 37 37 36 36 36 35 32 33 32 31 32 31 32 32 32 32 32 33 33 32 32 33 35 36 37 39 40 41 43 46 51 53 52
26 29 25 20 16 14 30 33 36 27 28 36 36 36 35 32 33 32 31 29 30 31 31 32 31 30 30 31 32 31 31 31 32 33 33 33 34 35 36 38 38 41 44 38
22 22 22 22 18 14 33 33 31 33 34 34 34 34 33 33 31 30 29 28 28 28 28 30 30 29 30 29 29 29 29 31 31 31 31 31 32 32 33 34 34 34 34 32
26 28 27 29 29 33 33 32 33 34 32 32 31 31 31 30 28 27 27 26 27 27 27 29 28 28 28 27 28 28 28 29 28 28 28 29 30 30 30 31 32 32 31 30
30 34 29 29 30 30 31 33 32 30 29 29 29 29 29 28 26 25 24 24 25 26 26 27 27 26 25 27 26 27 28 28 27 27 27 27 27 28 28 29 29 29 29 28
30 31 29 29 29 30 29 30 31 30 28 26 26 26 26 26 24 24 23 23 23 24 26 26 25 25 24 25 26 25 26 28 27 26 26 26 26 26 26 27 27 27 28 28
29 26 26 26 28 28 28 30 29 27 25 24 24 23 24 24 23 23 22 22 22 22 23 23 24 23 23 23 23 24 25 27 28 26 25 25 24 24 24 24 24 27 27 26

GFSCGP_sfc_30mbdewp_111.txt.gz
Dewpoint
14 6 5 6 13 17 18 18 17 19 18 21 22 21 21 21 23 24 25 26 26 27 27 27 28 30 32 35 35 36 38 45 55 57 59 61 62 61 61 60 60 60 61 62
10 3 3 7 8 14 17 17 20 19 19 18 18 19 20 20 20 22 24 25 25 25 25 26 25 29 37 39 40 41 42 44 48 54 57 62 61 61 62 61 61 61 62 61
6 2 1 6 7 8 14 16 18 16 16 19 16 16 15 14 15 17 20 21 19 17 16 19 24 36 39 41 42 43 44 45 48 53 59 61 61 60 61 61 61 61 61 60
5 1 1 4 5 9 9 16 17 18 18 18 21 16 14 14 8 11 12 11 11 12 16 22 32 36 39 41 44 48 47 47 49 54 58 59 59 58 59 60 60 60 61 60
11 6 6 6 6 12 11 17 20 19 17 15 13 15 13 9 5 8 10 13 18 25 31 32 35 36 37 38 42 48 51 50 50 52 57 59 59 58 58 59 59 59 60 60
12 12 13 11 8 12 15 14 14 14 14 11 12 9 7 6 10 6 9 19 29 32 33 33 34 36 35 39 43 46 50 51 51 53 56 59 58 58 56 57 57 58 60 60
21 26 13 14 15 16 17 18 17 15 13 11 11 8 6 7 12 14 21 28 31 33 33 34 33 33 35 38 41 44 45 50 52 54 55 60 59 59 56 57 57 57 58 59
9 13 21 21 14 16 16 15 20 15 14 11 10 10 8 8 15 21 26 29 30 31 33 33 34 38 39 40 42 45 47 47 51 53 55 58 59 59 58 57 56 56 56 57
7 9 13 21 18 16 15 11 14 16 19 19 16 13 21 16 19 28 26 25 27 29 31 35 38 40 42 42 43 43 47 48 49 53 56 57 59 59 57 57 56 55 54 55
22 8 8 10 17 15 14 13 12 14 9 7 6 11 13 18 22 26 24 26 28 31 35 37 39 40 42 42 43 44 48 49 49 53 56 57 57 58 58 56 55 54 54 55
29 23 8 7 8 7 8 12 11 9 7 5 5 9 21 21 23 25 25 27 30 33 37 37 38 40 41 42 42 44 48 51 50 54 55 56 56 57 57 56 55 54 55 55
33 30 15 14 13 11 2 8 11 7 6 7 11 22 21 24 24 26 27 30 34 38 43 41 41 41 41 41 41 42 44 52 53 55 55 55 56 57 56 55 54 54 55 54
34 26 25 27 21 13 5 5 13 14 12 15 10 8 25 27 29 31 34 42 42 42 41 41 40 41 41 40 41 40 41 44 54 55 55 55 55 57 55 55 54 54 54 54
36 30 28 24 28 21 19 11 8 11 12 10 12 28 32 27 27 38 39 40 39 40 39 39 39 39 40 40 39 39 40 42 55 55 55 55 55 56 54 54 54 54 54 53
32 27 25 26 26 24 26 24 18 15 16 16 19 22 30 36 38 38 38 38 37 37 37 37 37 37 38 38 38 38 39 41 54 54 55 54 55 54 54 53 54 54 53 53
29 28 24 19 18 20 19 17 17 15 13 14 14 13 33 37 37 36 36 36 36 35 35 35 35 35 36 36 36 36 37 38 44 54 53 54 54 54 54 53 53 53 54 53
28 28 24 16 17 17 15 17 17 16 16 19 18 29 33 36 35 35 35 35 34 33 34 33 34 34 35 35 35 35 36 37 46 53 53 53 53 53 53 53 53 53 53 54
27 26 23 20 17 13 21 27 23 17 28 30 28 32 33 36 35 34 33 33 33 32 32 33 33 32 33 34 35 35 34 36 48 49 51 53 53 52 52 52 52 52 52 52
26 28 23 19 15 16 16 33 35 32 34 36 35 36 37 35 34 33 33 33 32 31 32 32 32 31 32 32 34 34 33 33 36 38 40 42 47 50 51 51 52 52 52 52
24 25 23 21 15 14 30 30 34 34 30 37 36 34 34 36 34 32 32 31 30 31 31 31 31 30 30 31 32 32 31 31 31 33 34 36 39 42 43 44 48 50 52 50
26 27 24 19 16 22 28 30 33 28 28 35 35 35 33 32 32 32 31 29 29 29 30 32 32 31 30 31 31 31 31 29 31 32 33 33 34 36 37 38 39 41 39 36
24 23 25 22 21 20 32 32 29 32 35 34 33 33 32 32 31 30 28 28 29 28 29 30 30 29 30 30 31 31 29 31 31 32 32 31 32 32 34 34 34 34 34 32
24 27 26 29 27 33 33 33 32 33 31 31 30 30 31 30 29 28 27 26 27 28 28 28 28 28 28 30 30 30 31 31 31 30 29 29 30 30 30 31 31 31 31 30
30 30 28 27 28 29 31 33 32 30 29 28 29 29 29 28 27 26 25 25 26 27 27 27 26 25 25 28 29 29 29 29 28 27 28 27 27 27 28 28 28 28 28 27
29 29 29 29 30 30 30 31 33 32 28 26 26 27 27 27 26 26 24 24 24 24 25 26 26 25 24 26 26 26 29 28 26 26 26 25 26 25 25 26 26 26 27 27
28 28 27 26 28 30 29 30 32 30 27 25 25 25 24 25 24 24 24 24 23 23 23 23 24 25 25 25 25 25 27 28 27 26 25 26 25 25 24 23 24 27 28 28

GFSCGP_sfc_30mbdewp_114.txt.gz
Dewpoint
29 15 9 10 18 18 17 16 17 19 20 20 19 19 18 19 20 21 24 25 26 28 28 29 30 31 34 36 37 39 44 57 62 63 64 64 63 62 62 62 63 63 63 65
30 26 11 11 9 13 13 13 16 19 20 24 26 26 22 21 22 22 24 24 26 27 27 28 30 34 35 36 41 42 42 43 54 60 61 62 63 63 62 62 62 63 64 64
28 26 11 10 3 5 9 11 16 17 24 30 26 26 18 21 22 22 24 26 27 27 28 28 29 35 39 41 43 43 44 45 47 46 58 61 63 62 61 61 60 63 63 62
31 31 13 8 5 0 6 10 14 17 22 27 25 16 16 18 19 18 17 18 23 25 23 22 27 36 39 41 44 45 48 48 48 51 52 62 61 60 60 61 61 62 62 62
30 31 16 6 3 -1 5 9 13 17 20 24 22 18 18 19 20 22 18 16 18 20 20 21 33 36 38 41 44 46 49 51 51 51 54 61 60 60 60 60 60 61 61 61
31 30 26 8 1 -1 6 14 18 19 20 19 19 18 16 18 21 22 16 11 18 28 32 33 35 36 35 39 43 45 46 47 51 52 54 60 60 59 58 59 59 60 61 61
19 24 26 18 7 3 14 15 17 19 17 17 18 17 17 15 15 18 14 15 32 34 33 32 33 34 38 41 44 45 45 46 48 53 53 58 60 60 59 59 59 59 60 60
6 24 28 23 12 7 16 15 18 12 13 13 14 14 14 15 13 14 24 31 33 33 35 34 37 41 42 43 44 45 45 45 47 49 54 56 60 60 59 59 59 59 59 59
24 17 28 26 16 16 16 16 20 19 24 21 15 15 17 13 19 24 28 31 30 31 34 36 39 42 42 42 43 45 45 46 48 49 51 56 58 60 58 59 60 58 58 58
30 27 25 27 18 16 17 20 18 19 15 17 27 13 20 14 23 28 31 27 28 30 36 37 39 40 41 42 43 44 43 44 47 49 52 56 57 58 59 60 58 58 57 57
30 28 24 17 26 21 20 15 15 16 15 11 15 23 27 20 27 35 24 29 39 41 41 41 41 41 42 43 42 42 42 43 44 47 52 56 56 57 59 59 59 57 56 56
31 32 25 16 9 10 13 13 15 15 13 10 11 19 32 31 26 27 41 41 43 42 41 40 41 41 41 41 41 41 41 41 43 45 53 56 57 57 58 59 58 57 56 57
31 29 24 21 22 9 5 4 9 14 13 16 15 13 34 35 36 40 40 40 39 39 38 38 39 39 39 40 40 40 40 40 41 44 52 56 56 56 57 59 56 56 55 55
34 29 29 25 29 31 18 1 2 7 13 13 20 24 30 38 39 38 38 38 38 37 37 37 37 37 37 38 38 39 38 39 39 42 51 55 55 56 56 57 55 55 55 53
28 27 28 26 24 30 34 30 20 6 12 12 27 28 36 39 39 37 36 36 36 36 35 35 35 36 36 36 36 36 37 37 38 40 46 55 55 56 56 55 54 55 55 54
26 27 27 20 15 23 29 31 30 30 27 23 23 25 40 39 37 36 35 35 34 34 34 34 34 33 33 34 34 35 35 36 37 40 46 55 55 56 56 55 55 55 55 54
25 29 25 17 17 15 13 16 18 15 16 19 23 34 39 34 34 34 33 33 33 32 32 32 33 32 33 33 33 34 35 35 36 41 51 54 55 55 55 55 54 54 54 54
25 24 24 22 20 12 27 32 33 27 32 33 34 35 34 33 33 32 33 32 32 31 32 32 32 31 31 32 33 33 34 34 34 35 39 49 54 54 55 55 54 54 54 54
25 26 24 21 19 16 28 30 32 33 34 36 34 35 34 34 34 33 32 32 31 31 31 31 32 31 31 31 32 32 32 32 32 32 33 36 42 53 54 53 53 54 54 54
25 26 23 20 18 15 27 29 30 32 28 33 37 33 34 36 34 31 31 30 30 30 31 31 31 31 30 31 32 31 30 30 30 31 32 34 36 41 47 49 51 51 49 43
24 25 22 19 17 27 30 31 30 26 26 34 36 34 32 31 31 31 30 29 30 29 29 29 29 29 29 31 31 31 30 29 30 31 32 32 33 35 36 38 40 41 38 34
25 25 24 26 21 21 33 30 28 32 36 36 34 31 30 30 30 30 29 28 29 28 28 28 27 28 29 29 30 30 29 31 31 30 30 30 32 32 33 33 34 34 33 31
25 27 25 28 27 31 33 33 35 34 31 30 30 30 29 28 28 28 27 28 28 28 27 28 27 26 27 28 29 28 30 31 31 29 28 28 29 31 31 30 31 30 30 29
29 28 29 28 28 29 31 33 34 35 32 28 28 28 28 27 27 26 26 26 27 28 27 26 26 26 25 27 28 29 31 31 30 28 27 27 26 27 28 28 29 28 28 26
29 29 29 29 28 30 29 31 32 33 31 29 27 26 26 26 25 25 25 25 25 26 27 26 25 25 25 26 27 28 29 31 29 28 27 26 25 25 25 26 26 26 27 27
29 27 26 24 27 29 28 30 31 29 30 26 23 24 24 24 24 24 23 23 22 23 23 24 24 24 24 25 25 27 29 29 28 26 27 27 25 24 23 22 23 27 28 28

GFSCGP_sfc_30mbdewp_117.txt.gz
Dewpoint
23 14 17 22 18 13 12 14 11 16 19 19 19 19 19 20 20 20 22 22 24 25 26 27 27 28 28 33 38 52 63 64 65 64 64 64 63 63 63 64 65 65 65 65
24 20 16 17 27 21 12 10 14 17 19 21 20 24 20 23 21 19 20 22 23 27 28 26 26 32 35 39 42 45 60 65 65 65 64 64 64 64 63 63 63 64 64 64
22 25 19 17 23 26 12 9 10 15 25 29 27 26 26 27 23 21 20 22 25 27 28 30 34 35 39 41 42 42 46 55 62 63 64 63 63 62 62 61 62 63 63 64
24 24 26 22 21 25 9 9 8 11 13 23 28 20 22 27 24 20 21 21 24 27 28 28 37 39 40 42 46 46 49 50 50 52 60 61 61 61 61 61 61 61 63 63
22 26 31 30 27 23 10 10 7 9 18 29 28 26 21 21 19 19 21 23 22 22 26 28 37 39 40 44 46 48 49 49 50 50 53 60 60 61 61 61 61 60 62 63
27 29 31 31 29 21 12 10 10 22 28 25 23 23 19 18 18 19 21 22 23 23 31 36 38 41 45 45 46 46 46 46 47 50 52 60 60 60 60 60 60 60 60 62
15 19 25 31 29 26 10 6 18 21 23 18 20 19 19 20 19 19 20 22 29 31 33 37 42 43 43 44 44 44 45 44 45 48 49 51 59 60 59 59 59 60 59 60
20 23 29 29 28 19 11 19 20 18 17 15 17 18 18 20 21 21 21 32 34 33 39 42 42 41 42 43 44 43 43 43 44 47 49 50 52 60 59 59 60 59 59 60
25 22 29 30 32 28 18 17 22 22 23 20 15 15 17 19 23 27 30 32 34 38 40 41 41 41 42 43 43 43 42 42 43 44 46 47 50 56 60 59 59 60 60 60
29 24 28 33 34 22 16 19 19 27 21 20 26 17 17 25 31 36 42 39 41 41 41 41 42 42 42 43 43 42 42 41 42 42 43 45 48 51 60 59 58 59 60 60
31 29 25 29 28 22 20 17 24 29 21 18 23 25 30 29 31 40 43 44 42 40 40 40 40 40 40 41 41 41 40 40 40 41 41 43 46 50 58 58 58 59 59 59
31 30 26 22 26 24 26 22 20 19 20 17 20 27 38 40 41 42 42 41 40 38 38 38 38 38 38 38 39 38 38 38 39 39 40 41 45 56 57 58 58 59 58 59
31 28 23 21 22 29 27 23 18 20 21 13 16 27 40 40 41 39 37 38 38 37 36 36 36 36 36 36 37 36 37 37 37 38 38 40 44 57 57 57 58 58 58 58
31 30 28 21 24 31 28 29 26 16 16 15 22 31 37 39 38 38 36 36 35 35 35 34 34 34 34 35 35 35 35 36 36 36 37 39 42 55 57 57 58 57 57 57
24 25 27 28 28 32 31 30 29 25 22 14 27 33 36 36 37 37 35 34 33 33 33 33 33 33 33 33 33 33 34 35 36 36 37 39 42 53 56 57 57 57 56 55
25 25 28 25 25 26 27 30 28 28 28 28 32 35 38 39 38 34 33 32 32 32 32 32 32 31 31 31 32 33 34 34 35 35 36 38 46 54 56 56 56 57 55 54
26 26 25 22 24 24 28 32 33 32 36 32 30 36 35 33 33 32 32 31 31 31 31 31 31 30 31 31 32 32 33 32 33 34 34 35 38 55 56 56 55 56 55 54
27 25 25 23 23 17 29 31 34 32 32 34 37 36 35 33 32 31 32 31 31 30 30 31 31 30 30 31 31 32 31 31 31 31 33 34 35 43 55 55 55 55 55 54
28 26 24 21 20 25 26 29 30 32 29 32 34 35 32 32 31 30 30 30 30 30 30 31 31 30 30 30 31 32 31 30 29 29 31 33 34 37 53 54 54 55 55 54
27 28 25 22 18 19 26 30 32 32 23 33 33 32 34 34 30 28 30 30 29 29 29 30 31 29 29 29 30 31 30 29 28 29 30 32 33 34 36 51 54 54 47 41
25 26 23 23 21 26 30 32 32 22 25 33 34 33 30 29 30 30 29 29 28 28 28 28 29 28 28 29 29 29 29 28 29 29 29 30 32 33 33 37 44 42 37 34
26 23 23 24 20 18 32 30 25 31 35 35 35 33 30 30 30 28 28 27 28 27 27 27 27 27 28 28 28 28 28 30 29 28 27 28 30 32 32 32 33 34 33 31
26 27 27 26 25 31 32 31 33 35 31 29 29 29 28 27 28 27 27 27 27 27 27 28 26 25 25 26 28 26 29 30 29 27 26 26 27 29 31 30 30 29 29 28
29 30 28 28 29 30 30 31 33 33 33 30 28 26 27 26 26 26 26 26 27 28 26 26 25 24 24 25 26 28 29 30 29 27 26 25 25 26 27 28 29 28 27 26
29 28 28 27 28 29 29 30 30 31 31 28 28 28 27 26 25 24 23 23 24 25 26 25 25 24 24 25 26 28 28 29 28 28 27 25 24 24 25 26 27 27 28 28
28 26 24 23 27 28 27 29 30 28 29 27 25 25 23 24 23 23 22 22 22 23 24 23 23 23 23 24 25 27 28 27 27 27 27 27 26 24 24 24 24 28 29 30

GFSCGP_sfc_30mbdewp_120.txt.gz
Dewpoint
25 23 20 18 17 20 19 17 13 12 13 13 9 17 19 21 22 24 24 25 25 26 26 27 27 28 28 28 33 56 58 61 64 64 63 63 63 65 65 65 66 65 66 66
23 23 24 24 22 16 15 19 22 18 13 12 14 13 17 19 21 22 23 23 24 25 26 26 27 28 30 33 36 56 59 62 63 64 64 64 63 63 64 65 65 65 65 65
24 22 21 23 23 21 19 16 17 21 14 12 23 25 24 27 22 21 22 22 22 23 24 26 26 31 37 41 52 60 63 64 64 64 64 63 63 62 62 62 63 65 64 64
23 23 20 20 21 24 24 18 18 21 13 10 27 22 24 26 27 25 22 21 22 24 27 30 34 39 41 45 49 53 58 60 60 63 63 62 61 61 62 62 62 63 64 64
22 21 26 27 27 32 27 25 19 22 12 10 16 24 28 25 24 26 24 21 22 23 28 40 43 45 45 45 45 46 46 48 51 52 55 61 61 61 61 61 61 62 63 63
23 23 25 24 28 28 31 23 23 17 13 10 14 25 23 21 22 23 22 21 22 39 42 43 43 43 43 44 44 44 43 44 46 49 50 52 56 59 60 60 60 60 62 63
27 23 30 31 30 30 27 20 15 12 14 18 24 28 25 23 20 21 22 24 30 39 41 42 42 43 43 42 43 43 43 43 44 44 45 48 48 50 58 60 60 60 60 60
24 20 25 27 33 30 27 19 11 12 16 18 25 22 20 21 22 22 25 36 41 40 41 41 42 43 43 42 42 42 42 41 42 42 42 43 45 47 51 58 60 60 60 60
25 23 26 25 29 34 18 14 14 18 25 16 18 16 16 31 32 29 38 39 40 41 41 42 42 42 41 41 41 41 40 40 40 40 41 42 42 44 48 51 59 60 60 59
27 25 27 30 34 30 28 21 22 24 19 14 23 21 29 38 40 40 39 39 39 39 39 39 38 39 39 40 39 39 39 38 39 39 39 40 40 42 45 48 51 60 60 60
30 29 25 29 32 29 27 21 28 27 27 23 21 28 38 39 41 39 39 38 38 37 37 37 37 37 37 37 37 37 37 37 37 37 38 38 39 40 44 46 51 58 60 60
31 31 26 23 27 31 29 30 29 21 25 28 25 27 40 39 40 40 38 38 38 37 35 35 34 34 35 35 35 35 35 36 36 37 37 38 38 40 42 45 54 58 59 60
26 27 23 18 22 27 30 30 31 32 30 25 20 28 39 37 36 36 37 36 36 36 35 34 33 33 33 33 33 34 34 35 36 36 36 37 38 39 41 44 57 58 58 58
28 27 26 22 24 28 28 29 31 30 26 21 25 31 35 35 33 35 35 34 35 34 33 33 32 31 32 32 32 33 33 34 34 35 36 36 37 39 41 44 53 58 58 58
25 23 25 26 28 32 31 31 31 29 30 19 29 33 32 33 34 33 33 34 32 32 32 32 31 31 31 31 31 32 33 33 33 33 34 35 36 37 40 46 52 57 58 58
25 24 26 25 26 31 30 32 31 32 32 35 33 31 36 36 35 32 32 32 31 31 31 31 30 30 30 30 31 31 32 31 32 31 32 33 35 36 38 42 53 57 57 58
25 26 23 22 24 29 22 27 30 29 30 34 31 32 34 31 30 30 30 30 30 30 30 29 29 29 29 30 30 30 31 31 30 30 30 31 33 34 37 40 53 56 56 56
25 26 25 23 22 19 29 30 32 30 30 31 31 31 31 31 30 30 29 29 29 29 29 30 30 29 29 30 29 30 30 30 29 29 29 30 32 33 35 38 45 56 56 55
29 27 23 21 20 28 26 27 29 28 27 31 30 32 32 32 30 29 30 29 29 29 29 29 29 28 29 28 29 29 29 29 28 28 28 29 30 31 34 35 38 55 55 54
29 30 26 23 20 17 24 28 31 32 23 32 32 31 31 34 27 27 29 28 27 27 27 27 27 27 26 27 28 27 28 27 27 28 27 28 29 30 32 34 36 54 53 46
26 25 22 23 23 25 28 30 31 19 24 33 33 32 30 28 29 30 28 28 26 26 26 27 26 26 26 26 27 27 27 26 28 28 26 26 28 29 32 33 33 39 38 36
25 24 23 22 19 17 30 28 24 29 31 31 31 30 30 30 29 28 27 26 26 25 26 26 25 25 26 26 27 26 27 29 29 27 25 25 27 28 30 31 31 32 33 32
25 29 25 24 24 30 31 30 32 33 31 30 28 28 29 28 27 27 27 26 26 25 25 25 24 24 25 26 27 25 27 29 28 26 25 25 26 27 28 29 29 28 29 29
29 29 27 27 28 28 29 30 31 32 31 30 32 27 27 27 26 25 24 25 25 25 23 23 23 23 23 25 25 26 27 28 27 27 25 25 24 26 27 28 28 27 27 26
30 27 26 25 27 28 28 28 28 28 29 26 26 28 26 25 23 22 22 22 23 23 22 22 22 22 22 24 24 26 27 27 26 26 25 25 25 24 25 26 27 27 29 28
27 25 23 22 27 28 26 28 29 28 27 27 26 25 23 24 22 22 21 22 22 21 21 20 21 21 21 22 24 25 27 27 26 25 24 24 24 24 24 25 25 28 29 29

GFSCGP_sfc_30mbdewp_123.txt.gz
Dewpoint
25 22 17 19 18 16 15 16 15 17 18 18 15 13 12 14 15 14 22 23 25 25 26 26 26 27 28 33 52 59 60 63 65 64 63 63 64 64 65 66 65 65 66 65
21 20 20 22 23 21 21 18 17 17 16 18 19 18 15 13 15 14 18 22 25 26 26 27 27 27 27 28 32 54 58 61 64 64 63 63 64 64 65 65 66 65 66 65
19 20 22 21 21 21 22 22 21 20 21 18 19 18 14 13 17 19 17 22 23 25 26 26 27 27 28 30 34 45 55 59 62 63 63 62 62 62 63 64 64 65 65 65
22 23 21 20 19 20 20 22 24 30 26 18 16 11 16 19 24 26 19 20 22 22 24 26 37 42 45 50 55 58 59 60 62 63 63 62 61 61 62 62 64 64 65 65
24 24 24 24 24 24 26 27 31 26 21 17 18 17 17 22 25 25 25 21 23 24 30 42 44 44 45 45 46 47 49 50 53 56 59 60 60 61 61 61 62 62 64 64
25 26 24 24 24 28 32 30 28 24 22 16 16 17 16 21 23 25 26 24 41 42 43 43 43 42 42 42 43 43 43 44 45 47 47 48 49 51 57 60 61 61 62 63
25 26 26 26 29 30 30 24 17 15 17 13 15 14 15 20 26 27 28 41 41 42 42 42 41 41 41 41 41 42 42 42 43 43 43 44 45 46 48 53 59 60 60 61
23 18 26 29 28 27 30 21 15 9 16 17 22 17 22 33 27 37 39 41 41 41 41 41 41 41 40 39 39 40 40 39 40 40 41 42 42 43 46 51 55 60 60 61
23 22 24 26 28 32 27 27 23 16 23 22 24 23 33 38 38 40 40 40 38 38 39 38 38 38 38 37 38 38 38 38 38 39 39 40 40 40 42 44 47 49 59 61
27 23 25 27 33 33 32 28 20 21 18 16 20 26 30 36 35 37 36 36 36 36 36 36 36 36 36 36 36 36 36 36 37 37 38 38 39 39 40 42 45 48 51 59
26 28 24 27 31 30 31 30 30 29 28 22 21 26 37 37 37 36 35 35 34 34 33 34 34 34 34 34 34 34 35 35 35 36 37 37 37 38 39 41 43 46 49 52
23 27 25 23 30 31 32 32 31 27 24 27 27 27 39 38 37 37 36 35 34 34 33 32 33 33 32 33 33 33 34 34 35 35 35 36 37 38 39 40 42 45 47 54
25 24 22 16 22 25 29 30 32 33 32 27 24 26 33 35 34 34 34 35 35 34 33 32 31 31 31 32 32 33 33 33 33 33 34 35 36 37 37 38 40 43 46 55
27 27 23 19 22 29 28 30 31 32 27 26 29 28 30 30 30 31 32 33 33 34 32 32 31 31 31 31 31 31 32 32 32 32 32 33 34 35 36 37 39 43 47 55
25 23 24 24 26 30 30 31 32 29 31 28 30 27 29 30 30 30 31 33 31 31 31 31 30 30 30 30 30 30 32 31 31 31 31 32 32 34 35 36 39 41 46 54
25 22 25 23 27 30 24 27 28 28 30 33 31 27 31 31 31 30 31 31 30 30 30 30 30 29 29 29 30 30 31 30 31 30 30 31 31 32 33 35 37 40 43 54
24 25 24 20 24 31 21 25 27 28 29 30 27 29 30 29 28 28 29 29 29 29 29 30 28 28 28 27 28 29 30 30 30 29 29 29 30 30 32 34 36 38 41 52
25 26 25 23 24 16 27 31 31 29 28 30 30 29 30 29 29 29 29 28 27 28 28 28 27 27 27 28 28 29 29 28 28 28 27 28 28 29 30 33 34 36 40 48
27 27 25 21 22 25 24 26 27 26 26 31 29 31 32 32 31 28 28 27 27 27 26 27 26 26 27 27 27 28 27 27 27 27 26 26 27 28 29 31 33 35 38 43
30 28 26 23 20 16 25 27 29 32 22 32 31 30 29 29 26 26 28 26 26 26 26 26 25 25 26 26 27 26 27 26 27 26 25 25 26 27 28 30 32 34 37 47
24 24 23 22 23 24 27 28 30 20 22 31 32 31 28 27 28 28 27 26 24 24 25 25 25 25 26 26 26 25 26 26 28 26 25 25 26 27 28 29 31 32 34 35
24 22 20 21 17 14 29 27 23 28 31 30 28 30 30 29 29 27 26 25 24 24 23 24 24 24 25 25 25 24 25 26 27 27 24 24 25 26 28 28 29 30 30 32
23 28 23 25 23 29 30 29 31 32 31 30 29 28 29 28 27 27 26 25 24 23 22 22 22 22 23 24 26 25 25 26 26 24 24 24 24 26 26 27 27 28 29 28
29 29 26 26 28 28 28 28 29 30 29 29 31 28 27 27 26 25 23 23 23 22 21 20 20 20 21 23 24 26 25 25 25 24 23 23 23 24 25 25 27 27 27 27
29 27 25 24 27 28 27 26 27 27 29 27 25 26 25 25 24 23 22 21 20 20 20 20 20 20 20 22 23 25 25 25 25 25 24 23 23 24 24 25 25 25 27 27
27 24 22 21 27 27 26 28 29 27 26 28 27 25 25 23 23 22 20 20 19 19 19 19 19 20 20 21 23 24 26 25 24 24 24 23 23 23 23 23 23 25 26 27